     2.11           OBSERVATION DATA    G (GPS)             RINEX VERSION / TYPE
teqc 2010Oct21 OPUS Account 20111026 16:21:15UTC            PGM / RUN BY / DATE
K 1523                                                      MARKER NAME
1190                                                        MARKER NUMBER
CSMIDDLETON NGS                                             OBSERVER / AGENCY
0220320152 TRIMBLE 5700 NP 2.01 / SP 0.00                   REC # / TYPE / VERS
12214372 TRM41249.00 NONE                                   ANT # / TYPE
  -750373.4178 -5512123.5707  3109665.6078                  APPROX POSITION XYZ
        2.0000        0.0000        0.0000                  ANTENNA: DELTA H/E/N
     1     1                                                WAVELENGTH FACT L1/2
     5    L1    L2    C1    P1    P2                        # / TYPES OF OBSERV
  2011     8     1    17    32    0.0000000     GPS         TIME OF FIRST OBS
                                                            END OF HEADER
 11  8  1 17 32  0.0000000  0  8G06G07G08G10G13G16G19G23
     46646.91857     25347.03955  22742854.5474                   22742853.9964
    -91309.12957    -60607.75856  21881986.2734                   21881983.3484
    -99097.98457    -69648.91853  23851950.6024                   23851948.9024
     -5284.54356     -7871.55954  23791006.5784                   23791006.1804
    -28626.64557    -21966.73457  19899919.3364                   19899916.4224
     72584.62156     40769.05554  23371214.4384                   23371212.8524
    -60734.21157    -41968.87556  20935537.9064                   20935533.3134
     38791.37958     19443.81656  20460927.3594                   20460922.7934
 11  8  1 17 32 30.0000000  0 10G03G06G07G08G10G13G16G19G23G28
     40587.79758     26252.04355  21012553.1884                   21012550.2734
     87484.65647     57168.61344  22750625.6884                   22750625.1134
   -173726.78147   -124829.30946  21866303.0474                   21866299.6254
   -194661.83647   -144114.22743  23833765.4454                   23833764.5434
    -10986.81246    -12314.92244  23789921.1024                   23789920.4614
    -54371.50047    -42027.69147  19895020.5234                   19895017.0944
    136835.24646     90834.44144  23383441.4224                   23383438.9304
   -115360.03547    -84534.44546  20925142.7034                   20925138.4304
     72523.97348     45728.89146  20467346.7114                   20467342.4774
   -180155.09856   -139545.65653  24434519.6564                   24434521.9264
 11  8  1 17 33  0.0000000  0 11G03G06G07G08G10G13G16G19G23G28G11
     60433.04348     41715.84445  21016329.4694                   21016327.3364
    128285.16847     88961.20345  22758389.6174                   22758389.0394
   -256556.43747   -189371.89546  21850540.5704                   21850538.0124
   -290746.16447   -218985.05143  23815481.0084                   23815480.3984
    -16717.46947    -16780.46544  23788830.9694                   23788830.6764
    -79990.86347    -61990.85947  19890145.1484                   19890142.0784
    200623.79746    140539.71144  23395580.0394                   23395578.3134
   -169862.14547   -127003.59446  20914771.5634                   20914766.7704
    106306.79347     72053.11346  20473775.3134                   20473771.0744
   -280441.45346   -217690.74243  24415435.9144                   24415437.5864
   -184382.24256   -142687.63353  24610399.0634                   24610402.2424
 11  8  1 17 33 30.0000000  0 11G03G06G07G08G10G13G16G19G23G28G11
     80572.43848     57408.85245  21020162.2344                   21020159.5634
    169228.04747    120864.69145  22766181.2344                   22766180.3594
   -339615.31647   -254093.09846  21834735.2274                   21834732.1844
   -387168.94547   -294119.67643  23797133.1334                   23797130.6134
    -22296.87547    -21128.12543  23787768.9064                   23787768.8754
   -105302.19947    -81714.00447  19885328.6174                   19885325.5944
    264130.63746    190025.50444  23407665.0234                   23407662.0554
   -224057.49247   -169233.73846  20904458.4844                   20904454.2704
    140320.32447     98557.10546  20480247.8984                   20480243.7114
   -380795.51246   -295888.57843  24396339.6954                   24396341.0004
   -287103.64146   -222730.09443  24590850.6174                   24590854.3284
 11  8  1 17 34  0.0000000  0 11G03G06G07G08G10G13G16G19G23G28G11
    101093.93048     73399.59045  21024066.8984                   21024064.5314
    210400.75047    152947.31644  22774015.7734                   22774013.8364
   -422813.12147   -318922.55546  21818902.9844                   21818900.3594
   -483840.83247   -369448.38343  23778735.6484                   23778735.2504
    -27637.14846    -25289.45743  23786752.8834                   23786752.4964
   -130215.15247   -101126.72347  19880588.0004                   19880584.5394
    327443.96546    239360.46543  23419712.5084                   23419709.6604
   -277855.28547   -211154.07446  20894220.8524                   20894216.7304
    174652.25448    125309.21146  20486780.6724                   20486776.4774
   -481127.39546   -374069.14843  24377246.1484                   24377247.8554
   -390157.50446   -303031.58643  24571240.9614                   24571245.1054
 11  8  1 17 34 30.0000000  0 11G03G06G07G08G10G13G16G19G23G28G11
   1697451.69148   1317314.71145  21327843.6484                   21327841.0434
   1827256.88747   1412835.16045  23081693.8444                   23081692.1684
   1069311.02747    843771.58246  22102844.5554                   22102842.0664
    994698.82446    782660.50044  24060092.5864                   24060093.3404
   1542717.01247   1198363.05543  24085581.1484                   24085580.2384
   1420728.98847   1107401.15247  20175722.6724                   20175719.1644
   1966017.22746   1516170.72343  23731523.3134                   23731520.6254
   1244205.25447    974867.13746  21183859.3054                   21183855.1454
   1784757.36747   1379936.51246  20793173.8984                   20793169.2274
    994023.75046    775399.43443  24657959.2504                   24657960.5124
   1081919.12547    844041.35543  24851367.0704                   24851370.7624
 11  8  1 17 35  0.0000000  0 11G03G06G07G08G10G13G16G19G23G28G11
   1718823.47748   1333968.01645  21331910.5164                   21331908.4734
   1868975.06647   1445342.80144  23089632.3364                   23089631.1564
    985930.47747    778799.72746  22086978.0704                   22086975.5594
    897621.71146    707016.00444  24041619.9454                   24041619.3954
   1537941.44147   1194641.78144  24084672.6724                   24084672.3984
   1396707.05147   1088682.73047  20171151.4304                   20171148.4614
   2029030.64546   1565271.99643  23743513.2344                   23743511.9694
   1191299.67647    933642.01246  21173791.7424                   21173787.6524
   1819814.14548   1407253.43046  20799845.0474                   20799840.9774
    893829.78546    697326.33243  24638893.0554                   24638893.8284
    978299.55946    763298.99643  24831648.5784                   24831652.6724
 11  8  1 17 35 30.0000000  0 11G03G06G07G08G10G13G16G19G23G28G11
   1740641.96948   1350969.41045  21336062.5554                   21336060.9414
   1910986.69147   1478079.09845  23097627.2664                   23097626.3594
    902483.71547    713776.28946  22071098.7274                   22071096.3054
    800366.02346    631232.37544  24023113.1564                   24023112.2384
   1533469.68847   1191157.21143  24083821.7504                   24083820.9804
   1373155.30147   1070330.68847  20166669.6804                   20166666.7194
   2091915.89146   1614273.39844  23755481.5944                   23755479.3484
   1138865.94947    892784.56346  21163814.0634                   21163809.6134
   1855254.92647   1434869.57046  20806589.2814                   20806584.8874
    793729.23447    619326.08643  24619843.8134                   24619846.0664
    874424.50847    682357.61344  24811881.9144                   24811885.6374
 11  8  1 17 36  0.0000000  0 11G03G06G07G08G10G13G16G19G23G28G11
   1762917.41448   1368326.88345  21340301.3444                   21340298.7304
   1953301.70347   1511051.79745  23105679.5634                   23105677.2464
    818983.59847    648711.27046  22055208.9844                   22055206.6334
    702944.29347    555319.38344  24004574.4454                   24004573.1094
   1529312.04347   1187917.43443  24083030.8284                   24083029.9454
   1350086.45347   1052354.93447  20162280.0084                   20162276.8364
   2154683.31347   1663183.02044  23767425.6644                   23767424.3834
   1086917.69947    852305.41446  21153928.5084                   21153923.5474
   1891089.99247   1462792.94946  20813408.5944                   20813404.0314
    693734.81646    541408.50043  24600814.9224                   24600816.8714
    770308.61747    601228.57044  24792068.7894                   24792073.2424
 11  8  1 17 36 30.0000000  0 11G03G06G07G08G10G13G16G19G23G28G11
   1785659.55948   1386048.01645  21344629.0234                   21344626.4734
   1995929.61747   1544268.30545  23113791.3754                   23113789.7034
    735442.59447    583614.41046  22039311.5314                   22039309.1564
    605368.35546    479286.22344  23986005.3914                   23986004.9654
   1525477.93847   1184929.72743  24082301.5004                   24082300.5634
   1327512.93447   1034765.14847  20157984.3754                   20157981.4144
   2217343.03146   1712008.71544  23779349.4844                   23779347.4224
   1035467.62947    812214.44546  21144138.0314                   21144133.7544
   1927329.40648   1491031.39546  20820304.7894                   20820300.6174
    593858.87947    463583.26643  24581809.0554                   24581810.7584
    665965.91447    519922.81643  24772213.2894                   24772217.5354
 11  8  1 17 37  0.0000000  0 11G03G06G07G08G10G13G16G19G23G28G11
   1808878.43047   1404140.63745  21349047.6564                   21349045.2344
   2038879.91847   1577736.00844  23121964.3594                   23121962.8914
    651873.58247    518495.70746  22023409.0634                   22023405.9574
    507650.08646    403142.17244  23967410.6334                   23967409.7814
   1521977.43447   1182201.99644  24081634.7894                   24081633.9884
   1305446.80948   1017570.73847  20153785.5314                   20153781.9224
   2279905.64846   1760758.76244  23791255.0784                   23791252.2154
    984528.89148    772521.91846  21134444.8984                   21134440.3914
   1963983.70748   1519593.13346  20827279.8754                   20827275.7704
    494113.04746    385859.38743  24562827.8284                   24562828.4804
    561410.59046    438451.34843  24752316.0474                   24752320.1524
 11  8  1 17 37 30.0000000  0 11G03G06G07G08G10G13G16G19G23G28G11
   1832578.18448   1422607.96945  21353557.4534                   21353555.1094
   2082156.69147   1611458.12544  23130199.5944                   23130197.9774
    568283.48047    453360.57846  22007502.1484                   22007499.5124
    409795.98447    326892.28144  23948790.0004                   23948788.9734
   1518814.80947   1179737.53943  24081034.0164                   24081032.1214
   1283895.07447   1000777.15247  20149683.8674                   20149681.1524
   2342375.20747   1809436.28544  23803141.8134                   23803139.7074
    934108.87947    733233.60946  21124850.3444                   21124846.1094
   2001057.05947   1548481.39846  20834334.7974                   20834329.8134
    394504.08646    308242.15243  24543872.5634                   24543873.8324
    456651.17246    356820.92243  24732380.9844                   24732385.4884
 11  8  1 17 38  0.0000000  0 11G03G06G07G08G10G13G16G19G23G28G11
   1856762.74248   1441453.07445  21358159.5784                   21358157.7704
   2125763.17247   1645437.15644  23138497.4924                   23138496.1134
    484678.74247    388214.04346  21991592.8754                   21991589.8874
    311811.69547    250540.91044  23930144.1094                   23930142.5904
   1515993.89847   1177539.37543  24080497.0944                   24080495.9614
   1262863.56647    984388.93446  20145682.2504                   20145678.9654
   2404756.07447   1858044.66044  23815012.8754                   23815009.8164
    884214.48848    694354.87146  21115355.3524                   21115351.0704
   2038552.83247   1577698.83646  20841469.6484                   20841464.8204
    295037.80146    230736.07043  24524944.2584                   24524945.1054
    351695.27046    275037.30943  24712409.2034                   24712412.6804
 11  8  1 17 38 30.0000000  0 11G03G06G07G08G10G13G16G19G23G28G11
   1881437.59048   1460680.22745  21362855.2424                   21362852.6844
   2169704.78547   1679677.32044  23146859.0864                   23146858.0744
    401068.17247    323062.96546  21975682.0634                   21975679.4694
    213705.22747    174094.39544  23911475.0704                   23911473.5434
   1513520.46947   1175611.92643  24080025.9384                   24080024.8164
   1242360.37547    968412.39547  20141780.6254                   20141777.3834
   2467054.44146   1906588.76243  23826868.3674                   23826864.3524
    834854.47747    655892.52746  21105962.6804                   21105958.3914
   2076477.82848   1607250.72346  20848687.0554                   20848682.6484
    195722.33646    153347.58643  24506045.3284                   24506047.1884
    246553.28946    193108.69543  24692400.6334                   24692404.2624
 11  8  1 17 39  0.0000000  0 11G03G06G07G08G10G13G16G19G23G28G11
   1906604.35548   1480290.68845  21367644.2114                   21367642.0704
   2213982.96947   1714179.75844  23155285.4534                   23155283.8714
    317456.06347    257910.68446  21959771.1174                   21959768.6524
    115480.35247     97555.58644  23892783.5164                   23892782.3204
   1511395.99247   1173956.43043  24079622.4534                   24079621.3324
   1222389.45347    952850.60547  20137980.0314                   20137977.1804
   2529272.30146   1955070.14844  23838707.8364                   23838705.2974
    786033.49248    617850.21546  21096672.1564                   21096667.7734
   2114833.59448   1637138.28146  20855985.6724                   20855981.2664
     96561.75446     76079.72343  24487175.8674                   24487176.9614
    141231.25845    111039.80142  24672358.6644                   24672361.3014
 11  8  1 17 39 30.0000000  0 11G03G06G07G08G10G13G16G19G23G28G11
   1932263.71148   1500284.97745  21372526.8834                   21372524.3364
   2258598.30547   1748944.90645  23163775.9844                   23163774.5904
    233846.11348    192760.08646  21943861.0004                   21943858.1334
     17140.07447     20926.86744  23874069.7584                   23874068.5234
   1509621.50046   1172573.64143  24079283.7274                   24079283.8834
   1202953.94947    937706.03946  20134281.6254                   20134278.5904
   2591411.30146   2003490.06644  23850532.5704                   23850530.3134
    737755.59048    580231.09046  21087485.0784                   21087480.4064
   2153620.90648   1667362.09846  20863366.6484                   20863362.5234
     -2441.08246     -1065.21943  24468336.7814                   24468337.2304
     35734.15245     28834.46542  24652282.0634                   24652286.0004
 11  8  1 17 40  0.0000000  0 11G03G06G07G08G10G13G16G19G23G28G11
   1958419.31648   1520665.95745  21377504.4144                   21377501.6094
   2303553.59847   1783974.97744  23172329.8674                   23172328.5704
    150244.80948    127616.21546  21927951.9384                   21927949.3554
    -81309.90647    -55787.35244  23855335.1174                   23855333.7894
   1508200.26646   1171466.13343  24079013.3364                   24079013.2114
   1184059.66847    922983.20346  20130685.9144                   20130683.1454
   2653475.06646   2051851.39144  23862342.4774                   23862341.4384
    690027.18047    543040.13346  21078402.9844                   21078398.1604
   2192843.65648   1697925.23046  20870830.7034                   20870826.3594
   -101280.07846    -78082.51643  24449527.2584                   24449528.5434
    -69930.19545    -53501.10542  24632175.4454                   24632178.2814
 11  8  1 17 40 30.0000000  0 11G03G06G07G08G10G13G16G19G23G28G11
   1985072.78948   1541434.89845  21382575.8834                   21382574.0634
   2348850.31347   1819271.07044  23180949.1484                   23180948.0784
     66656.43448     62482.43046  21912045.4924                   21912042.8524
   -179866.16447   -132584.40244  23836580.8674                   23836579.4104
   1507133.39846   1170634.71544  24078810.4384                   24078810.8554
   1165710.35247    908685.01646  20127194.5084                   20127191.3524
   2715465.75446   2100155.75043  23874138.9534                   23874137.8874
    642852.69548    506280.79746  21069425.8444                   21069421.5904
   2232503.34048   1728828.82446  20878377.7734                   20878373.3954
   -199951.90246   -154969.46943  24430750.2034                   24430752.4064
   -175755.58245   -135962.28942  24612036.9614                   24612039.6884
 11  8  1 17 41  0.0000000  0 11G03G06G07G08G10G13G16G19G23G28G11
   2012222.41848   1562590.43445  21387742.6804                   21387740.6374
   2394486.82847   1854831.94144  23189634.8914                   23189633.2234
    -16917.41848     -2640.03546  21896142.0394                   21896139.3324
   -278527.84847   -209463.58244  23817805.9064                   23817804.8204
   1506420.00046   1170078.75044  24078674.7664                   24078675.5824
   1147907.10248    894812.33646  20123806.3914                   20123803.7464
   2777382.28146   2148402.35543  23885921.3914                   23885920.0434
    596233.69548    469954.32446  21060554.4844                   21060550.4844
   2272598.71948   1760071.92646  20886007.3984                   20886003.1994
   -298455.55946   -231725.47343  24412006.1954                   24412007.1884
   -281739.32446   -218546.86342  24591869.6254                   24591871.8554
 11  8  1 17 41 30.0000000  0 11G03G06G07G08G10G13G16G19G23G28G11
   2039872.63747   1584136.05145  21393004.4534                   21393002.4654
   2440467.17647   1890660.74644  23198384.1954                   23198382.8054
   -100469.12148    -67745.24646  21880242.3834                   21880240.1414
   -377287.64847   -286419.22744  23799012.2504                   23799010.8874
   1506064.78546   1169801.89844  24078607.3594                   24078608.1564
   1130656.92648    881370.61346  20120523.7974                   20120520.8054
   2839230.27046   2196595.49643  23897691.1564                   23897688.9534
    550177.94148    434066.73846  21051790.4064                   21051786.2424
   2313134.75448   1791658.38746  20893721.4384                   20893717.1254
   -396783.94946   -308344.91043  24393294.7194                   24393296.2034
   -387871.95746   -301247.46542  24571672.3834                   24571676.1524
 11  8  1 17 42  0.0000000  0 11G03G06G07G08G10G13G16G19G23G28G11
   2068022.34447   1606070.85245  21398361.0634                   21398358.8524
   2486790.06347   1926756.48044  23207199.1094                   23207198.2114
   -183997.04748   -132831.92646  21864347.7274                   21864345.0904
   -476145.00447   -363450.91044  23780201.0084                   23780199.2814
   1506066.17646   1169802.90244  24078608.2034                   24078607.2464
   1113960.41847    868360.32846  20117346.6174                   20117343.7894
   2901008.67646   2244734.43843  23909447.6414                   23909443.5044
    504687.10248    398619.34846  21043134.0864                   21043129.5744
   2354110.17648   1823587.23046  20901519.0944                   20901514.6524
   -494936.31246   -384827.13343  24374616.3054                   24374617.9104
   -494150.58646   -384061.76242  24551448.0394                   24551451.5554
 11  8  1 17 42 30.0000000  0 11G03G06G07G08G10G13G16G19G23G28G11
   2096670.23047   1628393.86345  21403812.4774                   21403809.9734
   2533453.92247   1963117.86344  23216078.7664                   23216077.8364
   -267499.72348   -197898.93446  21848457.8984                   21848455.4144
   -575098.78147   -440557.70344  23761370.2194                   23761368.7464
   1506422.66846   1170080.60543  24078675.6954                   24078675.2814
   1097818.49248    855782.19146  20114275.2274                   20114272.1524
   2962716.68846   2292818.55143  23921189.7424                   23921185.3404
    459762.78148    363613.40246  21034584.6884                   21034580.7274
   2395523.88348   1855857.60246  20909399.6644                   20909395.1094
   -592911.41046   -461171.30143  24355973.0864                   24355973.7544
   -600572.04746   -466987.37943  24531197.4384                   24531198.8794
 11  8  1 17 43  0.0000000  0 11G03G06G07G08G10G13G16G19G23G28G11
   2125816.39847   1651105.12945  21409358.8834                   21409356.6254
   2580458.31647   1999744.65244  23225024.3204                   23225022.3054
   -350973.61348   -262943.51246  21832573.4844                   21832570.3714
   -674146.41847   -517737.64544  23742522.3364                   23742520.7544
   1507134.62946   1170635.31644  24078811.6724                   24078811.1954
   1082233.96948    843638.38746  20111309.5164                   20111306.5234
   3024355.40246   2340848.67643  23932919.1954                   23932916.0744
    415408.23047    329051.41046  21026144.5394                   21026140.1604
   2437376.17248   1888469.71546  20917363.4924                   20917359.7664
   -690706.89846   -537375.50843  24337363.0944                   24337363.5434
   -707131.10246   -550020.18043  24510919.1414                   24510921.2544
 11  8  1 17 43 30.0000000  0 11G03G06G07G08G10G13G16G19G23G28G11
   2155460.19947   1674204.14845  21414999.5634                   21414998.1174
   2627802.73847   2036636.36744  23234033.6024                   23234031.5904
   -434416.22748   -327963.71946  21816694.5394                   21816691.5824
   -773286.14847   -594989.35944  23723656.1884                   23723655.6414
   1508201.32846   1171466.44143  24079014.0234                   24079014.3164
   1067208.18448    831929.97746  20108449.8984                   20108447.1214
   3085924.89546   2388824.87943  23944634.8134                   23944634.1134
    371626.16848    294935.52746  21017812.8674                   21017808.5904
   2479666.68448   1921423.30546  20925411.3834                   20925407.2034
   -788320.86346   -613438.23843  24318787.3594                   24318788.6644
   -813824.52346   -633157.69943  24490615.4304                   24490618.2344
 11  8  1 17 44  0.0000000  0 11G03G06G07G08G10G13G16G19G23G28G11
   2185601.84847   1697691.10545  21420735.6884                   21420733.8634
   2675487.25447   2073793.09444  23243107.1094                   23243105.0784
   -517824.18448   -392956.91846  21800822.6564                   21800819.6884
   -872514.98447   -672310.48444  23704773.3444                   23704772.3554
   1509623.58646   1172574.64543  24079284.5634                   24079285.4694
   1052744.25048    820659.35946  20105697.8914                   20105694.5004
   3147426.41446   2436748.08644  23956338.6564                   23956337.9144
    328419.57048    261268.05946  21009591.1564                   21009587.0274
   2522396.12148   1954718.91846  20933542.7584                   20933538.7344
   -885750.57047   -689357.41043  24300247.5004                   24300248.4184
   -920647.13346   -716395.92644  24470288.6954                   24470291.5434
 11  8  1 17 44 30.0000000  0 11G03G06G07G08G10G13G16G19G23G28G11
   2216241.17647   1721565.87545  21426566.3284                   21426564.6294
   2723511.48847   2111214.51644  23252245.9454                   23252243.8984
   -601194.35548   -457920.68046  21784958.1024                   21784954.9184
   -971830.89547   -749699.44944  23685874.4454                   23685873.0824
   1511400.57446   1173959.20743  24079622.9924                   24079623.6604
   1038844.06648    809828.03546  20103052.5394                   20103049.6174
   3208860.44146   2484618.72344  23968030.4384                   23968028.0824
    285790.85947    228050.89546  21001478.6884                   21001474.4924
   2565564.38748   1988356.46146  20941757.5784                   20941752.9614
   -982993.91847   -765131.36343  24281742.7114                   24281743.1024
  -1027594.38346   -799731.22343  24449936.9304                   24449939.7584
 11  8  1 17 45  0.0000000  0 11G03G06G07G08G10G13G16G19G23G28G11
   2247376.34447   1745827.00445  21432491.3524                   21432488.8324
   2771872.89846   2148898.69544  23261448.7034                   23261447.4064
   -684525.78148   -522854.24646  21769100.3754                   21769097.6054
  -1071233.51247   -827155.95743  23666958.4844                   23666956.4414
   1513530.60246   1175618.89144  24080029.0704                   24080028.4024
   1025507.45748    799435.85946  20100514.7034                   20100511.6684
   3270225.56646   2532435.65644  23979706.6644                   23979705.9534
    243741.16047    195284.91046  20993477.3054                   20993472.6954
   2609169.40648   2022334.34846  20950054.8834                   20950051.0004
  -1080050.66047   -840759.89144  24263273.5314                   24263274.1914
  -1134663.67646   -883161.64543  24429561.6644                   24429565.0124
 11  8  1 17 45 30.0000000  0 11G03G06G07G08G10G13G16G19G23G28G11
   2279006.00447   1770473.47345  21438510.2974                   21438507.7504
   2820570.42247   2186844.75844  23270715.5164                   23270714.4804
   -767816.57448   -587756.14546  21753250.7194                   21753248.0434
  -1170721.23047   -904678.81643  23648026.4304                   23648024.4024
   1516012.80946   1177553.00444  24080500.8674                   24080500.8954
   1012735.57448    789483.73047  20098084.3754                   20098081.3164
   3331521.70346   2580198.84444  23991371.8914                   23991369.3244
    202272.53547    162971.71946  20985586.0554                   20985581.7154
   2653210.27348   2056651.84846  20958435.9614                   20958431.4654
  -1176919.50046   -916242.00843  24244839.3364                   24244840.6564
  -1241851.37146   -966684.28543  24409164.6254                   24409167.2544
 11  8  1 17 46  0.0000000  0 11G03G06G07G08G10G13G16G19G23G28G11
   2311128.73847   1795504.14845  21444622.4384                   21444620.9144
   2869602.37146   2225051.42644  23280046.0704                   23280044.9494
   -851064.80948   -652624.89846  21737409.2504                   21737406.5824
  -1270293.15246   -982267.28943  23629077.6724                   23629077.1604
   1518845.49646   1179760.22344  24081038.9064                   24081040.7974
   1000529.09847    779972.17646  20095761.6804                   20095758.4064
   3392747.79746   2627907.39844  24003021.8134                   24003021.6024
    161386.18847    131112.23046  20977805.6804                   20977801.8204
   2697685.66048   2091307.93446  20966899.3674                   20966895.3484
  -1273599.68747   -991577.10243  24226441.5634                   24226442.5164
  -1349154.05546  -1050296.53544  24388746.4304                   24388748.0084
 11  8  1 17 46 30.0000000  0 11G03G06G07G08G10G13G16G19G23G28G11
   2343743.50047   1820918.21945  21450829.6174                   21450827.3754
   2918967.87546   2263518.02044  23289439.9144                   23289438.4144
   -934267.71548   -717458.31246  21721576.1024                   21721573.1214
  -1369947.23446  -1059919.79344  23610115.3754                   23610113.4614
   1522027.75546   1182239.76244  24081645.6644                   24081646.5204
    988890.00848    770902.73846  20093546.5394                   20093543.7274
   3453904.19147   2675561.66844  24014660.5234                   24014658.3054
    121084.15648     99708.07046  20970135.9774                   20970132.1414
   2742595.26248   2126302.37146  20975445.3834                   20975441.1604
  -1370089.39847  -1066763.76643  24208079.9224                   24208081.4804
  -1456567.89546  -1133995.44943  24368306.0784                   24368308.0554
 11  8  1 17 47  0.0000000  0 11G03G06G07G08G10G13G16G19G23G28G11
   2376850.75047   1846716.04345  21457129.6024                   21457127.3594
   2968667.02746   2302244.60944  23298897.3364                   23298896.4614
  -1017421.84848   -782253.72746  21705752.0164                   21705749.5634
  -1469681.14846  -1137634.50844  23591135.9454                   23591135.7304
   1525560.05546   1184992.17244  24082317.5704                   24082318.5124
    977820.36748    762277.03146  20091440.3674                   20091437.1564
   3514992.29346   2723162.73844  24026284.6414                   24026283.5204
     81370.16047     68762.11346  20962579.0474                   20962574.6294
   2787939.21948   2161635.27046  20984074.0004                   20984069.8754
  -1466385.83246  -1141799.79343  24189755.2274                   24189756.2704
  -1564087.94546  -1217777.05543  24347843.6644                   24347846.9694
 11  8  1 17 47 30.0000000  0 11G03G06G07G08G10G13G16G19G23G28G11
   2410448.28947   1872895.93045  21463522.8054                   21463521.1054
   3018697.54746   2341229.38744  23308417.5164                   23308417.8364
  -1100525.95348   -847010.16446  21689937.8364                   21689935.5514
  -1569493.85546  -1215410.60244  23572142.7274                   23572141.0704
   1529440.34046   1188015.68443  24083055.6094                   24083056.9534
    967320.40648    754095.22746  20089442.0164                   20089439.2974
   3576010.71146   2770709.49244  24037896.4534                   24037894.6414
     42244.64547     38274.71146  20955133.2974                   20955129.5474
   2833716.00848   2197305.44146  20992785.2894                   20992780.7814
  -1562488.76646  -1216685.03143  24171467.1804                   24171468.6954
  -1671711.49646  -1301639.39843  24327364.9384                   24327366.7424
 11  8  1 17 48  0.0000000  0 11G03G06G07G08G10G13G16G19G23G28G11
   2444532.76648   1899455.25045  21470008.8284                   21470007.1884
   3069055.77046   2380469.55144  23318000.8984                   23318000.0984
  -1183580.72748   -911728.16046  21674133.2974                   21674130.6024
  -1669386.41446  -1293248.87544  23553133.1024                   23553132.5784
   1533665.25446   1191307.73443  24083860.4454                   24083860.4224
    957389.06348    746356.50446  20087552.3444                   20087549.0944
   3636957.05946   2818200.10543  24049493.4224                   24049492.0124
      3707.02047      8245.41046  20947800.2344                   20947796.1334
   2879922.10248   2233310.12946  21001577.7194                   21001573.6134
  -1658399.37146  -1291420.40243  24153216.1644                   24153217.3054
  -1779437.21146  -1385581.19143  24306864.7814                   24306867.0124
 11  8  1 17 48 30.0000000  0 11G03G06G07G08G10G13G16G19G23G28G11
   2479105.73447   1926395.19545  21476587.9064                   21476586.3714
   3119743.41846   2419966.40244  23327646.5864                   23327644.8754
  -1266580.44548   -976403.26646  21658339.2584                   21658336.4024
  -1769354.06646  -1371145.77344  23534110.2194                   23534109.1844
   1538236.60246   1194869.73443  24084730.1174                   24084730.7854
    948030.13347    739063.80946  20085771.4454                   20085768.4144
   3697834.19946   2865636.73043  24061077.5314                   24061076.3284
    -34238.05547    -21322.16846  20940579.4224                   20940575.2464
   2926559.59848   2269650.97346  21010453.0554                   21010448.7504
  -1754113.42246  -1366002.62143  24135002.3914                   24135002.5784
  -1887258.27346  -1469597.34443  24286345.8594                   24286349.8054
 11  8  1 17 49  0.0000000  0 11G03G06G07G08G10G13G16G19G23G28G11
   2514162.86747   1953712.41845  21483259.2814                   21483257.4694
   3170756.09846   2459716.49644  23337354.3204                   23337353.8834
  -1349526.18048  -1041036.28946  21642555.1174                   21642552.6174
  -1869398.77347  -1449102.61744  23515072.9304                   23515071.7074
   1543150.13346   1198698.35543  24085665.2814                   24085665.2704
    939241.30547    732215.35246  20084099.0004                   20084095.8754
   3758638.62146   2913016.71543  24072648.5004                   24072646.3554
    -71592.13348    -50429.22746  20933471.2274                   20933467.1214
   2973624.16048   2306324.60546  21019408.8674                   21019404.9224
  -1849632.75046  -1440433.10943  24116825.4224                   24116826.1294
  -1995174.11346  -1553687.42643  24265810.6484                   24265813.9144
 11  8  1 17 49 30.0000000  0 11G03G06G07G08G10G13G16G19G23G28G11
   2549703.81347   1981406.62545  21490022.4694                   21490020.2464
   3222092.61347   2499718.93444  23347122.7504                   23347122.6334
  -1432415.46148  -1105625.32446  21626781.9844                   21626778.7344
  -1969518.59847  -1527118.02044  23496020.0474                   23496018.9884
   1548405.04346   1202793.00043  24086665.1254                   24086665.1374
    931023.96947    725812.21946  20082535.1804                   20082532.4494
   3819370.69546   2960340.37943  24084206.3594                   24084203.4224
   -108353.05147    -79074.10246  20926475.4144                   20926471.7894
   3021115.21148   2343330.55146  21028446.2344                   21028442.2424
  -1944955.86346  -1514710.70343  24098686.1644                   24098687.1214
  -2103180.89847  -1637848.34443  24245258.5864                   24245260.4414
 11  8  1 17 50  0.0000000  0 11G03G06G07G08G10G13G16G19G23G28G11
   2585725.66447   2009475.59045  21496876.6024                   21496875.1954
   3273750.47746   2539971.76644  23356953.5944                   23356952.2274
  -1515247.46947  -1170169.73846  21611019.3444                   21611016.5704
  -2069713.54747  -1605191.95344  23476953.7274                   23476953.3014
   1553998.81346   1207151.68443  24087729.5164                   24087729.9574
    923378.05547    719854.34046  20081080.1334                   20081076.9304
   3880028.69546   3007606.32043  24095749.3524                   24095746.0434
   -144520.64148   -107256.62546  20919593.3364                   20919589.0864
   3069030.39848   2380667.00846  21037563.9844                   21037560.3874
  -2040083.00446  -1588835.58643  24080584.3914                   24080584.4104
  -2211276.40247  -1722078.44543  24224687.7194                   24224689.7624
 11  8  1 17 50 30.0000000  0 11G03G06G07G08G10G13G16G19G23G28G11
   2622228.21947   2037919.10545  21503823.1094                   21503821.6174
   3325729.44947   2580474.84044  23366845.0474                   23366843.0904
  -1598018.46948  -1234666.60546  21595268.4384                   21595265.8834
  -2169980.84047  -1683322.27344  23457873.5784                   23457872.1724
   1559931.29346   1211774.32843  24088859.1174                   24088858.9694
    916305.18848    714342.99646  20079734.4144                   20079731.4104
   3940613.89547   3054815.52343  24107278.8364                   24107276.2074
   -180092.19547   -134974.70746  20912824.3444                   20912819.6844
   3117370.00848   2418334.18046  21046762.7584                   21046759.1844
  -2135011.67246  -1662805.82443  24062519.5314                   24062519.6374
  -2319455.41047  -1806373.66843  24204101.4454                   24204102.8954
 11  8  1 17 51  0.0000000  0 11G03G06G07G08G10G13G16G19G23G28G11
   2659209.71947   2066735.84045  21510860.5944                   21510859.0004
   3378027.82447   2621226.79344  23376796.4454                   23376795.4024
  -1680726.66848  -1299114.55146  21579529.4694                   21579526.8484
  -2270319.08647  -1761507.87544  23438779.7504                   23438779.1454
   1566200.90246   1216659.69544  24090052.5554                   24090053.1804
    909805.73448    709278.46546  20078497.6094                   20078494.5904
   4001125.73447   3101967.60543  24118793.3054                   24118790.9654
   -215066.45748   -162227.37546  20906168.7274                   20906164.3874
   3166132.54748   2456330.90646  21056042.0474                   21056038.3874
  -2229740.94146  -1736620.73043  24044493.0234                   24044493.4574
  -2427714.44147  -1890731.25443  24183501.1254                   24183502.0704
 11  8  1 17 51 30.0000000  0 11G03G06G07G08G10G13G16G19G23G28G11
   2696668.75847   2095924.66845  21517988.4144                   21517986.9804
   3430644.19947   2662226.52344  23386809.5394                   23386808.3094
  -1763370.23848  -1363512.12146  21563802.8594                   21563800.2504
  -2370726.85947  -1839747.62944  23419672.2034                   23419671.9734
   1572806.46146   1221806.77043  24091308.7814                   24091308.6214
    903880.48048    704661.36346  20077370.1804                   20077366.6994
   4061563.77347   3149062.16043  24130294.4144                   24130291.5434
   -249442.05147   -189013.54346  20899627.5004                   20899623.0234
   3215316.48048   2494655.98846  21065401.3364                   21065397.5744
  -2324269.79746  -1810279.44944  24026504.6724                   24026504.9964
  -2536050.16847  -1975148.57043  24162885.4614                   24162886.0234
 11  8  1 17 52  0.0000000  0 11G03G06G07G08G10G13G16G19G23G28G11
   2734605.63747   2125485.84045  21525207.7274                   21525206.1374
   3483578.55947   2703474.02344  23396882.7194                   23396880.6764
  -1845945.33648  -1427856.34446  21548089.7664                   21548086.5004
  -2471201.34047  -1918039.39144  23400552.6024                   23400551.7304
   1579748.06346   1227215.74643  24092630.1954                   24092630.3164
    898531.82848    700493.56346  20076352.2424                   20076349.1174
   4121929.36347   3196100.26244  24141781.0164                   24141779.7234
   -283216.05547   -215330.94146  20893200.4384                   20893196.0394
   3264922.43448   2533309.91846  21074841.1174                   21074837.4414
  -2418595.59046  -1883779.94143  24008555.3754                   24008556.0514
  -2644457.49647  -2059621.60943  24142255.8754                   24142257.3284
 11  8  1 17 52 30.0000000  0 11G03G06G07G08G10G13G16G19G23G28G11
   2773018.92247   2155418.24645  21532517.4534                   21532515.4384
   3536829.47747   2744968.19544  23407015.8284                   23407014.3094
  -1928449.87947  -1492145.60246  21532389.6334                   21532386.7974
  -2571741.03947  -1996381.97344  23381420.9454                   23381419.4844
   1587024.49246   1232885.59843  24094014.2034                   24094014.8674
    893760.66448    696775.75046  20075444.5234                   20075441.5904
   4182222.57046   3243081.91044  24153255.5084                   24153252.6374
   -316386.99648   -241178.41846  20886888.1484                   20886883.4534
   3314949.18048   2572291.74646  21084361.3054                   21084357.5044
  -2512717.51246  -1957121.55143  23990643.4844                   23990644.8484
  -2752932.77747  -2144147.59043  24121613.7814                   24121615.0354
 11  8  1 17 53  0.0000000  0 11G03G06G07G08G10G13G16G19G23G28G11
   2811903.30947   2185717.74245  21539917.1564                   21539915.5394
   3590391.62147   2786704.89144  23417208.6564                   23417206.8634
  -2010885.47348  -1556381.11346  21516702.3284                   21516699.2504
  -2672348.49647  -2074777.32444  23362275.6174                   23362274.3054
   1594630.62946   1238812.41043  24095462.2974                   24095462.7384
    889563.75048    693505.40246  20074645.4384                   20074642.5474
   4242439.28946   3290003.94943  24164713.8364                   24164711.2464
   -348957.60947   -266558.10246  20880690.3364                   20880685.5864
   3365391.46948   2611597.36746  21093960.0084                   21093956.2274
  -2606638.05146  -2030306.21543  23972770.9844                   23972771.3484
  -2861475.89147  -2228726.41443  24100957.9844                   24100959.0744
 11  8  1 17 53 30.0000000  0 11G03G06G07G08G10G13G16G19G23G28G11
   2851257.44547   2216383.27345  21547405.9844                   21547404.5744
   3644263.78947   2828683.19144  23427459.8674                   23427459.0394
  -2093249.98047  -1620561.23046  21501029.0784                   21501026.2974
  -2773022.08247  -2153224.25444  23343118.8594                   23343117.1604
   1602564.96146   1244994.90243  24096971.7894                   24096972.5474
    885942.12947    690683.34046  20073956.5234                   20073953.2464
   4302579.40646   3336866.29343  24176157.3524                   24176156.3134
   -380926.38347   -291468.82046  20874606.5164                   20874602.1294
   3416248.05148   2651225.81346  21103637.7814                   21103633.9924
  -2700356.37246  -2103333.38743  23954937.6334                   23954937.3954
  -2970083.25047  -2313355.30543  24080290.7664                   24080291.9414
 11  8  1 17 54  0.0000000  0 11G03G06G07G08G10G13G16G19G23G28G11
   2891080.23047   2247413.98445  21554983.9454                   21554982.7584
   3698444.43447   2870901.82444  23437770.8914                   23437768.7894
  -2175540.62148  -1684683.79346  21485369.4774                   21485367.0004
  -2873759.80947  -2231721.15244  23323948.8204                   23323946.8364
   1610826.44946   1251432.35943  24098543.7504                   24098544.5744
    882895.69148    688309.46546  20073377.2424                   20073373.9534
   4362642.99645   3383668.98043  24187586.4694                   24187586.4454
   -412291.83647   -315909.41046  20868637.9304                   20868633.2584
   3467518.30948   2691176.59846  21113394.0944                   21113390.6024
  -2793870.82046  -2176201.60943  23937141.2194                   23937142.3634
  -3078751.20346  -2398031.41043  24059611.4694                   24059613.1374
 11  8  1 17 54 30.0000000  0 11G03G06G07G08G10G13G16G19G23G28G11
   2931366.54347   2278805.89845  21562650.0704                   21562648.8204
   3752928.94947   2913357.25844  23448138.3444                   23448135.8284
  -2257758.78548  -1748749.88346  21469723.7814                   21469721.2854
  -2974563.48447  -2310269.40644  23304765.9924                   23304764.8914
   1619410.35546   1258121.00443  24100178.1254                   24100178.9414
    880421.96548    686381.85946  20072905.9774                   20072903.1214
   4422626.46145   3430409.25443  24199001.9774                   24199001.2274
   -443056.06248   -339881.52046  20862783.8594                   20862779.7934
   3519197.43848   2731445.98846  21123228.2194                   21123225.0204
  -2887184.07046  -2248913.06643  23919385.1954                   23919384.9494
  -3187479.15246  -2482754.29743  24038921.3834                   24038921.8444
 11  8  1 17 55  0.0000000  0 11G03G06G07G08G10G13G16G19G23G28G11
   2972114.55148   2310557.55545  21570404.4924                   21570402.2344
   3807715.15247   2956047.80144  23458563.5554                   23458561.8524
  -2339902.89148  -1812758.25846  21454092.6414                   21454089.8204
  -3075432.67247  -2388868.71944  23285571.5784                   23285570.2974
   1628314.61346   1265059.29743  24101871.9304                   24101872.8984
    878521.01248    684900.57446  20072544.3054                   20072541.3794
   4482529.23446   3477086.60943  24210401.8284                   24210399.8244
   -473218.71548   -363384.86346  20857043.9924                   20857039.6294
   3571283.31348   2772032.31646  21133140.1484                   21133136.4694
  -2980295.84846  -2321467.55543  23901666.6884                   23901666.1644
  -3296264.21145  -2567521.61343  24018219.0784                   24018221.8984
 11  8  1 17 55 30.0000000  0 11G03G06G07G08G10G13G16G19G23G28G11
   3013324.48448   2342669.18045  21578246.5394                   21578244.4384
   3862803.54347   2998973.79744  23469046.2274                   23469045.6054
  -2421968.92648  -1876705.80546  21438475.7274                   21438473.0474
  -3176363.80947  -2467516.30944  23266364.5474                   23266363.7544
   1637539.82046   1272247.67643  24103627.9844                   24103628.1844
    877195.20748    683867.44546  20072292.0704                   20072289.0634
   4542353.01646   3523702.46943  24221786.4304                   24221783.0864
   -502776.21947   -386416.66846  20851419.3524                   20851414.8244
   3623776.68448   2812936.18446  21143129.2504                   21143125.7154
  -3073203.10546  -2393862.68744  23883986.6414                   23883986.9384
  -3405100.93055  -2652329.14152  23997506.9304                   23997510.9534
 11  8  1 17 56  0.0000000  0 11G03G06G07G08G10G13G16G19G23G28G11
   3054993.23847   2375138.34445  21586175.7664                   21586174.3244
   3918190.86347   3042132.69944  23479586.3674                   23479585.8954
  -2503956.37548  -1940592.11746  21422873.9844                   21422871.1914
  -3277356.69947  -2546212.03144  23247146.3284                   23247145.2424
   1647083.07446   1279683.87943  24105444.1884                   24105443.8094
    876443.87148    683281.96546  20072149.0864                   20072146.1684
   4602095.83246   3570255.26243  24233154.2034                   24233152.0634
   -531729.50847   -408977.65246  20845910.2114                   20845905.2034
   3676674.66048   2854155.32046  21153195.7734                   21153191.7774
  -3165906.25446  -2466098.77344  23866345.4534                   23866345.6254
  -3513986.92246  -2737175.10943  23976788.6564                   23976789.9494
 11  8  1 17 56 30.0000000  0 11G03G06G07G08G10G13G16G19G23G28G11
   3097115.92247   2407961.17645  21594191.5474                   21594189.8244
   3973872.22747   3085520.75044  23490182.4384                   23490181.8594
  -2585866.10948  -2004417.87146  21407286.9384                   21407284.5784
  -3378413.32047  -2624957.40644  23227915.8444                   23227913.9384
   1656939.30146   1287363.98443  24107320.2664                   24107320.0124
    876264.06647    683141.82846  20072114.8364                   20072111.8324
   4661754.32446   3616742.33643  24244507.2114                   24244505.9574
   -560080.81248   -431069.56246  20840514.6334                   20840510.1604
   3729972.55148   2895686.08646  21163337.6094                   21163334.0554
  -3258407.89147  -2538177.82444  23848743.4304                   23848743.2854
  -3622921.94546  -2822059.30544  23956058.2424                   23956059.4454
 11  8  1 17 57  0.0000000  0 11G03G06G07G08G10G13G16G19G23G28G11
   3139695.24247   2441139.86345  21602293.8834                   21602291.9884
   4029851.07846   3129140.56344  23500833.9844                   23500833.6174
  -2667691.09048  -2068177.58646  21391716.4844                   21391713.7114
  -3479527.39847  -2703747.55144  23208674.6724                   23208672.5904
   1667112.33646   1295290.92643  24109255.8134                   24109255.7894
    876660.56348    683450.76246  20072190.3594                   20072187.0084
   4721333.23446   3663167.42243  24255845.0944                   24255842.7734
   -587824.06647   -452687.66846  20835235.2114                   20835230.7304
   3783673.83248   2937531.18046  21173556.7584                   21173553.3134
  -3350702.16846  -2610095.29344  23831179.9064                   23831179.5354
  -3731897.37547  -2906975.03544  23935320.8204                   23935322.9694
 11  8  1 17 57 30.0000000  0 11G03G06G07G08G10G13G16G19G23G28G11
   3182728.70347   2474672.43445  21610483.0084                   21610480.7504
   4086124.19546   3172989.67644  23511543.6254                   23511542.2854
  -2749430.78548  -2131870.85246  21376161.9224                   21376158.4774
  -3580698.93447  -2782582.48844  23189422.6024                   23189420.2774
   1677598.74246   1303462.08243  24111251.1644                   24111250.5394
    877632.11748    684207.79346  20072375.3594                   20072371.9924
   4780831.21946   3709529.44943  24267167.0474                   24267162.7114
   -614959.88347   -473832.45346  20830071.7664                   20830066.9804
   3837775.49248   2979688.24646  21183852.1174                   21183848.1994
  -3442789.84447  -2681851.77044  23813655.7814                   23813655.9384
  -3840911.24647  -2991920.70343  23914576.6644                   23914577.9454
 11  8  1 17 58  0.0000000  0 11G03G06G07G08G10G13G16G19G23G28G11
   3226212.81647   2508556.14845  21618757.8674                   21618755.7034
   4142688.28146   3217065.53144  23522307.0704                   23522306.4344
  -2831084.57448  -2195497.16846  21360623.7974                   21360620.6684
  -3681928.19547  -2861462.37944  23170158.8204                   23170156.5784
   1688395.23447   1311874.81643  24113306.4144                   24113305.2704
    879177.66847    685412.09046  20072669.4384                   20072666.4454
   4840245.93046   3755826.56343  24278472.8594                   24278468.5354
   -641488.89147   -494504.39546  20825023.2034                   20825018.5204
   3892274.30548   3022154.78946  21194223.0634                   21194218.7114
  -3534671.90246  -2753448.03944  23796171.6414                   23796170.9844
  -3949961.83647  -3076894.98843  23893824.0164                   23893826.6484
 11  8  1 17 58 30.0000000  0 11G03G06G07G08G10G13G16G19G23G28G11
   3270145.51248   2542789.41445  21627118.1484                   21627116.6644
   4199541.26246   3261366.51244  23533126.5944                   23533124.9104
  -2912650.96948  -2259055.38746  21345101.9774                   21345099.3134
  -3783213.60947  -2940386.06244  23150884.9144                   23150882.7194
   1699499.74647   1320527.60543  24115419.1414                   24115419.1214
    881296.88348    687063.39846  20073072.6094                   20073069.5124
   4899576.99646   3802058.54742  24289763.6884                   24289758.7274
   -667410.67248   -514703.18046  20820090.7734                   20820085.7384
   3947168.05148   3064929.08246  21204669.3754                   21204665.3524
  -3626347.60546  -2824883.53144  23778726.0084                   23778725.2234
  -4059045.73847  -3161895.25843  23873066.1254                   23873067.4774
 11  8  1 17 59  0.0000000  0 11G03G06G07G08G10G13G16G19G23G28G11
   3314526.01648   2577371.60945  21635563.0084                   21635561.9384
   4256682.92247   3305892.45744  23543999.7344                   23543998.2854
  -2994126.29348  -2322542.65246  21329597.4774                   21329595.1524
  -3884552.91447  -3019351.70744  23131600.3594                   23131599.3324
   1710912.12546   1329420.27743  24117590.5864                   24117591.0944
    883991.49648    689163.07846  20073585.5474                   20073582.5514
   4958824.97346   3848225.74643  24301037.6334                   24301035.5474
   -692723.20348   -534427.21946  20815273.8134                   20815269.1604
   4002457.12548   3108011.41446  21215190.2034                   21215186.3364
  -3717814.89146  -2896156.58644  23761320.0234                   23761320.3794
  -4168158.04347  -3246917.66843  23852302.5474                   23852303.8014
 11  8  1 17 59 30.0000000  0 11G03G06G07G08G10G13G16G19G23G28G11
   3359351.93848   2612300.87945  21644093.7974                   21644091.6334
   4314110.30146   3350641.00844  23554927.4774                   23554926.6454
  -3075509.75848  -2385958.32846  21314111.3134                   21314108.4614
  -3985945.86747  -3098359.15644  23112306.0164                   23112304.3634
   1722629.64546   1338550.69143  24119820.1414                   24119820.9804
    887260.27048    691710.14846  20074207.2894                   20074204.3324
   5017989.14146   3894327.60243  24312295.8204                   24312295.7464
   -717426.76248   -553676.73446  20810572.6414                   20810568.8444
   4058138.56648   3151399.47346  21225786.2894                   21225782.8284
  -3809074.37146  -2967267.77044  23743954.4844                   23743953.6994
  -4277296.29747  -3331960.27044  23831534.4614                   23831535.9384
 11  8  1 18  0  0.0000000  0 11G03G06G07G08G10G13G16G19G23G28G11
   3404618.03547   2647573.13745  21652707.1094                   21652705.3914
   4371818.53147   3395608.42644  23565909.1564                   23565907.6954
  -3156802.46548  -2449303.28146  21298641.5394                   21298638.7194
  -4087394.12147  -3177409.69544  23093001.4924                   23093000.1254
   1734647.34046   1347915.03543  24122108.1644                   24122107.9184
    891100.37948    694702.42246  20074937.9774                   20074935.1604
   5077066.35246   3940361.72743  24323538.8364                   24323537.2034
   -741523.89148   -572453.70746  20805987.0394                   20805983.1724
   4114207.28948   3195089.32446  21236455.8444                   21236451.8714
  -3900128.23046  -3038218.70343  23726626.3284                   23726626.5004
  -4386460.00447  -3417022.71143  23810761.2584                   23810762.8524
 11  8  1 18  0 30.0000000  0 11G03G06G07G08G10G13G16G19G23G28G11
   3450323.75848   2683187.96145  21661404.8984                   21661403.1604
   4429807.21947   3440794.38744  23576944.3984                   23576943.7664
  -3238000.94148  -2512574.81646  21283189.9774                   21283186.9454
  -4188894.75047  -3256501.05144  23073686.4694                   23073684.6994
   1746964.69946   1357512.88743  24124451.3674                   24124451.9264
    895512.99248    698140.79746  20075778.1094                   20075775.2544
   5136057.25445   3986328.59443  24334763.9454                   24334762.1804
   -765012.49648   -590756.51246  20801517.4694                   20801513.1914
   4170663.17648   3239080.84846  21247199.0004                   21247195.2894
  -3990974.82046  -3109008.14144  23709338.7814                   23709339.1524
  -4495644.49647  -3502101.35943  23789984.0004                   23789983.7504
 11  8  1 18  1  0.0000000  0 11G03G06G07G08G10G13G16G19G23G28G11
   5071881.40247   3946739.32045  21969976.9454                   21969975.1804
   6063488.14147   4713792.46544  23887823.7664                   23887821.8914
  -1743684.78147  -1348172.60246  21567548.9694                   21567545.8244
  -2715027.64147  -2108033.13744  23354153.2584                   23354151.8054
   3334995.25846   2594939.19943  24426644.3364                   24426644.2664
   2475913.14548   1929621.41446  20376518.0944                   20376515.3554
   6770374.80946   5259822.66443  24645765.7664                   24645762.4884
    787524.27347    619012.41446  21096955.1334                   21096951.0664
   5802918.15248   4510967.78146  21557806.7664                   21557803.3364
  -2506194.77346  -1952036.55143  23991883.5084                   23991883.2234
  -3029427.12947  -2359594.18443  24068995.1884                   24068995.5664
 11  8  1 18  1 30.0000000  0 11G03G06G07G08G10G13G16G19G23G28G11
   5118453.66047   3983029.35245  21978839.2734                   21978837.6254
   6122025.26246   4759405.77344  23898962.3594                   23898961.1994
  -1824695.43747  -1411297.80146  21552133.0864                   21552130.2384
  -2816636.25447  -2187208.64544  23334818.6884                   23334816.9384
   3347899.93846   2604994.70743  24429098.8754                   24429100.1564
   2481463.37548   1933946.24646  20377574.5784                   20377571.5824
   6829185.04746   5305648.80543  24656955.3754                   24656953.5664
    765247.44547    601653.85246  21092716.3674                   21092712.1254
   5860136.39548   4555553.35546  21568695.0554                   21568691.2274
  -2596631.37546  -2022506.55144  23974673.2894                   23974673.3444
  -3138649.52046  -2444702.38742  24048210.2344                   24048210.1294
 11  8  1 18  2  0.0000000  0 11G03G06G07G08G10G13G16G19G23G28G11
   5165454.69147   4019653.47345  21987783.8134                   21987782.0784
   6180832.53146   4805229.54344  23910154.0164                   23910152.8054
  -1905610.59447  -1474348.55546  21536735.0394                   21536732.5394
  -2918298.48847  -2266425.93745  23315472.7034                   23315470.8164
   3361093.93446   2615275.61343  24431610.3204                   24431611.3164
   2487580.87948   1938713.10546  20378738.6414                   20378735.6334
   6887903.26645   5351403.10943  24668129.8754                   24668127.4574
    743575.79348    584766.85246  21088592.0784                   21088588.3324
   5917731.43848   4600432.52346  21579654.9774                   21579651.6054
  -2686863.80946  -2092817.43044  23957502.8674                   23957503.3014
  -3247887.30946  -2529822.56643  24027423.3054                   24027424.2114
 11  8  1 18  2 30.0000000  0 11G03G06G07G08G10G13G16G19G23G28G11
   5212883.57047   4056610.99245  21996808.9534                   21996806.9614
   6239908.89546   4851263.03543  23921394.9304                   23921393.1454
  -1986427.48848  -1537322.73846  21521356.7734                   21521353.7424
  -3020011.73447  -2345682.98844  23296117.5084                   23296115.9344
   3374576.50846   2625781.46943  24434175.5234                   24434176.7274
   2494266.59848   1943922.74646  20380010.6644                   20380007.8364
   6946529.81346   5397086.11343  24679286.4534                   24679284.4184
    722510.76248    568352.54746  21084582.9774                   21084579.6174
   5975702.61748   4645604.79746  21590686.8134                   21590683.1764
  -2776890.54346  -2162968.04744  23940371.8364                   23940371.5514
  -3357135.89846  -2614951.21943  24006634.7114                   24006634.1884
 11  8  1 18  3  0.0000000  0 11G03G06G07G08G10G13G16G19G23G28G11
   5260737.25847   4093899.54345  22005915.4144                   22005913.8484
   6299251.16046   4897503.73444  23932687.2894                   23932685.7814
  -2067145.30947  -1600219.71946  21505996.5164                   21505993.6454
  -3121776.05947  -2424979.82444  23276751.7814                   23276750.3204
   3388344.38346   2636509.59443  24436795.4224                   24436796.0664
   2501518.93048   1949573.88346  20381390.9924                   20381387.9694
   7005063.44546   5442696.66043  24690425.9304                   24690423.5044
    702051.44548    552410.22746  21080690.2974                   21080686.3164
   6034046.78547   4691067.71146  21601789.0004                   21601785.4414
  -2866712.43746  -2232959.05144  23923279.3984                   23923278.9534
  -3466392.95746  -2700086.43743  23985842.9614                   23985842.6414
 11  8  1 18  3 30.0000000  0 11G03G06G07G08G10G13G16G19G23G28G11
   5309012.38347   4131516.50045  22015101.6724                   22015099.7974
   6358856.57446   4943949.48044  23944029.5634                   23944028.4104
  -2147762.96947  -1663038.66446  21490655.3444                   21490652.5314
  -3223590.96947  -2504316.04744  23257377.0394                   23257376.3164
   3402394.80546   2647457.87543  24439470.0474                   24439470.2154
   2509336.91048   1955665.80146  20382878.4774                   20382875.9104
   7063502.80546   5488233.80943  24701545.8444                   24701543.4414
    682197.09847    536939.30146  21076912.1484                   21076908.1844
   6092761.09848   4736819.03946  21612962.4454                   21612958.7544
  -2956329.53946  -2302790.45344  23906224.7814                   23906224.6294
  -3575656.07046  -2785226.36343  23965050.7504                   23965051.9144
 11  8  1 18  4  0.0000000  0 11G03G06G07G08G10G13G16G19G23G28G11
   5357707.25447   4169460.51245  22024367.8594                   22024366.2464
   6418723.14546   4990598.72343  23955422.1884                   23955421.4414
  -2228278.64847  -1725778.13346  21475333.4144                   21475330.8714
  -3325455.14147  -2583690.68444  23237992.7664                   23237991.9144
   3416725.69146   2658624.69943  24442196.2194                   24442196.8404
   2517719.82848   1962197.92646  20384473.6414                   20384470.8594
   7121847.64845   5533697.27743  24712647.8204                   24712645.7344
    662948.00448    521940.00046  21073249.2344                   21073245.3754
   6151843.46947   4782857.16445  21624205.4614                   21624201.4494
  -3045741.66446  -2372462.14143  23889210.8834                   23889210.3834
  -3684922.03945  -2870368.48443  23944257.2664                   23944259.1564
 11  8  1 18  4 30.0000000  0 11G03G06G07G08G10G13G16G19G23G28G11
   5406817.14847   4207727.93445  22033713.6484                   22033711.9144
   6478846.77046   5037448.26644  23966863.8754                   23966862.7544
  -2308692.17648  -1788438.01646  21460031.6254                   21460028.8164
  -3427369.32447  -2663104.27744  23218599.7734                   23218597.9494
   3431332.68446   2670006.66843  24444976.6094                   24444977.4534
   2526665.41448   1969168.50046  20386175.9534                   20386173.0354
   7180095.38346   5579085.06343  24723731.8444                   24723729.8914
    644302.42248    507410.97746  21069701.2664                   21069696.9184
   6211290.06348   4829179.10245  21635517.7814                   21635514.5634
  -3134950.45346  -2441975.39144  23872235.1414                   23872234.3914
  -3794189.53146  -2955511.82043  23923466.2424                   23923466.3284
 11  8  1 18  5  0.0000000  0 11G03G06G07G08G10G13G16G19G23G28G11
   5456340.78147   4246317.77345  22043137.6254                   22043134.7734
   6539226.28546   5084497.22743  23978353.1484                   23978351.7734
  -2389001.04348  -1851016.34446  21444749.3524                   21444746.3954
  -3529331.58647  -2742555.34044  23199196.3364                   23199195.2234
   3446214.90246   2681603.10943  24447808.8444                   24447809.3984
   2536174.03548   1976577.78946  20387985.5394                   20387982.7194
   7238246.53946   5624397.57843  24734797.5634                   24734794.4574
    626261.31348    493352.96946  21066268.1644                   21066263.8364
   6271099.59048   4875783.84046  21646899.1024                   21646895.2584
  -3223954.69146  -2511329.21144  23855297.8674                   23855297.6914
  -3903453.84046  -3040652.69144  23902672.4384                   23902673.3754
 11  8  1 18  5 30.0000000  0 11G03G06G07G08G10G13G16G19G23G28G11
   5506277.02047   4285229.09845  22052640.3054                   22052638.3914
   6599860.56346   5131744.67244  23989891.3204                   23989890.5984
  -2469202.47347  -1913510.94146  21429487.2734                   21429485.0044
  -3631339.93047  -2822042.32844  23179785.2584                   23179783.1294
   3461370.94146   2693412.91843  24450692.6334                   24450693.0354
   2546246.01648   1984426.05946  20389902.2894                   20389899.3634
   7296301.19146   5669634.89543  24745845.8984                   24745842.5514
    608825.75048    479766.82446  21062949.7814                   21062946.3674
   6331271.07847   4922670.64145  21658349.4614                   21658345.8674
  -3312753.41446  -2580522.89144  23838399.9694                   23838399.5274
  -4012711.21546  -3125788.18444  23881882.3914                   23881881.8244
 11  8  1 18  6  0.0000000  0 11G03G06G07G08G10G13G16G19G23G28G11
   5556621.14147   4324458.26245  22062220.0944                   22062218.6994
   6660745.12547   5179187.17644  24001478.1484                   24001477.5004
  -2549296.88747  -1975922.16046  21414245.7424                   21414243.1254
  -3733395.46547  -2901566.07444  23160364.7194                   23160362.5554
   3476796.33646   2705432.59043  24453628.0084                   24453629.4144
   2556878.62948   1992711.20346  20391925.5864                   20391922.6684
   7354256.90246   5714795.14843  24756873.4614                   24756872.4184
    591993.25848    466650.59446  21059747.1564                   21059742.8054
   6391799.93447   4969835.88745  21669867.4844                   21669864.4614
  -3401348.42246  -2649557.84844  23821540.6884                   23821539.6334
  -4121960.60546  -3210917.47744  23861092.8834                   23861092.3054
 11  8  1 18  6 30.0000000  0 11G03G06G07G08G10G13G16G19G23G28G11
   5607369.53547   4364002.40645  22071877.4454                   22071875.0004
   6721876.39146   5226821.88744  24013110.8134                   24013110.4804
  -2629283.99247  -2038249.76246  21399024.6254                   21399021.9024
  -3835498.54747  -2981126.85245  23140934.8054                   23140933.1254
   3492487.37146   2717659.28543  24456614.2114                   24456615.4064
   2568069.60948   2001431.43046  20394054.9224                   20394052.2774
   7412111.88346   5759876.89143  24767883.1254                   24767882.8794
    575762.41048    454003.19146  21056658.5554                   21056654.1684
   6452682.64147   5017276.86345  21681453.5084                   21681450.5434
  -3489741.21947  -2718435.21544  23804720.1174                   23804720.0004
  -4231200.40647  -3296039.24244  23840304.9304                   23840305.7584
 11  8  1 18  7  0.0000000  0 11G03G06G07G08G10G13G16G19G23G28G11
   5658520.68047   4403860.41845  22081611.1254                   22081608.2384
   6783253.14147   5274647.88744  24024790.5864                   24024789.7854
  -2709160.68747  -2100491.32846  21383824.7814                   21383822.0234
  -3937646.84847  -3060722.88344  23121496.3674                   23121495.4304
   3508443.05146   2730092.18443  24459651.0634                   24459651.3164
   2579819.06648   2010586.82846  20396290.3364                   20396288.1644
   7469866.28946   5804880.28143  24778874.2504                   24778873.8954
    560134.15248    441825.33246  21053684.5394                   21053680.2194
   6513917.84447   5064992.51645  21693106.0004                   21693102.3674
  -3577930.62147  -2787154.10544  23787938.1024                   23787937.5274
  -4340426.55146  -3381150.32844  23819519.1094                   23819520.5084
 11  8  1 18  7 30.0000000  0 11G03G06G07G08G10G13G16G19G23G28G11
   5710071.48847   4444029.84845  22091421.1094                   22091418.8714
   6844872.25446   5322662.73044  24036516.5944                   24036515.9304
  -2788926.84848  -2162646.76246  21368645.6564                   21368642.7384
  -4039839.94147  -3140353.82444  23102050.1884                   23102048.5314
   3524659.91446   2742728.64543  24462736.8674                   24462737.5004
   2592125.51248   2020176.23846  20398632.5234                   20398630.0434
   7527518.63746   5849804.19143  24789844.8834                   24789843.2664
    545107.36748    430116.16846  21050824.4534                   21050820.5784
   6575502.24247   5112980.26645  21704825.1724                   21704822.2274
  -3665917.48847  -2855715.14544  23771194.6174                   23771193.4694
  -4449636.45346  -3466248.78944  23798736.7814                   23798738.3634
 11  8  1 18  8  0.0000000  0 11G03G06G07G08G10G13G16G19G23G28G11
   5762018.96947   4484508.36345  22101306.2734                   22101304.6174
   6906731.53147   5370864.75444  24048287.6414                   24048287.0274
  -2868580.16048  -2224714.26246  21353488.0394                   21353485.1454
  -4142076.86347  -3220018.93044  23082595.4304                   23082593.6524
   3541135.87946   2755566.94143  24465871.7424                   24465873.7734
   2604988.23448   2030199.11346  20401080.4304                   20401077.6724
   7585068.52746   5894648.14843  24800795.9144                   24800793.6054
    530681.74648    418875.44146  21048079.6804                   21048075.2504
   6637433.78547   5161238.52745  21716610.6804                   21716607.5434
  -3753701.54746  -2924118.19944  23754489.8674                   23754488.9184
  -4558826.89847  -3551332.13344  23777959.3204                   23777959.0474
 11  8  1 18  8 30.0000000  0 11G03G06G07G08G10G13G16G19G23G28G11
   5814361.45347   4525294.69945  22111266.7114                   22111264.8364
   6968829.06647   5419252.38744  24060104.2734                   24060105.0394
  -2948118.87148  -2286692.46546  21338352.3834                   21338349.7074
  -4244356.57047  -3299717.35944  23063131.2274                   23063130.1724
   3557868.64546   2768605.39143  24469055.3284                   24469057.4304
   2618406.96948   2040655.24646  20403634.1644                   20403631.2624
   7642515.77046   5939412.16843  24811727.7974                   24811724.9654
    516857.35948    408103.18846  21045449.0944                   21045444.6914
   6699710.42647   5209765.69145  21728461.1174                   21728458.4574
  -3841282.40647  -2992362.89144  23737823.5234                   23737822.3874
  -4667994.27047  -3636397.43744  23757184.3364                   23757186.0124
 11  8  1 18  9  0.0000000  0 11G03G06G07G08G10G13G16G19G23G28G11
   5867098.05947   4566388.13744  22121301.9064                   22121299.7034
   7031164.23446   5467825.19544  24071965.9304                   24071966.5314
  -3027539.26248  -2348578.46146  21323239.2504                   21323236.3164
  -4346675.75047  -3379446.55544  23043660.5164                   23043659.5234
   3574857.65646   2781843.48443  24472288.7734                   24472290.5984
   2632381.96948   2051544.83246  20406293.2424                   20406290.4414
   7699861.75446   5984097.31343  24822640.1174                   24822638.8284
    503635.64848    397800.55946  21042932.9774                   21042928.5354
   6762331.48047   5258561.22345  21740377.5864                   21740375.0944
  -3928658.62147  -3060448.13344  23721196.6024                   23721194.8054
  -4777133.48846  -3721440.85243  23736416.2034                   23736416.4344
 11  8  1 18  9 30.0000000  0 11G03G06G07G08G10G13G16G19G23G28G11
   5920225.14147   4607785.82045  22131412.6724                   22131411.1484
   7093733.84846   5516580.68044  24083872.7274                   24083872.5824
  -3106840.60548  -2410371.70746  21308148.5864                   21308145.5234
  -4449034.81647  -3459206.82444  23024182.2894                   23024180.4384
   3592099.62546   2795278.68443  24475569.7274                   24475571.3134
   2646911.52048   2062866.53146  20409058.2584                   20409055.3324
   7757104.63346   6028702.09843  24833534.2664                   24833531.9304
    491015.17248    387966.43046  21040531.4614                   21040527.5314
   6825293.53947   5307622.48045  21752359.3204                   21752355.9144
  -4015831.34447  -3128374.82044  23704607.9774                   23704606.6914
  -4886243.18046  -3806461.22343  23715652.6414                   23715654.0434
 11  8  1 18 10  0.0000000  0 11G03G06G07G08G10G13G16G19G23G28G11
   5973741.78147   4649487.07045  22141595.5394                   22141593.7424
   7156537.34446   5565518.41444  24095824.2974                   24095824.0354
  -3186019.55948  -2472069.57446  21293081.4844                   21293078.6684
  -4551430.82447  -3538995.90644  23004696.8754                   23004695.2704
   3609593.89146   2808910.49243  24478899.1804                   24478901.1454
   2661996.52048   2074621.04346  20411928.7034                   20411926.0864
   7814245.52746   6073227.43043  24844407.6334                   24844406.0904
    478997.62948    378602.09446  21038245.0784                   21038240.4414
   6888596.14147   5356949.09045  21764405.2894                   21764402.3484
  -4102798.05146  -3196140.97344  23688058.6954                   23688057.4344
  -4995318.02346  -3891454.45743  23694896.1254                   23694897.1174
 11  8  1 18 10 30.0000000  0 11G03G06G07G08G10G13G16G19G23G28G11
   6027650.56347   4691493.89145  22151854.6484                   22151852.6054
   7219577.06646   5614640.21143  24107819.7894                   24107820.1804
  -3265069.75448  -2533667.10946  21278038.9224                   21278035.9774
  -4653857.96947  -3618809.21945  22985206.3754                   22985204.5824
   3627342.65246   2822740.59443  24482277.3204                   24482278.6844
   2677640.44948   2086811.09446  20414905.7894                   20414902.7234
   7871289.10546   6117676.92243  24855261.5474                   24855261.5204
    467586.98848    369710.68846  21036073.2974                   21036068.8634
   6952241.48048   5406542.77745  21776516.7424                   21776512.9804
  -4189554.33247  -3263743.14844  23671548.8134                   23671548.3014
  -5104350.07046  -3976414.26644  23674146.9774                   23674148.4264
 11  8  1 18 11  0.0000000  0 11G03G06G07G08G10G13G16G19G23G28G11
   6081945.25447   4733801.43445  22162186.0474                   22162184.9264
   7282847.07446   5663941.43443  24119858.8754                   24119859.9964
  -3343992.86348  -2595165.62546  21263020.2734                   21263017.2814
  -4756318.39147  -3698648.48445  22965708.6644                   22965706.5704
   3645339.80146   2836764.25443  24485701.2734                   24485703.3554
   2693839.12948   2099433.41046  20417988.3284                   20417985.5664
   7928230.43046   6162046.70343  24866097.5704                   24866096.3404
    456778.95748    361288.84846  21034016.2734                   21034012.1764
   7016223.55547   5456398.83245  21788692.8674                   21788688.9534
  -4276104.22347  -3331184.53144  23655079.5314                   23655079.0314
  -5213340.14146  -4061341.35243  23653407.9224                   23653408.6024
 11  8  1 18 11 30.0000000  0 11G03G06G07G08G10G13G16G19G23G28G11
   6136625.23447   4776409.17245  22172591.2734                   22172590.6054
   7346347.40645   5713422.15243  24131943.1804                   24131943.1334
  -3422784.78148  -2656561.90246  21248026.2974                   21248023.7274
  -4858808.61347  -3778510.95745  22946205.0704                   22946202.9264
   3663585.21546   2850981.33643  24489173.7344                   24489175.2034
   2710593.39848   2112488.65646  20421176.5004                   20421173.9144
   7985071.52746   6206338.42243  24876914.6484                   24876912.6214
    446575.58648    353338.16446  21032074.9224                   21032070.4344
   7080542.33247   5506517.27045  21800931.6804                   21800929.2194
  -4362445.23847  -3398463.14544  23638648.9304                   23638647.7934
  -5322282.42647  -4146231.28943  23632676.7734                   23632676.9534
 11  8  1 18 12  0.0000000  0 11G03G06G07G08G10G13G16G19G23G28G11
   6191690.36747   4819317.03544  22183070.1804                   22183067.9844
   7410078.12146   5763082.43043  24144071.6564                   24144070.8244
  -3501441.62148  -2717852.93446  21233058.9064                   21233055.9144
  -4961325.27747  -3858394.02745  22926697.0944                   22926694.9414
   3682078.90646   2865391.90243  24492693.0314                   24492694.7344
   2727904.95748   2125978.15646  20424470.8134                   20424468.1374
   8041814.56646   6250553.66043  24887712.9454                   24887709.4694
    436978.80948    345860.14846  21030248.7274                   21030244.5784
   7145197.70347   5556897.99645  21813235.3204                   21813233.2854
  -4448575.09047  -3465577.21544  23622259.2114                   23622257.9734
  -5431171.22746  -4231079.52043  23611955.4384                   23611955.6414
 11  8  1 18 12 30.0000000  0 11G03G06G07G08G10G13G16G19G23G28G11
   6247139.03547   4862523.75445  22193622.2034                   22193619.9884
   7474037.61346   5812921.02743  24156242.1484                   24156241.5904
  -3579961.02748  -2779036.86746  21218116.7034                   21218113.8984
  -5063866.87947  -3938296.53545  22907183.4694                   22907182.3404
   3700819.30547   2879994.73043  24496259.8364                   24496260.1294
   2745773.32048   2139901.52346  20427870.9304                   20427868.2114
   8098459.57446   6294692.59843  24898492.5164                   24898490.3364
    427988.87148    338854.98846  21028537.9224                   21028533.7304
   7210187.80148   5607539.53545  21825602.8284                   21825599.8094
  -4534493.02347  -3532526.17244  23605909.2974                   23605908.1644
  -5540003.00046  -4315883.27743  23591244.7974                   23591245.6764
 11  8  1 18 13  0.0000000  0 10G03G06G07G08G10G13G19G23G28G11
   6302966.94147   4906025.99645  22204245.4224                   22204243.4344
   7538221.82047   5862934.66043  24168456.7734                   24168455.1604
  -3658342.73848  -2840113.50846  21203201.2344                   21203198.4574
  -5166433.95747  -4018218.89845  22887665.8134                   22887664.2154
   3719802.12946   2894786.44943  24499871.9454                   24499872.7234
   2764195.21548   2154256.22746  20431376.6804                   20431374.1764
    419603.38348    332320.84446  21026942.2664                   21026937.9614
   7275508.47347   5658438.66045  21838033.1174                   21838030.0474
  -4620201.13347  -3599311.58243  23589599.4224                   23589598.2894
  -5648776.28547  -4400641.46943  23570546.8364                   23570546.9804
 11  8  1 18 13 30.0000000  0 10G03G06G07G08G10G13G19G23G28G11
   6359176.38747   4949825.50844  22214941.6414                   22214940.1884
   7602633.24647   5913125.39143  24180713.8444                   24180713.2154
  -3736580.06648  -2901077.64546  21188312.9384                   21188310.5984
  -5269020.28147  -4098156.25845  22868144.5704                   22868142.7034
   3739029.77346   2909768.94543  24503530.3524                   24503532.6644
   2783174.52048   2169045.25446  20434988.3754                   20434985.9144
    411826.62148    326261.02746  21025462.5314                   21025458.0824
   7341162.22348   5709597.35245  21850526.4694                   21850523.1454
  -4705694.42646  -3665929.66844  23573330.0634                   23573329.2034
  -5757483.05947  -4485347.85943  23549860.3594                   23549859.9414
 11  8  1 18 14  0.0000000  0 10G03G06G07G08G10G13G19G23G28G11
   6415775.79347   4993928.93844  22225711.9454                   22225709.8954
   7667280.60947   5963499.96144  24193014.9534                   24193014.4144
  -3814660.30148  -2961919.36746  21173455.1564                   21173452.3754
  -5371613.35547  -4178098.87545  22848621.1954                   22848619.7464
   3758510.78546   2924948.83643  24507237.7814                   24507239.4184
   2802721.16048   2184276.38346  20438708.0314                   20438705.5594
    404668.69548    320683.42646  21024100.1564                   21024096.1094
   7407157.29748   5761021.98445  21863085.1954                   21863082.1374
  -4790962.07847  -3732371.89143  23557104.4694                   23557103.2974
  -5866109.10246  -4569991.32444  23529188.9614                   23529189.4734
 11  8  1 18 14 30.0000000  0 10G03G06G07G08G10G13G19G23G28G11
   6472762.01247   5038333.73445  22236556.1094                   22236555.4224
   7732161.60547   6014056.56344  24205361.9384                   24205360.8014
  -3892582.18448  -3022637.70346  21158627.0084                   21158623.9264
  -5474212.95747  -4258046.57444  22829097.2274                   22829095.7894
   3778242.28946   2940323.93043  24510992.5234                   24510994.2154
   2822833.87548   2199948.59446  20442535.3674                   20442532.5044
    398129.05948    315587.61746  21022855.5394                   21022851.5704
   7473491.42248   5812710.81345  21875708.0554                   21875704.9184
  -4876004.35246  -3798638.50444  23540921.1174                   23540919.7074
  -5974651.33246  -4654569.50443  23508534.1254                   23508534.7344
 11  8  1 18 15  0.0000000  0 10G03G06G07G08G10G13G19G23G28G11
   6530128.92247   5083035.17245  22247473.3754                   22247472.0234
   7797269.95346   6064790.30944  24217751.9924                   24217751.3204
  -3970347.35248  -3083233.92246  21143828.7504                   21143825.9614
  -5576821.29747  -4338001.09044  22809571.3984                   22809569.9024
   3798218.29746   2955889.56643  24514794.0864                   24514795.0044
   2843507.65648   2216058.01246  20446469.1804                   20446467.0474
    392203.03548    310969.94546  21021727.9454                   21021723.6484
   7540158.19548   5864658.85245  21888394.5634                   21888391.0124
  -4960825.30946  -3864732.66444  23524780.3674                   23524779.7854
  -6083110.71946  -4739083.08244  23487895.3134                   23487895.6374
 11  8  1 18 15 30.0000000  0 10G03G06G07G08G10G13G19G23G28G11
   6587869.04747   5128027.46544  22258460.2344                   22258459.3164
   7862598.37946   6115695.52043  24230182.8594                   24230182.5084
  -4047959.46548  -3143710.87946  21129059.4304                   21129056.8204
  -5679442.20347  -4417965.38745  22790043.2734                   22790042.1294
   3818431.04746   2971639.66843  24518640.3594                   24518642.1954
   2864735.94548   2232599.50446  20450509.0004                   20450506.4304
    386884.76648    306825.84846  21020715.7974                   21020711.6954
   7607149.95747   5916860.12945  21901142.4454                   21901139.8834
  -5045430.01246  -3930658.30144  23508679.9304                   23508679.7114
  -6191488.86346  -4823533.41443  23467270.6334                   23467271.2384
 11  8  1 18 16  0.0000000  0 10G03G06G07G08G10G13G19G23G28G11
   6645978.45347   5173307.49244  22269518.3524                   22269516.8404
   7928143.46146   6166769.55543  24242655.3674                   24242656.3484
  -4125417.23448  -3204067.57446  21114320.0394                   21114317.0704
  -5782075.29747  -4497939.19945  22770513.3284                   22770511.1374
   3838877.10246   2987571.55543  24522530.8134                   24522533.0634
   2886516.60548   2249571.42646  20454654.0864                   20454651.3954
    382172.80548    303154.21546  21019819.3984                   21019814.9924
   7674463.39548   5969312.05145  21913952.1484                   21913949.0744
  -5129819.67246  -3996416.37943  23492621.1724                   23492620.7154
  -6299783.69146  -4907918.79343  23446663.0944                   23446663.0664
 11  8  1 18 16 30.0000000  0 10G03G06G07G08G10G13G19G23G28G11
   6704450.25847   5218869.92645  22280645.1174                   22280644.6254
   7993898.73046   6218007.27343  24255168.3914                   24255169.4804
  -4202723.27748  -3264306.03946  21099608.7424                   21099606.0354
  -5884723.82047  -4577925.02345  22750979.9384                   22750978.1254
   3859549.91846   3003680.12543  24526465.9924                   24526466.4384
   2908844.13748   2266969.48046  20458902.5474                   20458900.1844
    378062.10548    299951.08246  21019036.8444                   21019033.0234
   7742091.51248   6022009.18445  21926821.2974                   21926818.5864
  -5213998.50846  -4062010.17644  23476602.9614                   23476602.2074
  -6407996.06647  -4992239.96944  23426071.8914                   23426070.3594
 11  8  1 18 17  0.0000000  0 10G03G06G07G08G10G13G19G23G28G11
   6763282.73847   5264713.39544  22291840.4844                   22291839.5514
   8059862.93845   6269407.87943  24267720.8204                   24267720.6524
  -4279874.76248  -3324424.06646  21084927.6024                   21084924.9024
  -5987385.39147  -4657921.01245  22731443.8914                   22731442.7384
   3880447.85246   3019964.11343  24530442.4304                   24530443.5514
   2931718.21548   2284793.40246  20463255.5004                   20463252.7304
    374553.15648    297216.85946  21018369.3054                   21018364.8524
   7810033.18447   6074950.64545  21939750.2424                   21939747.3554
  -5297965.44147  -4127438.84044  23460624.7424                   23460623.6374
  -6516121.91447  -5076493.75444  23405495.9304                   23405494.9104
 11  8  1 18 17 30.0000000  0 10G03G06G07G08G10G13G19G23G28G11
   6822472.09447   5310834.93844  22303103.8204                   22303102.9264
   8126032.12946   6320968.12543  24280313.0784                   24280312.7344
  -4356871.37548  -3384421.41446  21070275.6564                   21070272.4184
  -6090060.37147  -4737927.45745  22711905.5164                   22711903.6174
   3901566.73446   3036420.23843  24534461.3914                   24534462.8404
   2955136.26648   2303041.20346  20467711.5314                   20467709.1334
    371643.17247    294949.35946  21017815.2734                   21017811.5744
   7878283.96947   6128132.96945  21952737.5234                   21952734.5664
  -5381722.58647  -4192704.04744  23444685.5634                   23444684.8984
  -6624159.40646  -5160678.68744  23384936.2424                   23384935.5554
 11  8  1 18 18  0.0000000  0 10G03G06G07G08G10G13G19G23G28G11
   6882016.45347   5357233.11745  22314434.7194                   22314433.4574
   8192404.82046   6372687.01643  24292944.0234                   24292942.7424
  -4433710.55948  -3444296.09446  21055653.9384                   21055650.6884
  -6192746.91047  -4817942.90245  22692365.0704                   22692363.3204
   3922904.85546   3053047.22343  24538522.1804                   24538523.0824
   2979097.42648   2321712.21146  20472271.3984                   20472268.9344
    369332.03148    293148.48446  21017375.6174                   21017371.1174
   7946842.32847   6181554.94145  21965784.3984                   21965781.4384
  -5465269.28947  -4257805.26644  23428787.7974                   23428786.3634
  -6732104.57847  -5244791.63744  23364394.9304                   23364394.6094
 11  8  1 18 18 30.0000000  0 10G03G06G07G08G10G13G19G23G28G11
   6941911.17647   5403904.32044  22325832.2734                   22325831.1954
   8258976.66046   6424561.11743  24305611.4064                   24305610.8324
  -4510392.59848  -3504048.32446  21041061.5234                   21041058.6804
  -6295445.63347  -4897967.84445  22672821.7734                   22672819.8874
   3944457.71546   3069841.58643  24542623.6094                   24542624.4574
   3003598.27748   2340803.75446  20476933.5864                   20476931.1254
    367616.82448    291811.97746  21017049.2504                   21017044.8594
   8015703.62947   6235213.00045  21978887.9614                   21978885.2194
  -5548607.71947  -4322744.18444  23412928.1804                   23412927.4184
  -6839956.52747  -5328831.97744  23343871.2584                   23343871.2154
 11  8  1 18 19  0.0000000  0 10G03G06G07G08G10G13G19G23G28G11
   7002153.87547   5450846.66844  22337295.7274                   22337295.7114
   8325745.87947   6476589.05543  24318317.9924                   24318316.1804
  -4586915.07848  -3563676.21946  21026499.5944                   21026496.6484
  -6398154.85547  -4978000.96945  22653276.5554                   22653275.1294
   3966223.29346   3086801.69943  24546765.0084                   24546766.0984
   3028637.92248   2360315.14546  20481698.6644                   20481696.2774
    366497.31347    290939.63746  21016836.6094                   21016832.1334
   8084865.63748   6289105.36345  21992049.2274                   21992046.4414
  -5631737.43447  -4387520.46944  23397109.5394                   23397108.1524
  -6947711.44947  -5412796.72344  23323366.2344                   23323365.9494
 11  8  1 18 19 30.0000000  0 10G03G06G07G08G10G13G19G23G28G11
   7062742.73447   5498058.73845  22348825.6334                   22348824.5514
   8392711.13347   6528769.71943  24331061.2504                   24331059.4144
  -4663275.46548  -3623177.79746  21011968.7974                   21011965.8674
  -6500872.22747  -5058040.44945  22633730.3754                   22633728.6844
   3988199.98046   3103926.27043  24550947.1254                   24550947.5124
   3054215.69548   2380245.84446  20486566.1564                   20486563.5704
    365973.51648    290531.46946  21016737.1254                   21016732.4224
   8154326.90647   6343230.91045  22005267.6804                   22005264.8714
  -5714657.89547  -4452133.72744  23381330.3754                   23381329.1484
  -7055365.10547  -5496682.55144  23302880.2034                   23302879.6524
 11  8  1 18 20  0.0000000  0 10G03G06G07G08G10G13G19G23G28G11
   7123674.58647   5545538.09444  22360421.1954                   22360420.0164
   8459869.40247   6581100.85243  24343841.0944                   24343838.8054
  -4739472.17248  -3682551.85246  20997468.9224                   20997465.7774
  -6603596.81647  -5138085.55145  22614182.6484                   22614180.7734
   4010384.60546   3121212.89543  24555167.7734                   24555170.1374
   3080329.87148   2400594.52746  20491535.3524                   20491532.9774
    366043.77348    290586.22346  21016749.5234                   21016745.8054
   8224084.19548   6397587.12945  22018542.0554                   22018539.4024
  -5797369.93047  -4516584.55144  23365590.0474                   23365589.8404
  -7162914.67647  -5580487.28144  23282414.9304                   23282413.3524
 11  8  1 18 20 30.0000000  0 10G03G06G07G08G10G13G19G23G28G11
   7184946.43447   5593282.36344  22372080.7894                   22372079.1454
   8527217.90646   6633580.25443  24356655.9384                   24356654.8674
  -4815504.34448  -3741797.67646  20983000.2814                   20982997.6604
  -6706328.59047  -5218136.24245  22594633.3444                   22594631.2194
   4032774.08646   3138659.12143  24559429.8914                   24559430.5784
   3106978.00048   2421359.26646  20496606.2114                   20496603.9844
    366706.55947    291102.68046  21016876.0314                   21016871.6294
   8294134.30147   6452171.51645  22031872.2974                   22031869.3554
  -5879874.35547  -4580873.62544  23349890.4064                   23349889.0354
  -7270358.04747  -5664209.24644  23261967.7034                   23261968.5274
 11  8  1 18 21  0.0000000  0 10G03G06G07G08G10G13G19G23G28G11
   7246556.74647   5641290.37544  22383804.4614                   22383803.4574
   8594755.69546   6686207.15643  24369508.4924                   24369507.4414
  -4891368.17248  -3800912.33646  20968564.2344                   20968561.3874
  -6809064.01647  -5298189.79345  22575083.0634                   22575081.3404
   4055367.28146   3156264.09043  24563729.1564                   24563730.3484
   3134160.23848   2442540.21146  20501779.0784                   20501776.4064
    367962.35548    292081.20746  21017115.0234                   21017111.0594
   8364476.13348   6506983.20745  22045258.0554                   22045255.7234
  -5962169.82847  -4644999.86344  23334230.1484                   23334228.8754
  -7377690.25446  -5747844.59444  23241542.6094                   23241543.7974
 11  8  1 18 21 30.0000000  0 10G03G06G07G08G10G13G19G23G28G11
   7308498.75447   5689556.85544  22395591.6094                   22395590.4654
   8662476.34846   6738976.42243  24382395.6254                   24382393.9264
  -4967066.19948  -3859897.79746  20954159.4774                   20954156.1334
  -6911806.57847  -5378248.89545  22555531.7034                   22555530.2194
   4078157.50846   3174022.62143  24568065.7344                   24568066.8484
   3161870.93048   2464132.92646  20507052.3914                   20507049.7814
    369805.87547    293517.69146  21017465.7034                   21017461.6994
   8435103.19947   6562017.16845  22058697.7424                   22058694.4534
  -6044260.59847  -4708966.60244  23318608.7344                   23318607.7974
  -7484912.13747  -5831393.92643  23221139.7974                   23221139.1524
 11  8  1 18 22  0.0000000  0 10G03G06G07G08G10G13G19G23G28G11
   7370772.98447   5738082.19144  22407442.4064                   22407440.8594
   8730380.62546   6791888.83643  24395316.9694                   24395315.7934
  -5042593.55148  -3918750.25046  20939786.9924                   20939783.9774
  -7014551.98847  -5458310.20745  22535980.2344                   22535978.2974
   4101144.97346   3191934.80943  24572440.0864                   24572441.3984
   3190111.78547   2486138.75446  20512425.9454                   20512423.9574
    372239.06648    295413.66846  21017928.7814                   21017924.5124
   8506015.47748   6617273.38345  22072192.0864                   22072189.2544
  -6126144.24647  -4772771.94944  23303026.7274                   23303025.1994
  -7592017.56247  -5914852.52344  23200758.1954                   23200757.3484
 11  8  1 18 22 30.0000000  0 10G03G06G07G08G10G13G19G23G28G11
   7433374.29347   5786862.41844  22419355.6724                   22419353.7544
   8798463.74246   6844940.56343  24408272.7584                   24408272.5944
  -5117950.93048  -3977470.28146  20925446.6334                   20925443.9534
  -7117300.82047  -5538374.19545  22516427.8054                   22516425.4344
   4124325.09046   3209997.13343  24576852.0634                   24576852.2234
   3218878.43848   2508554.29346  20517900.7344                   20517898.1604
    375258.63748    297766.56646  21018503.5784                   21018499.1954
   8577208.43447   6672748.28545  22085739.6884                   22085737.0004
  -6207823.07447  -4836417.70344  23287483.7194                   23287482.2734
  -7699005.60246  -5998219.65644  23180398.7114                   23180397.9534
 11  8  1 18 23  0.0000000  0 10G03G06G07G08G10G13G19G23G28G11
   7496296.73847   5835892.87944  22431329.5314                   22431327.8714
   8866720.31346   6898127.44943  24421261.8524                   24421261.2974
  -5193139.54748  -4036058.80546  20911139.0784                   20911136.3874
  -7220055.06247  -5618442.42645  22496874.1254                   22496872.2584
   4147691.89546   3228204.96143  24581298.0634                   24581299.4844
   3248166.11348   2531375.82446  20523473.8284                   20523471.2344
    378860.03948    300572.84846  21019189.0704                   21019184.0744
   8648675.74247   6728436.97745  22099339.9454                   22099336.5274
  -6289300.91447  -4899906.82044  23271978.8674                   23271977.4414
  -7805876.52747  -6081495.56244  23160062.1954                   23160061.6454
 11  8  1 18 23 30.0000000  0 10G03G06G07G08G10G13G19G23G28G11
   7559538.88747   5885172.44144  22443362.8754                   22443362.5164
   8935149.26646   6951448.60943  24434283.2344                   24434282.8674
  -5268155.89548  -4094513.08646  20896863.9304                   20896860.8754
  -7322811.77347  -5698512.53945  22477320.8444                   22477318.4804
   4171244.49246   3246557.54743  24585779.3364                   24585781.5904
   3277974.68848   2554603.26246  20529146.5314                   20529143.5434
    383043.38348    303832.58246  21019984.8054                   21019980.6564
   8720416.26647   6784338.56645  22112991.5004                   22112988.7544
  -6370576.39847  -4963238.28944  23256512.2504                   23256510.9144
  -7912625.56246  -6164676.45743  23139748.1094                   23139746.6564
 11  8  1 18 24  0.0000000  0 10G03G06G07G08G10G13G19G23G28G11
   7623098.40247   5934699.30544  22455458.5554                   22455457.9574
   9003748.30146   7004902.35943  24447337.7734                   24447336.5274
  -5342998.12548  -4152831.70346  20882621.8524                   20882618.8874
  -7425570.04347  -5778583.88745  22457766.2344                   22457764.4264
   4194980.07046   3265052.64543  24590296.2814                   24590298.7894
   3308302.56648   2578235.34046  20534917.2894                   20534914.9884
    387807.94948    307545.22746  21020891.6024                   21020887.0744
   8792427.65247   6840451.20345  22126694.8984                   22126692.0984
  -6451649.88347  -5026412.34044  23241084.3444                   23241084.0434
  -8019249.54346  -6247759.89543  23119457.5944                   23119456.4574
 11  8  1 18 24 30.0000000  0 10G03G06G07G08G10G13G19G23G28G11
   7686969.40647   5984468.87544  22467612.5554                   22467610.7734
   9072512.18046   7058484.56643  24460422.4774                   24460422.5864
  -5417667.87548  -4211015.91046  20868412.3284                   20868409.4104
  -7528331.85247  -5858657.98845  22438211.1414                   22438209.2464
   4218892.82046   3283685.85543  24594847.4924                   24594849.3244
   3339144.86748   2602268.27746  20540786.3054                   20540784.1994
    393149.22348    311707.26246  21021907.9614                   21021903.6024
   8864703.91047   6896770.23845  22140448.9224                   22140446.2974
  -6532524.81247  -5089431.65244  23225694.6174                   23225693.3554
  -8125748.10946  -6330745.61744  23099191.7194                   23099191.1844
 11  8  1 18 25  0.0000000  0 10G03G06G07G08G10G13G19G23G28G11
   7751151.50447   6034480.84445  22479826.8754                   22479825.1454
   9141440.85246   7112195.14544  24473539.7114                   24473539.5984
  -5492160.84448  -4269062.36746  20854236.9924                   20854233.7304
  -7631092.50047  -5938731.18745  22418656.4614                   22418654.6214
   4242982.27346   3302456.72343  24599431.3284                   24599433.2154
   3370502.02348   2626702.38746  20546753.6954                   20546751.0984
    399068.18848    316319.45746  21023034.4844                   21023029.7814
   8937244.94547   6953295.59045  22154253.1254                   22154250.4924
  -6613199.26247  -5152294.78144  23210342.8134                   23210341.0474
  -8232115.83247  -6413629.40244  23078950.6564                   23078950.1254
 11  8  1 18 25 30.0000000  0 10G03G06G07G08G10G13G19G23G28G11
   7815641.23847   6084732.54744  22492098.5234                   22492097.0594
   9210531.14546   7166031.71543  24486687.0864                   24486686.4384
  -5566475.52348  -4326969.89846  20840095.2274                   20840092.4344
  -7733851.83647  -6018803.34045  22399102.0634                   22399100.2234
   4267245.56346   3321363.08643  24604048.6414                   24604050.6294
   3402371.94148   2651536.05946  20552818.3594                   20552815.7814
    405563.09848    321380.44146  21024270.4534                   21024265.8914
   9010047.33647   7010024.59045  22168106.4144                   22168104.0084
  -6693674.28147  -5215002.49644  23195028.2664                   23195026.7544
  -8338350.55947  -6496409.54744  23058734.9064                   23058733.9574
 11  8  1 18 26  0.0000000  0 10G03G06G07G08G10G13G19G23G28G11
   7880437.16047   6135222.83244  22504428.7194                   22504426.5314
   9279781.83646   7219993.22743  24499864.6024                   24499864.1884
  -5640609.05948  -4384736.27746  20825988.0864                   20825985.4924
  -7836607.39847  -6098872.58245  22379547.8984                   22379546.1564
   4291680.84846   3340403.43843  24608698.2344                   24608700.3444
   3434753.99248   2676768.79746  20558980.1414                   20558977.9654
    412633.50448    326889.86746  21025615.8754                   21025611.5084
   9083109.24647   7066955.82845  22182010.5394                   22182007.5004
  -6773949.15647  -5277554.25044  23179752.3984                   23179750.7664
  -8444447.60947  -6579082.42644  23038544.7734                   23038544.0394
 11  8  1 18 26 30.0000000  0 10G03G06G07G08G10G13G19G23G28G11
   7945535.45747   6185948.73844  22516817.0474                   22516815.0044
   9349190.28946   7274077.69143  24513073.4774                   24513071.6724
  -5714560.16448  -4442360.50846  20811915.5474                   20811912.9494
  -7939358.19947  -6178938.10245  22359995.3674                   22359993.1484
   4316285.47746   3359575.81643  24613380.2504                   24613382.8054
   3467645.77348   2702398.72346  20565239.4454                   20565236.9734
    420277.73048    332846.42646  21027070.2734                   21027066.0234
   9156427.92247   7124087.12945  22195961.8134                   22195959.1254
  -6854024.46147  -5339950.50444  23164515.0164                   23164512.3714
  -8550404.35247  -6661645.96144  23018381.7344                   23018380.5164
 11  8  1 18 27  0.0000000  0 10G03G06G07G08G10G13G19G23G28G11
   8010930.76247   6236906.08644  22529261.3834                   22529258.8484
   9418751.25846   7328281.04743  24526310.3914                   24526309.6844
  -5788329.94148  -4499843.44146  20797877.8594                   20797875.0594
  -8042106.14147  -6259001.40245  22340442.8364                   22340440.9064
   4341053.80146   3378875.67643  24618094.4694                   24618096.2074
   3501042.45348   2728422.07846  20571594.6254                   20571592.2894
    428491.49648    339246.77746  21028633.8204                   21028629.2424
   9229997.59447   7181414.00445  22209962.3054                   22209960.0434
  -6933903.60247  -5402193.87544  23149313.5394                   23149312.1374
  -8656220.53147  -6744099.98044  22998245.2504                   22998244.5204
 11  8  1 18 27 30.0000000  0 10G03G06G07G08G10G13G19G23G28G11
   9652037.15247   7515690.26644  22841553.1644                   22841550.6454
  11063878.87946   8610198.58643  24839367.0864                   24839367.3204
  -4286495.22348  -3329582.62546  21083667.4694                   21083664.0044
  -6569427.69947  -5111459.73045  22620684.5704                   22620682.4264
   5941400.77046   4625899.15643  24922629.9224                   24922632.2114
   5110359.91848   3982435.66046  20877837.4614                   20877834.9654
   2012691.85248   1573688.63346  21330096.7274                   21330092.1374
  10879231.55947   8466531.24645  22523800.8524                   22523798.2344
  -5438165.71547  -4236683.74244  23433944.0084                   23433942.6804
  -7186470.67247  -5598840.20744  23277929.5164                   23277928.7734
 11  8  1 18 28  0.0000000  0 10G03G06G07G08G10G13G19G23G28G11
   9718015.94547   7567102.24644  22854108.8754                   22854106.1414
  11133735.41846   8664632.21943  24852660.8674                   24852659.3754
  -4359898.89148  -3386780.27046  21069699.1414                   21069696.5124
  -6672167.78147  -5191516.89545  22601133.0164                   22601131.3324
   5966485.64546   4645445.68443  24927403.3204                   24927406.1764
   5144758.70348   4009239.86746  20884383.3364                   20884381.1844
   2022037.83248   1580971.23046  21331875.2894                   21331870.9654
  10953292.36747   8524240.84445  22537894.3984                   22537892.0634
  -5517656.17647  -4298624.28144  23418816.5004                   23418815.7974
  -7291998.71547  -5681069.70744  23257847.7974                   23257848.2934
 11  8  1 18 28 30.0000000  0 10G03G06G07G08G10G13G19G23G28G11
   9784281.86347   7618738.01244  22866718.3834                   22866715.9494
  11203735.30145   8719177.51642  24865981.1484                   24865980.6454
  -4433117.82848  -3443833.98046  21055766.2274                   21055763.0984
  -6774902.17247  -5271569.63745  22581583.4924                   22581581.8134
   5991723.94946   4665111.77744  24932206.6484                   24932209.5704
   5179654.81648   4036431.61746  20891024.0634                   20891021.6414
   2031947.11348   1588692.76646  21333760.9774                   21333756.5234
  11027593.78947   8582137.91045  22552033.8364                   22552032.0784
  -5596953.73047  -4360414.47744  23403727.1724                   23403724.9694
  -7397378.59047  -5763183.77044  23237795.2274                   23237794.5474
 11  8  1 18 29  0.0000000  0 10G03G06G07G08G10G13G19G23G28G11
   9850834.44546   7670597.12544  22879382.9694                   22879380.8914
  11273879.17646   8773835.02342  24879329.6564                   24879328.3284
  -4506147.19148  -3500739.97346  21041868.8444                   21041866.3204
  -6877627.22747  -5351615.10245  22562035.8754                   22562033.8324
   6017115.48446   4684897.24643  24937038.3984                   24937041.1414
   5215048.89848   4064011.38346  20897759.3284                   20897756.8874
   2042420.36748   1596853.74246  21335754.0314                   21335749.8914
  11102135.89147   8640222.51645  22566219.3754                   22566215.8634
  -5676056.21947  -4422052.70744  23388674.3754                   23388672.5554
  -7502604.48046  -5845177.84444  23217770.0634                   23217770.5354
 11  8  1 18 29 30.0000000  0 10G03G06G07G08G10G13G19G23G28G11
   9917668.39547   7722675.49644  22892100.8984                   22892098.3834
  11344162.04746   8828600.84043  24892703.4534                   24892703.0864
  -4578987.38348  -3557498.55546  21028007.8674                   21028005.0314
  -6980343.93047  -5431654.06245  22542489.5084                   22542487.0904
   6042655.74246   4704798.60943  24941898.9224                   24941900.5904
   5250937.15648   4091976.23446  20904588.7034                   20904585.9344
   2053454.62148   1605451.85946  21337853.6094                   21337849.6054
  11176913.56347   8698490.69144  22580448.2664                   22580446.2304
  -5754966.41047  -4483541.06244  23373658.3054                   23373656.9104
  -7607675.80547  -5927051.43444  23197775.8914                   23197775.7734
 11  8  1 18 30  0.0000000  0 10G03G06G07G08G10G13G19G23G28G11
   9984782.07047   7774971.80943  22904872.5474                   22904869.7034
  11414582.16846   8883473.56343  24906104.3054                   24906103.1334
  -4651636.32048  -3614108.10946  21014183.4304                   21014180.7274
  -7083050.16047  -5511684.86345  22522944.8594                   22522942.8714
   6068342.13747   4724813.87543  24946787.2974                   24946788.5234
   5287317.69948   4120324.68046  20911511.6884                   20911509.4494
   2065048.42648   1614486.00046  21340059.9774                   21340055.7154
  11251924.56347   8756940.69545  22594722.5944                   22594720.2734
  -5833684.12147  -4544879.44544  23358678.5864                   23358676.8014
  -7712588.55947  -6008801.50444  23177812.6334                   23177812.0354
 11  8  1 18 30 30.0000000  0 10G03G06G07G08G10G13G19G23G28G11
  10052172.53547   7827483.85243  22917695.7894                   22917694.0084
  11485137.58646   8938451.81343  24919531.0394                   24919530.0474
  -4724091.48048  -3670566.66846  21000395.2274                   21000392.3164
  -7185744.46147  -5591706.36345  22503403.0234                   22503400.8714
   6094172.10846   4744941.02043  24951702.1644                   24951704.1564
   5324188.94148   4149055.48046  20918527.8204                   20918525.4614
   2077200.57448   1623955.19946  21342372.6254                   21342367.7774
  11327166.31347   8815570.45745  22609041.1954                   22609039.4264
  -5912209.40247  -4606067.89144  23343735.6644                   23343733.8324
  -7817339.50847  -6090425.54344  23157878.3834                   23157878.2774
 11  8  1 18 31  0.0000000  0 10G03G06G07G08G10G13G19G23G28G11
  10119838.77046   7880210.77744  22930571.8674                   22930570.2464
  11555827.68846   8993534.98843  24932982.4304                   24932981.8014
  -4796349.62548  -3726871.70346  20986645.1954                   20986642.5554
  -7288423.48847  -5671715.96545  22483863.8364                   22483861.7934
   6120144.88346   4765179.39543  24956643.8204                   24956647.3754
   5361550.89148   4178168.65646  20925637.4224                   20925635.2424
   2089911.00048   1633859.42646  21344790.9534                   21344786.7384
  11402637.87147   8874379.31644  22623402.3984                   22623400.4454
  -5990541.29347  -4667105.64844  23328829.6414                   23328827.8954
  -7921923.63347  -6171919.62144  23137977.4924                   23137976.2504
 11  8  1 18 31 30.0000000  0 10G03G06G07G08G10G13G19G23G28G11
  10187775.13346   7933148.17244  22943499.6644                   22943499.1914
  11626647.07046   9048718.87143  24946458.9694                   24946459.4654
  -4868411.58248  -3783023.86346  20972932.4304                   20972929.3324
  -7391088.56247  -5751714.69545  22464327.2114                   22464325.0824
   6146255.04746   4785524.85243  24961612.9454                   24961615.8754
   5399398.03148   4207659.89846  20932839.7894                   20932837.9734
   2103175.17248   1644195.14846  21347314.7504                   21347310.4614
  11478333.37547   8933362.66844  22637806.8364                   22637805.0784
  -6068683.14847  -4727995.32444  23313960.0164                   23313958.2584
  -8026340.78546  -6253283.54344  23118106.0944                   23118106.7274
 11  8  1 18 32  0.0000000  0 10G03G06G07G08G10G13G19G23G28G11
  10255978.90246   7986293.90243  22956478.3984                   22956477.3874
  11697593.68446   9104001.88343  24959959.0394                   24959959.9534
  -4940275.50048  -3839021.71946  20959257.0084                   20959253.9574
  -7493738.29747  -5831701.46945  22444793.3674                   22444791.2704
   6172499.85246   4805975.21543  24966607.8754                   24966610.1174
   5437728.84048   4237528.02346  20940133.9384                   20940131.8134
   2116991.94948   1654961.45746  21349944.3834                   21349940.1994
  11554250.68847   8992518.86345  22652253.7584                   22652252.4964
  -6146634.99647  -4788736.93444  23299125.9144                   23299123.9614
  -8130587.43047  -6334514.57044  23098269.3984                   23098269.4224
 11  8  1 18 32 30.0000000  0 10G03G06G07G08G10G13G19G23G28G11
  10324448.59046   8039646.86744  22969507.7664                   22969506.9224
  11768665.92646   9159382.77743  24973483.8834                   24973484.8444
  -5011938.47348  -3894862.98846  20945620.1024                   20945617.3324
  -7596370.21947  -5911674.35945  22425263.5314                   22425261.2154
   6198877.51246   4826529.07443  24971627.6414                   24971629.6804
   5476541.88748   4267771.92246  20947520.0554                   20947517.5944
   2131360.05148   1666157.39146  21352678.5084                   21352674.4224
  11630387.48847   9051846.07445  22666741.8754                   22666741.2854
  -6224397.35947  -4849330.89844  23284328.0394                   23284325.9734
  -8234659.86347  -6415609.87144  23078464.7664                   23078464.0394
 11  8  1 18 33  0.0000000  0  9G03G07G08G10G13G19G23G28G11
  10393179.09846   8093203.06644  22982586.6254                   22982586.8484
  -5083400.67248  -3950547.78546  20932021.2504                   20932018.1684
  -7698984.76647  -5991633.71545  22405736.2034                   22405734.3834
   6225383.29746   4847182.80943  24976671.0394                   24976673.6804
   5515833.20748   4298388.50046  20954996.8364                   20954994.9414
   2146276.03548   1677780.23446  21355517.1024                   21355513.1724
  11706738.62547   9111340.32045  22681271.5084                   22681269.4964
  -6301971.99647  -4909778.59044  23269566.1414                   23269563.8714
  -8338556.93446  -6496568.53544  23058693.6094                   23058692.8634
 11  8  1 18 33 30.0000000  0  9G03G07G08G10G13G19G23G28G11
  10462174.35946   8146965.57444  22995716.8524                   22995716.0044
  -5154653.21148  -4006069.23846  20918462.3834                   20918459.5044
  -7801573.57447  -6071573.00445  22386214.0394                   22386212.5554
   6252021.46946   4867939.71543  24981740.0164                   24981741.9264
   5555607.74248   4329381.60946  20962565.9614                   20962563.7664
   2161745.48447   1689834.34846  21358460.8834                   21358457.1174
  11783308.89847   9171005.30145  22695842.7894                   22695841.6454
  -6379352.52747  -4970075.03544  23254840.9064                   23254839.3094
  -8442268.23847  -6577382.48444  23038958.4144                   23038957.2624
 11  8  1 18 34  0.0000000  0  9G03G07G08G10G13G19G23G28G11
  10531444.44147   8200942.20344  23008898.7734                   23008898.0824
  -5225681.43048  -4061415.89146  20904946.2424                   20904943.2114
  -7904122.54347  -6151481.26645  22366700.1954                   22366698.3594
   6278802.24246   4888807.68842  24986836.7974                   24986839.5944
   5595876.34848   4360759.70746  20970228.6414                   20970226.9614
   2177779.35948   1702328.28146  21361512.1414                   21361507.9844
  11860108.09047   9230848.64845  22710457.0634                   22710455.4534
  -6456526.73047  -5030210.68045  23240155.0704                   23240153.6804
  -8545778.02047  -6658039.37144  23019260.7974                   23019259.5594
 11  8  1 18 34 30.0000000  0  8G03G07G08G13G19G23G28G11
  10600986.89847   8255131.09444  23022132.1884                   23022131.5824
  -5296483.16848  -4116586.06246  20891473.0554                   20891469.9924
  -8006630.12147  -6231357.27045  22347193.1094                   22347191.0394
   5636636.81648   4392521.08246  20977985.0864                   20977982.7384
   2194376.10947   1715260.82446  21364670.1884                   21364666.1724
  11937133.66047   9290868.40244  22725114.6254                   22725113.6644
  -6533494.87147  -5090185.78945  23225508.9304                   23225506.6954
  -8649082.64847  -6738536.39544  22999602.5474                   22999601.6134
 11  8  1 18 35  0.0000000  0  8G03G07G08G13G19G23G28G11
  10670798.37147   8309529.62144  23035417.0944                   23035416.3324
  -5367057.25048  -4171578.84846  20878042.9224                   20878040.1414
  -8109095.32847  -6311200.25045  22327694.5164                   22327692.7464
   5677886.29348   4424663.49246  20985834.7194                   20985832.3914
   2211532.83648   1728629.71146  21367935.1334                   21367930.6844
  12014382.09847   9351061.85244  22739814.7274                   22739812.8094
  -6610258.33247  -5150001.39845  23210901.1254                   23210899.5434
  -8752179.87147  -6818871.80544  22979983.4384                   22979983.2114
 11  8  1 18 35 30.0000000  0  8G03G07G08G13G19G23G28G11
  10740881.28947   8364139.64544  23048753.5394                   23048753.4964
  -5437396.84048  -4226388.89146  20864657.8674                   20864655.1684
  -8211511.10947  -6391004.73045  22308206.3364                   22308203.2544
   5719627.89148   4457189.36746  20993777.7664                   20993775.8324
   2229253.15647   1742437.77346  21371307.1804                   21371303.1214
  12091855.73847   9411430.71544  22754557.6024                   22754556.4304
  -6686812.24247  -5209653.71544  23196333.1884                   23196332.0594
  -8855061.39147  -6899039.11744  22960406.1884                   22960405.7344
 11  8  1 18 36  0.0000000  0  8G03G07G08G13G19G23G28G11
  10811231.39547   8418957.87144  23062140.6884                   23062140.2114
  -5507501.13347  -4281015.60546  20851317.4454                   20851314.8204
  -8313877.41047  -6470770.64545  22288726.2034                   22288724.4734
   5761857.98448   4490095.89546  21001814.1414                   21001812.1644
   2247534.27347   1756682.81646  21374785.4694                   21374781.4654
  12169550.40247   9471971.85944  22769343.0394                   22769341.1764
  -6763158.66447  -5269144.35244  23181804.5554                   23181803.1524
  -8957725.15647  -6979036.74244  22940870.3134                   22940868.5594
 11  8  1 18 36 30.0000000  0  8G03G07G08G13G19G23G28G11
  10881837.05147   8473975.23844  23075576.0634                   23075575.1804
  -5577377.28547  -4335464.54346  20838020.5394                   20838017.9734
  -8416201.86747  -6550503.95745  22269254.4064                   22269252.6604
   5804565.40248   4523374.37146  21009940.9924                   21009938.7074
   2266365.13347   1771356.22746  21378368.6804                   21378365.2974
  12247454.25447   9532675.98044  22784167.1724                   22784164.4654
  -6839307.23847  -5328480.80544  23167314.0704                   23167312.4534
  -9060177.44547  -7058869.58244  22921374.1884                   22921372.7034
 11  8  1 18 37  0.0000000  0  8G03G07G08G13G19G23G28G11
  10952689.12547   8529184.58644  23089059.4534                   23089058.1524
  -5647029.49248  -4389738.97746  20824766.4534                   20824763.0594
  -8518489.42647  -6630208.52745  22249789.6564                   22249787.5864
   5847741.41848   4557017.96946  21018156.9774                   21018154.9064
   2285737.68847   1786451.72746  21382055.5554                   21382051.8014
  12325558.39147   9593536.17245  22799030.4304                   22799029.3444
  -6915264.90647  -5387668.52044  23152859.9144                   23152858.1134
  -9162421.08247  -7138539.85544  22901917.3284                   22901916.3284
 11  8  1 18 37 30.0000000  0  8G03G07G08G13G19G23G28G11
  11023778.21147   8584578.63344  23102587.4064                   23102586.1214
  -5716462.99248  -4443842.99646  20811553.5164                   20811550.4694
  -8620744.96547  -6709888.13345  22230330.7274                   22230328.8714
   5891377.23848   4591019.87146  21026460.6414                   21026458.5004
   2305643.21147   1801962.53546  21385843.4614                   21385839.0044
  12403852.98847   9654544.76244  22813929.2584                   22813927.7114
  -6991038.57847  -5446712.88344  23138440.5164                   23138439.2274
  -9264459.77747  -7218050.41844  22882499.2664                   22882498.0824
 11  8  1 18 38  0.0000000  0  8G03G07G08G13G19G23G28G11
  11095100.32847   8640154.28544  23116159.1024                   23116158.3914
  -5785676.65648  -4497775.69946  20798382.7274                   20798379.6294
  -8722967.86347  -6789542.30945  22210878.6884                   22210876.3554
   5935469.40248   4625377.35546  21034851.3594                   21034849.3014
   2326078.70348   1817886.30146  21389732.4224                   21389728.0434
  12482334.19947   9715698.75444  22828864.1804                   22828862.7734
  -7066630.19547  -5505615.35544  23124055.4534                   23124054.2234
  -9366291.41047  -7297399.63744  22863121.8754                   22863120.5434
 11  8  1 18 38 30.0000000  0  9G03G24G07G08G13G19G23G28G11
  11166646.75447   8695904.65243  23129774.3754                   23129774.2854
   4538326.21514                  24391248.547
  -5854674.87148  -4551540.53146  20785252.6094                   20785249.3754
  -8825162.77347  -6869174.69145  22191431.4064                   22191429.2584
   5980009.71548   4660084.05946  21043327.0554                   21043324.6724
   2347036.23048   1834216.86346  21393719.9304                   21393715.8094
  12560993.18447   9776991.27344  22843832.4304                   22843830.5004
  -7142046.19147  -5564381.00444  23109704.2814                   23109703.2774
  -9467918.77747  -7376589.68044  22843782.5704                   22843782.1374
 11  8  1 18 39  0.0000000  0  8G03G07G08G13G19G23G28G11
  11238405.89147   8751820.84043  23143429.7664                   23143426.8594
  -5923464.27348  -4605142.64546  20772162.4224                   20772159.3094
  -8927336.84047  -6948790.82045  22171988.1954                   22171985.9614
   6024986.89848   4695131.16846  21051885.9614                   21051883.7544
   2368505.03548   1850945.80146  21397805.3984                   21397801.0944
  12639818.35947   9838413.27744  22858832.8134                   22858832.0664
  -7217296.24247  -5623017.34044  23095384.9844                   23095382.9924
  -9569347.79747  -7455625.19145  22824481.8674                   22824480.9064
 11  8  1 18 39 30.0000000  0  8G03G07G08G13G19G23G28G11
  11310370.67647   8807897.28943  23157123.7734                   23157122.5204
  -5992046.93748  -4658583.67246  20759111.8054                   20759108.7774
  -9029492.53947  -7028392.63745  22152549.0314                   22152546.6414
   6070394.69548   4730513.83246  21060526.7504                   21060524.7664
   2390479.15647   1868068.49646  21401987.0474                   21401983.1454
  12718802.81647   9899959.42244  22873863.0554                   22873862.0634
  -7292384.93747  -5681527.91044  23081095.7814                   23081094.3204
  -9670579.32447  -7534506.78945  22805217.4454                   22805216.1374
 11  8  1 18 40  0.0000000  0  9G03G24G07G08G13G19G23G28G11
  11382544.97347   8864136.99643  23170857.9144                   23170856.8324
   4613321.01615                  24331593.797
  -6060415.04748  -4711857.51646  20746101.3444                   20746098.4414
  -9131622.00447  -7107974.00445  22133114.1954                   22133112.2734
   6116236.93848   4766235.00446  21069250.3984                   21069248.4694
   2412962.82047   1885588.23046  21406265.7344                   21406261.4304
  12797950.00847   9961632.33644  22888924.2194                   22888922.9734
  -7367306.60947  -5739908.35544  23066838.7584                   23066837.2274
  -9771603.91446  -7613227.14144  22785993.1174                   22785991.9024
 11  8  1 18 40 30.0000000  0  9G03G24G07G08G13G19G23G28G11
  11454932.88747   8920543.09443  23184633.4924                   23184632.1254
   4508672.652 5                  24311678.594
  -6128559.28147  -4764956.91046  20733134.4384                   20733131.3674
  -9233716.43447  -7187528.07845  22113686.5634                   22113684.2664
   6162518.35248   4802298.39846  21078057.4144                   21078055.2384
   2435961.27347   1903509.10946  21410642.1254                   21410637.6214
  12877264.07847  10023435.33244  22904017.2894                   22904015.9844
  -7442054.69547  -5798153.56244  23052614.2814                   23052612.2504
  -9872411.13747  -7691778.14144  22766810.4144                   22766808.5124
 11  8  1 18 41  0.0000000  0  9G03G24G07G08G13G19G23G28G11
  11527533.90247   8977115.27044  23198448.1724                   23198446.0704
   4403957.676 5                  24291752.875
  -6196475.53948  -4817878.65246  20720209.8134                   20720206.9804
  -9335772.07047  -7267051.91845  22094265.8054                   22094263.3524
   6209238.99248   4838704.04346  21086947.9454                   21086945.9964
   2459474.53547   1921831.12146  21415116.5474                   21415112.3714
  12956744.41847  10085367.84444  22919141.8204                   22919141.2344
  -7516627.58647  -5856262.25844  23038423.6564                   23038422.0784
  -9972996.14147  -7770156.00045  22747669.3284                   22747668.5664
 11  8  1 18 41 30.0000000  0  9G03G24G07G08G13G19G23G28G11
  11600345.56347   9033851.64144  23212304.6564                   23212302.0944
   4299179.219 6                  24271812.898
  -6264161.80148  -4870621.18046  20707329.1644                   20707326.7384
  -9437786.75047  -7346543.83245  22074853.0554                   22074851.1524
   6256396.61748   4875450.20346  21095922.1094                   21095919.6054
   2483501.05547   1940553.07846  21419688.7814                   21419684.6524
  13036388.70747  10147428.11344  22934298.3754                   22934296.7464
  -7591025.50847  -5914234.58244  23024266.4694                   23024264.1214
 -10073355.35947  -7848357.89544  22728572.2814                   22728570.6764
 11  8  1 18 42  0.0000000  0  9G03G24G07G08G13G19G23G28G11
  11673371.86747   9090755.18844  23226200.7814                   23226199.6174
   4194346.51646   3159248.57452  24251864.1804                   24251869.8794
  -6331609.53148  -4923177.82846  20694494.6484                   20694491.9414
  -9539752.38747  -7425997.54345  22055449.5164                   22055447.6024
   6303995.17248   4912539.93446  21104979.8134                   21104977.6994
   2508045.10248   1959678.30546  21424359.2894                   21424354.9064
  13116200.40647  10209618.85544  22949485.9614                   22949484.7774
  -7665242.85547  -5972066.23044  23010143.4534                   23010140.3284
 -10173478.85947  -7926376.11345  22709518.9844                   22709517.8484
 11  8  1 18 42 30.0000000  0  9G03G24G07G08G13G19G23G28G11
  11746607.91847   9147822.20744  23240137.7114                   23240136.4804
   4089460.64846   3077519.66042  24231905.3284                   24231910.3914
  -6398818.53948  -4975548.47746  20681705.3594                   20681702.2234
  -9641669.55547  -7505413.47745  22036055.1804                   22036052.8014
   6352030.55548   4949970.05946  21114120.3984                   21114118.6954
   2533102.98447   1979203.91846  21429127.4694                   21429122.7624
  13196174.96147  10271936.47744  22964705.0634                   22964703.7034
  -7739282.02747  -6029758.99644  22996054.0704                   22996052.3204
 -10273365.63747  -8004209.86744  22690510.8364                   22690509.4654
 11  8  1 18 43  0.0000000  0  9G03G24G07G08G13G19G23G28G11
  11820053.93447   9205052.82044  23254114.2424                   23254113.1134
   3984527.26646   2995753.72343  24211937.2664                   24211942.0204
  -6465784.41048  -5027729.65246  20668962.3444                   20668959.3324
  -9743533.63747  -7584788.04745  22016671.0944                   22016669.1024
   6400503.21547   4987740.90646  21123344.5084                   21123342.5634
   2558675.32047   1999130.41446  21433993.4614                   21433989.5434
  13276312.41046  10334381.02744  22979954.1094                   22979953.4224
  -7813140.96547  -6087311.35544  22981998.9694                   22981996.5274
 -10373009.55547  -8081854.39545  22671549.1024                   22671547.5634
 11  8  1 18 43 30.0000000  0  9G03G24G07G08G13G19G23G28G11
  11893709.58247   9262446.77344  23268129.6254                   23268129.0784
   3879551.99246   2913955.10243  24191961.0164                   24191965.0984
  -6532502.20748  -5079717.53946  20656266.1644                   20656263.6954
  -9845339.91047  -7664117.57445  21997298.1954                   21997296.1764
   6449413.24247   5025852.56346  21132652.3284                   21132650.0044
   2584762.67248   2019458.20746  21438958.3914                   21438954.1134
  13356612.26646  10396952.13344  22995235.0704                   22995233.4574
  -7886817.74247  -6144721.78544  22967978.9454                   22967976.6844
 -10472405.16447  -8159305.41045  22652634.9304                   22652632.9574
 11  8  1 18 44  0.0000000  0  9G03G24G07G08G13G19G23G28G11
  11967572.25046   9320002.05943  23282185.4534                   23282184.6764
   3774537.48446   2832125.91443  24171977.3674                   24171981.8874
  -6598970.31248  -5131510.85246  20643617.7974                   20643614.6914
  -9947086.93447  -7743400.94545  21977936.3054                   21977933.8954
   6498758.08647   5064303.05546  21142042.0634                   21142040.0044
   2611362.83248   2040185.60246  21444019.9924                   21444015.6334
  13437071.76646  10459647.60944  23010546.4304                   23010544.3984
  -7960312.91847  -6201990.70744  22953993.3284                   22953990.7814
 -10571549.10547  -8236560.34044  22633767.8834                   22633766.9654
 11  8  1 18 44 30.0000000  0  9G03G24G07G08G13G19G23G28G11
  12041640.97346   9377717.89144  23296280.8284                   23296280.1954
   3669488.58246   2750269.88743  24151987.1724                   24151990.8914
  -6665184.93448  -5183106.64146  20631017.3284                   20631014.5864
 -10048771.10947  -7822635.34445  21958586.8054                   21958584.2194
   6548537.37548   5103092.05946  21151514.7664                   21151513.0554
   2638475.56348   2061312.40246  21449179.3364                   21449174.8874
  13517689.66847  10522466.54344  23025887.7424                   23025885.9654
  -8033625.16047  -6259117.06644  22940042.2504                   22940040.5084
 -10670436.40247  -8313615.25444  22614950.2274                   22614948.9024
 11  8  1 18 45  0.0000000  0  9G03G24G07G08G13G19G23G28G11
  12115910.05546   9435589.82444  23310412.7194                   23310413.0984
   3564405.25846   2668387.09843  24131990.5554                   24131993.8164
  -6731147.18748  -5234505.78146  20618465.2584                   20618462.1604
 -10150393.92647  -7901821.92245  21939248.0634                   21939245.8634
   6598745.51647   5142215.24646  21161068.8594                   21161067.4574
   2666095.73048   2082834.60246  21454435.1804                   21454430.6844
  13598460.65646  10585404.76644  23041257.7114                   23041256.6914
  -8106758.27047  -6316103.84044  22926125.0394                   22926123.1214
 -10769067.07447  -8390470.19544  22596180.6414                   22596179.9884
 11  8  1 18 45 30.0000000  0  9G03G24G07G08G13G19G23G28G11
  12190376.72346   9493615.69543  23324584.7274                   23324583.7624
   3459290.23446   2586479.40643  24111988.5474                   24111990.3714
  -6796854.78948  -5285706.50046  20605961.4774                   20605958.8674
 -10251953.77747  -7980959.44945  21919921.7274                   21919919.7464
   6649379.69548   5181670.39146  21170704.7274                   21170702.4534
   2694220.60547   2104750.09446  21459787.4384                   21459783.2384
  13679381.41447  10648459.65644  23056657.1954                   23056655.1884
  -8179713.24647  -6372951.82044  22912242.7274                   22912240.3134
 -10867438.53547  -8467123.13744  22577461.9774                   22577460.7584
 11  8  1 18 46  0.0000000  0  9G03G24G07G08G13G19G23G28G11
  12265040.00047   9551794.82843  23338792.6804                   23338791.3204
   3354148.31646   2504550.84442  24091979.1884                   24091982.9184
  -6862304.41448  -5336706.21146  20593507.0084                   20593503.8754
 -10353446.92247  -8060044.99245  21900608.1804                   21900606.3594
   6700439.19548   5221456.95746  21180420.7584                   21180418.8594
   2722850.34047   2127058.96546  21465235.2274                   21465230.3594
  13760450.76247  10711630.34444  23072084.5704                   23072082.5274
  -8252488.66847  -6429659.87945  22898393.8674                   22898391.6804
 -10965545.48447  -8543569.99645  22558793.1254                   22558791.3164
 11  8  1 18 46 30.0000000  0  9G03G24G07G08G13G19G23G28G11
  12339897.55547   9610125.37543  23353037.5554                   23353036.2074
   3248983.07846   2422604.09842  24071965.8914                   24071970.2774
  -6927493.39548  -5387502.81646  20581101.7504                   20581098.8714
 -10454871.09047  -8139076.78145  21881307.6644                   21881305.5594
   6751922.32448   5261573.62946  21190217.8524                   21190215.8204
   2751983.51248   2149760.14546  21470778.9844                   21470775.0124
  13841666.97346  10774915.49244  23087538.6254                   23087538.2424
  -8325084.56247  -6486228.03945  22884579.6024                   22884577.0004
 -11063384.19147  -8619807.81644  22540174.1174                   22540172.0044
 11  8  1 18 47  0.0000000  0  9G03G24G07G08G13G19G23G28G11
  12414946.18447   9668604.80544  23367319.2664                   23367317.4264
   3143796.53146   2340640.67642  24051949.8134                   24051954.7234
  -6992420.69948  -5438095.52046  20568746.3284                   20568743.6564
 -10556225.53547  -8218054.24645  21862020.7504                   21862018.1604
   6803825.45748   5302017.58246  21200094.5394                   21200092.6844
   2781616.64548   2172850.89846  21476418.0704                   21476414.0354
  13923026.11347  10838311.96944  23103021.8444                   23103020.6024
  -8397502.52047  -6542657.57045  22870798.7194                   22870796.2424
 -11160952.53147  -8695835.00844  22521607.6954                   22521605.5744
 11  8  1 18 47 30.0000000  0  9G03G24G07G08G13G19G23G28G11
  12490181.62147   9727229.78944  23381635.3284                   23381634.8954
   3038589.86346   2258661.66043  24031930.9924                   24031934.2854
  -7057085.95748  -5488484.00846  20556441.3444                   20556438.2114
 -10657509.64847  -8296976.90645  21842746.8984                   21842744.9304
   6856144.62148   5342785.71546  21210050.6644                   21210049.0824
   2811746.12147   2196328.40246  21482152.0864                   21482147.7774
  14004523.60947  10901816.26644  23118529.8754                   23118528.9184
  -8469745.06647  -6598950.37945  22857050.8054                   22857049.0634
 -11258249.10547  -8771650.40244  22503092.5164                   22503090.6844
 11  8  1 18 48  0.0000000  0  9G03G24G07G08G13G19G23G28G11
  12565600.88747   9785998.02044  23395987.1724                   23395985.7274
   2933365.80546   2176669.12542  24011905.7274                   24011910.6024
  -7121487.50848  -5538667.02046  20544185.7194                   20544182.7194
 -10758722.12547  -8375843.74645  21823486.7734                   21823484.9804
   6908876.71548   5383875.60546  21220085.2584                   21220083.4064
   2842369.44547   2220190.73046  21487979.3914                   21487974.7504
  14086156.53547  10965426.12944  23134064.7664                   23134063.0704
  -8541812.89147  -6655107.07445  22843336.8134                   22843335.1254
 -11355270.80547  -8847251.61744  22484629.5234                   22484627.8794
 11  8  1 18 48 30.0000000  0  9G03G24G07G08G13G19G23G28G11
  12641202.20747   9844908.11744  23410373.2734                   23410372.2384
   2828128.47346   2094666.28943  23991879.9774                   23991884.6724
  -7185622.17648  -5588642.05946  20531981.6334                   20531978.3554
 -10859860.27748  -8454652.66845  21804241.1724                   21804239.2814
   6962020.51648   5425286.31646  21230198.2114                   21230196.1914
   2873485.26647   2244436.83246  21493899.9304                   21493895.7814
  14167923.19547  11029140.14544  23149624.8444                   23149624.3634
  -8613705.79747  -6711127.43745  22829656.3594                   22829653.8244
 -11452013.82047  -8922635.69144  22466220.4774                   22466218.7074
 11  8  1 18 49  0.0000000  0  9G03G24G07G08G13G19G23G28G11
  12716982.68447   9903957.76244  23424793.8284                   23424793.1174
   2722880.87546   2012655.41443  23971851.3984                   23971856.2464
  -7249488.39548  -5638407.94146  20519827.9844                   20519824.7194
 -10960922.48447  -8533402.41445  21785009.2814                   21785007.5594
   7015573.28148   5467015.69545  21240388.8754                   21240386.4344
   2905091.35947   2269064.94146  21499915.0554                   21499910.2774
  14249820.57047  11092956.02344  23165209.5704                   23165209.0274
  -8685424.42247  -6767012.01245  22816007.9534                   22816006.6174
 -11548474.76647  -8997799.99645  22447865.2814                   22447862.6724
 11  8  1 18 49 30.0000000  0  9G03G24G07G08G13G19G23G28G11
  12792939.37146   9963144.73444  23439247.5784                   23439246.9574
   2617625.78146   1930638.72743  23951821.8674                   23951826.6954
  -7313084.39148  -5687963.25446  20507725.9304                   20507723.2774
 -11061906.75848  -8612091.44145  21765792.9064                   21765790.6374
   7069532.11748   5509061.49246  21250657.0164                   21250654.9804
   2937185.30147   2294073.19946  21506022.0474                   21506018.1844
  14331845.66047  11156871.43844  23180818.4454                   23180818.1414
  -8756969.68447  -6822761.51245  22802393.4064                   22802391.8484
 -11644651.22747  -9072742.60544  22429562.8054                   22429560.6214
 11  8  1 18 50  0.0000000  0  9G03G24G07G08G13G19G23G28G11
  12869069.82646  10022466.98443  23453734.5394                   23453734.6134
   2512365.53946   1848618.01243  23931791.2274                   23931795.2934
  -7376408.48048  -5737306.69546  20495676.1094                   20495672.9844
 -11162811.94147  -8690718.82845  21746591.3674                   21746589.0944
   7123894.02048   5551421.36746  21261001.8754                   21260999.9184
   2969764.21947   2319459.36746  21512221.7584                   21512217.2814
  14413995.14147  11220883.74644  23196450.7344                   23196450.7344
  -8828342.87547  -6878376.92245  22788812.0554                   22788810.2664
 -11740540.45347  -9147461.37144  22411314.8054                   22411312.8914
 11  8  1 18 50 30.0000000  0  9G03G24G07G08G13G19G23G28G11
  12945369.57046  10081921.27043  23468254.7274                   23468253.3204
   2407101.71146   1766594.53943  23911760.8134                   23911764.4144
  -7439460.14148  -5786437.85946  20483677.7274                   20483674.7234
 -11263637.45348  -8769284.13345  21727404.5944                   21727402.6454
   7178654.87148   5594092.11746  21271422.4144                   21271420.7034
   3002824.25048   2345220.41846  21518512.5474                   21518508.6604
  14496264.63347  11284989.59444  23212106.2194                   23212105.9614
  -8899546.03547  -6933859.84045  22775262.1564                   22775260.4494
 -11836140.54347  -9221954.86344  22393123.0864                   22393120.5314
 11  8  1 18 51  0.0000000  0  9G03G24G07G08G13G19G23G28G11
  13021838.29746  10141507.22343  23482806.4844                   23482804.5234
   2301839.82447   1684572.61743  23891729.5784                   23891733.4924
  -7502234.71948  -5835353.10546  20471731.9844                   20471728.9574
 -11364378.86748  -8847783.90645  21708234.2504                   21708231.9844
   7233814.85248   5637073.87146  21281919.2664                   21281917.5394
   3036366.00448   2371356.85946  21524895.3524                   21524891.2234
  14578654.14147  11349188.93444  23227784.8364                   23227785.4734
  -8970577.36747  -6989208.86745  22761745.7344                   22761743.3484
 -11931446.04347  -9296218.80945  22374987.3364                   22374984.8914
 11  8  1 18 51 30.0000000  0  9G03G24G07G08G13G19G23G28G11
  13098469.51647  10201219.79743  23497389.1254                   23497387.2384
   2196578.93846   1602551.49243  23871698.4224                   23871703.0554
  -7564734.37948  -5884054.14846  20459838.9304                   20459835.8244
 -11465038.36748  -8926219.85545  21689079.2664                   21689077.1414
   7289367.30547   5680361.44945  21292490.5634                   21292488.4614
   3070382.87148   2397863.48846  21531368.2114                   21531364.5864
  14661156.82446  11413476.47344  23243484.3524                   23243484.7154
  -9041441.20347  -7044427.37945  22748260.2114                   22748258.4494
 -12026457.78547  -9370253.86745  22356907.2664                   22356905.2624
 11  8  1 18 52  0.0000000  0  9G03G24G07G08G13G19G23G28G11
  13175260.43047  10261056.84043  23512001.8444                   23512000.1214
   2091321.93846   1520533.40643  23851668.5394                   23851672.9494
  -7626957.21948  -5932539.47346  20447998.3754                   20447995.4224
 -11565614.17648  -9004590.58245  21669940.3284                   21669938.3134
   7345309.29347   5723952.55546  21303135.9534                   21303134.1294
   3104872.70348   2424738.67246  21537931.3914                   21537927.7154
  14743769.73447  11477849.87544  23259206.2584                   23259205.1024
  -9112138.67247  -7099516.26245  22734806.6884                   22734804.7734
 -12121172.89547  -9444057.75445  22338883.0164                   22338882.3874
 11  8  1 18 52 30.0000000  0  9G03G24G07G08G13G19G23G28G11
  13252206.98847  10321015.20743  23526644.1254                   23526643.5004
   1986070.15247   1438519.39844  23831639.2114                   23831643.7114
  -7688902.89148  -5980808.83246  20436210.1884                   20436207.1884
 -11666105.68748  -9082895.62545  21650817.4144                   21650815.3484
   7401636.63748   5767843.92645  21313854.6094                   21313853.1484
   3139831.35948   2451979.18046  21544584.1644                   21544579.9884
  14826488.38746  11542305.73044  23274946.0234                   23274947.0784
  -9182672.11347  -7154477.33245  22721385.1414                   22721382.5594
 -12215590.20347  -9517629.57844  22320915.4844                   22320914.2934
 11  8  1 18 53  0.0000000  0  9G03G24G07G08G13G19G23G28G11
  13329306.93847  10381093.07043  23541315.8364                   23541315.3954
   1880827.29346   1356512.32043  23811612.3674                   23811616.6524
  -7750568.76248  -6028860.16446  20424475.8914                   20424472.7854
 -11766510.71948  -9161133.28945  21631710.9384                   21631709.0864
   7458347.07447   5812033.83645  21324646.2664                   21324644.4614
   3175257.09048   2479583.62146  21551325.6724                   21551321.3204
  14909310.77747  11606842.32044  23290708.4694                   23290707.0044
  -9253041.69547  -7209310.71945  22707994.2504                   22707991.6094
 -12309705.53147  -9590966.09444  22303006.0704                   22303004.2624
 11  8  1 18 53 30.0000000  0  9G03G24G07G08G13G19G23G28G11
  14981971.10247  11668883.37543  23855807.1024                   23855806.5904
   3351015.50847   2502113.86743  24091379.5314                   24091382.5164
  -6236535.41447  -4849093.91046  20712586.6334                   20712583.7664
 -10291408.53148  -8011702.98845  21912413.7034                   21912411.5204
   9090851.83647   7084115.41445  21635301.3054                   21635299.7814
   4786562.02048   3735145.90246  21857946.8834                   21857942.6214
  16567646.59847  12899051.84844  23606278.8984                   23606277.6764
  -7747830.14147  -6036418.55945  22994426.6024                   22994423.9924
 -10828097.39847  -8436466.17245  22584946.8524                   22584944.5124
 11  8  1 18 54  0.0000000  0  9G03G24G07G08G13G19G23G28G11
  15059364.92646  11729190.23043  23870534.6804                   23870535.4774
   3245794.00046   2420123.41843  24071355.5474                   24071360.1524
  -6297641.68047  -4896709.18046  20700958.6094                   20700955.3834
 -10391640.48848  -8089805.78945  21893340.1414                   21893337.5354
   9148315.12547   7128891.94945  21646236.8364                   21646235.0824
   4822909.14548   3763468.32846  21864863.5864                   21864858.8484
  16650662.22347  12963739.07844  23622075.2274                   23622075.8364
  -7817879.65247  -6091002.53945  22981096.9304                   22981094.3054
 -10921605.86747  -8509329.82845  22567153.0864                   22567150.9804
 11  8  1 18 54 30.0000000  0  9G03G24G07G08G13G19G23G28G11
  15136901.05946  11789607.93843  23885289.5474                   23885289.9734
   3140587.45346   2338144.60543  24051335.3594                   24051339.2504
  -6358465.57048  -4944104.41046  20689384.2274                   20689381.0164
 -10491783.47748  -8167839.27045  21874283.7584                   21874281.0824
   9206150.55547   7173958.45745  21657242.4064                   21657240.7624
   4859712.96948   3792146.62546  21871867.3674                   21871862.6954
  16733769.77347  13028497.87144  23637891.8284                   23637892.2544
  -7887770.29747  -6145462.70745  22967796.6954                   22967794.6994
 -11014806.62147  -8581953.71545  22549417.4144                   22549415.8364
 11  8  1 18 55  0.0000000  0  9G03G24G07G08G13G19G23G28G11
  15214575.30546  11850133.28143  23900070.4844                   23900070.0394
   3035397.10946   2256178.37543  24031317.9774                   24031321.8054
  -6419006.94947  -4991279.50446  20677863.4774                   20677860.5234
 -10591836.95748  -8245802.98845  21855244.2274                   21855242.0354
   9264353.50847   7219311.35945  21668318.3204                   21668316.2034
   4896969.24648   3821177.47346  21878956.1954                   21878952.2854
  16816964.69547  13093324.81644  23653722.8674                   23653723.0474
  -7957505.06647  -6199801.44545  22954526.2734                   22954523.9804
 -11107698.69947  -8654337.03945  22531740.6174                   22531738.6644
 11  8  1 18 55 30.0000000  0  9G03G24G07G08G13G19G23G28G11
  15292390.25046  11910768.26643  23914878.5784                   23914876.8284
   2930231.08246   2174231.07843  24011306.0784                   24011309.1174
  -6479258.46947  -5038228.72746  20666398.0784                   20666394.8484
 -10691794.00448  -8323691.56646  21836222.7114                   21836220.7074
   9322926.60247   7264952.66845  21679464.0634                   21679462.2304
   4934681.17648   3850563.39546  21886132.4844                   21886128.8054
  16900249.61347  13158221.86344  23669571.3594                   23669571.9844
  -8027079.05947  -6254014.89145  22941286.9614                   22941284.6804
 -11200273.57847  -8726473.20745  22514124.0314                   22514122.0864
 11  8  1 18 56  0.0000000  0  9G03G24G07G08G13G19G23G28G11
  15370339.72746  11971508.00043  23929711.9384                   23929710.8834
   2825088.55946   2092302.08243  23991298.1024                   23991301.1214
  -6539221.88347  -5084953.45346  20654987.4144                   20654984.2154
 -10791656.34048  -8401506.34445  21817219.6334                   21817217.7974
   9381863.09847   7310877.14546  21690680.0634                   21690677.5234
   4972842.13348   3880299.17646  21893394.9304                   21893390.8674
  16983617.61347  13223183.64544  23685435.9694                   23685436.5634
  -8096497.09847  -6308106.79745  22928077.1644                   22928074.5984
 -11292532.27047  -8798362.98845  22496567.0944                   22496565.9344
 11  8  1 18 56 30.0000000  0  9G03G24G07G08G13G19G23G28G11
  15448426.99646  12032355.15643  23944571.4774                   23944570.0474
   2719978.55546   2010398.45343  23971295.7814                   23971299.3324
  -6598889.52747  -5131447.71546  20643633.0634                   20643630.0784
 -10891416.15648  -8479241.25845  21798235.7584                   21798233.4024
   9441166.24247   7357087.34445  21701964.5084                   21701962.8594
   5011455.77348   3910387.73046  21900742.1334                   21900738.1054
  17067072.35547  13288212.95344  23701318.0784                   23701318.6604
  -8165754.05547  -6362073.21945  22914898.3134                   22914895.2234
 -11384465.76647  -8869999.39545  22479073.2814                   22479070.5784
 11  8  1 18 57  0.0000000  0  9G03G24G07G08G13G19G23G28G11
  15526646.51647  12093305.32443  23959456.3444                   23959454.6994
   2614901.39147   1928520.35543  23951300.2034                   23951303.5554
  -6658262.34047  -5177712.24246  20632334.4304                   20632331.7234
 -10991074.39148  -8556896.99645  21779271.5004                   21779269.1764
   9500830.34447   7403578.79745  21713318.3594                   21713316.6254
   5050516.24248   3940824.43846  21908175.3524                   21908171.2194
  17150607.64847  13353305.06344  23717213.9774                   23717214.8794
  -8234853.45347  -6415916.84045  22901748.5864                   22901746.6564
 -11476073.70347  -8941382.16045  22461640.9304                   22461638.9804
 11  8  1 18 57 30.0000000  0  9G03G24G07G08G13G19G23G28G11
  15604998.36347  12154358.62944  23974366.2344                   23974364.6914
   2509862.98847   1846672.44143  23931312.8134                   23931315.7584
  -6717335.63347  -5223743.36346  20621093.1644                   20621090.3204
 -11090626.15248  -8634469.78546  21760327.5314                   21760325.6914
   9560855.57447   7450351.64145  21724740.9384                   21724739.3204
   5090024.40648   3971610.02746  21915693.9064                   21915688.9384
  17234223.91446  13418460.26243  23733125.4774                   23733124.6174
  -8303793.09047  -6469635.98445  22888629.5004                   22888626.9964
 -11567350.59447  -9012506.92645  22444271.2504                   22444269.1054
 11  8  1 18 58  0.0000000  0  9G03G24G07G08G13G19G23G28G11
  15683479.72746  12215512.89143  23989299.7664                   23989299.1374
   2404865.93447   1764856.73443  23911331.8054                   23911334.2074
  -6776107.48847  -5269539.61746  20609909.3674                   20609906.5124
 -11190069.92248  -8711958.42246  21741403.4694                   21741401.7464
   9621239.00847   7497403.60545  21736231.4614                   21736229.6294
   5129977.59448   4002742.37146  21923296.4144                   21923292.2424
  17317917.70347  13483675.85244  23749052.5084                   23749052.7344
  -8372573.96547  -6523231.41045  22875541.2424                   22875538.5124
 -11658293.80547  -9083371.69945  22426964.9534                   22426963.3244
 11  8  1 18 58 30.0000000  0  9G03G24G07G08G13G19G23G28G11
  15762087.03546  12276765.23843  24004258.8444                   24004256.2234
   2299912.34046   1683074.89843  23891358.7194                   23891361.7664
  -6834577.37948  -5315100.56246  20598782.6254                   20598780.3324
 -11289404.77048  -8789362.17646  21722501.1564                   21722498.7734
   9681976.27047   7544731.28545  21747789.4844                   21747787.4804
   5170371.88348   4034218.44146  21930983.4534                   21930978.5704
  17401685.16446  13548948.83243  23764993.1954                   23764994.4264
  -8441198.46547  -6576704.98845  22862481.9064                   22862480.2934
 -11748901.55547  -9153975.06245  22409723.0784                   22409721.1684
 11  8  1 18 59  0.0000000  0  9G03G24G07G08G13G19G23G28G11
  15840816.47347  12338112.81643  24019241.1644                   24019237.7584
   2195004.21146   1601328.47343  23871394.9144                   23871398.5164
  -6892744.45348  -5360425.54746  20587714.3594                   20587711.0704
 -11388629.77748  -8866680.34046  21703618.7894                   21703616.9964
   9743063.69147   7592331.81345  21759413.6954                   21759412.3444
   5211203.61748   4066035.37546  21938753.4144                   21938749.3554
  17485522.48446  13614276.23444  23780947.0634                   23780948.0084
  -8509668.05947  -6630057.85245  22849452.8754                   22849450.5744
 -11839171.73047  -9224315.41445  22392545.3524                   22392543.6524
 11  8  1 18 59 30.0000000  0  9G03G24G07G08G13G19G23G28G11
  15919666.12546  12399554.07043  24034245.1724                   24034243.6374
   2090145.10547   1519620.30543  23851441.3674                   23851444.0514
  -6950605.92248  -5405512.39846  20576703.6954                   20576700.5864
 -11487742.29347  -8943910.87145  21684758.4694                   21684756.4804
   9804498.81647   7640203.27345  21771104.7814                   21771102.9144
   5252470.94948   4098191.74646  21946606.1254                   21946602.3324
  17569427.35947  13679656.34844  23796913.8834                   23796914.3404
  -8577982.94147  -6683290.18445  22836453.1094                   22836451.1174
 -11929101.02747  -9294390.12545  22375432.5394                   22375430.0744
 11  8  1 19  0  0.0000000  0  9G03G24G07G08G13G19G23G28G11
  15998633.98446  12461087.41843  24049272.9304                   24049270.5164
   1985338.17247   1437952.79743  23831497.6254                   23831499.8954
  -7008159.82848  -5450359.58647  20565751.5784                   20565748.3244
 -11586740.17648  -9021052.04746  21665919.9304                   21665917.3404
   9866279.46147   7688343.96945  21782861.3134                   21782859.2854
   5294171.68048   4130685.82046  21954541.6334                   21954537.3524
  17653397.41846  13745087.21143  23812892.7734                   23812893.6764
  -8646143.66847  -6736402.38345  22823482.3284                   22823480.5004
 -12018686.10547  -9364196.64145  22358384.7894                   22358382.4884
 11  8  1 19  0 30.0000000  0  9G03G24G07G08G13G19G23G28G11
  16077713.78946  12522708.00843  24064320.3674                   24064319.8014
   1880583.08646   1356325.72743  23811563.1564                   23811565.7734
  -7065407.42647  -5494968.10947  20554857.6254                   20554854.1484
 -11685624.65248  -9098104.87146  21647102.7114                   21647100.7664
   9928399.39547   7736749.05545  21794682.6484                   21794680.9344
   5336299.66847   4163512.82846  21962558.3834                   21962553.6764
  17737426.48846  13810564.05544  23828883.8054                   23828885.3244
  -8714154.54747  -6789397.81645  22810540.3834                   22810537.6994
 -12107927.68047  -9433735.43445  22341402.4304                   22341400.5124
 11  8  1 19  1  0.0000000  0  9G03G24G07G08G13G19G23G28G11
  16156904.60546  12584415.07842  24079389.7424                   24079389.2154
   1775884.31346   1274742.48043  23791638.9694                   23791642.3014
  -7122345.19948  -5539335.19546  20544022.6174                   20544019.2704
 -11784391.98447  -9175066.39146  21628307.9304                   21628306.0744
   9990857.17247   7785417.39845  21806568.0234                   21806565.8874
   5378853.75448   4196671.85546  21970656.3984                   21970651.9654
  17821513.42647  13876085.97744  23844884.7814                   23844886.5984
  -8782014.93747  -6842275.99645  22797626.5474                   22797624.4264
 -12196821.20747  -9503003.08245  22324486.4774                   22324484.8094
 11  8  1 19  1 30.0000000  0  9G03G24G07G08G13G19G23G28G11
  16236205.10946  12646207.55143  24094481.2274                   24094480.3954
   1671246.24246   1193206.57843  23771726.8914                   23771729.8164
  -7178970.55548  -5583458.84046  20533247.1804                   20533243.9884
 -11883039.54348  -9251934.60246  21609535.9844                   21609533.6684
  10053650.60947   7834347.27345  21818516.7274                   21818514.9964
   5421832.52348   4230161.79746  21978834.9774                   21978830.5204
  17905655.99647  13941651.27744  23860897.1804                   23860898.3244
  -8849724.40247  -6895036.57445  22784741.9614                   22784739.5434
 -12285362.62547  -9571996.32845  22307637.3364                   22307635.8204
 11  8  1 19  2  0.0000000  0  9G03G24G07G08G13G19G23G28G11
  16315608.97746  12708080.63743  24109590.8054                   24109590.6484
   1566668.53946   1111717.70344  23751827.0944                   23751828.7664
  -7235285.27348  -5627340.43446  20522530.8984                   20522527.7894
 -11981568.18748  -9328710.14546  21590786.8054                   21590784.7154
  10116773.85947   7883534.15645  21830529.1254                   21830527.1954
   5465230.07448   4263978.05146  21987093.1254                   21987088.6564
  17989848.18446  14007255.18843  23876918.6174                   23876920.1094
  -8917287.23047  -6947682.89545  22771885.1094                   22771882.6954
 -12373552.87547  -9640715.93745  22290855.8754                   22290853.4064
 11  8  1 19  2 30.0000000  0  9G03G24G07G08G13G19G23G28G11
  16395116.34046  12770034.32043  24124720.6884                   24124720.1914
   1462156.88347   1030280.25843  23731939.1414                   23731941.0664
  -7291284.60547  -5670976.27346  20511874.5084                   20511871.5314
 -12079973.76648  -9405389.78946  21572060.3364                   21572057.8794
  10180226.44547   7932977.66045  21842604.0634                   21842602.2894
   5509046.23048   4298120.48046  21995431.1564                   21995426.4734
  18074089.85547  14072897.64543  23892950.5784                   23892951.5704
  -8984701.77047  -7000213.66045  22759056.5704                   22759054.5434
 -12461386.48447  -9709157.64845  22274141.6174                   22274139.0744
 11  8  1 19  3  0.0000000  0  9G03G24G07G08G13G19G23G28G11
  16474722.39547  12832065.00843  24139869.8524                   24139868.0434
   1357711.88747    948894.78944  23712063.2894                   23712065.8364
  -7346968.71548  -5714366.48046  20501277.8284                   20501275.2384
 -12178256.36748  -9481973.61346  21553358.0234                   21553355.8244
  10244003.08247   7982673.67645  21854740.4064                   21854738.0234
   5553276.02348   4332585.22746  22003847.8754                   22003843.3524
  18158375.78147  14138574.62943  23908989.7734                   23908990.8094
  -9051971.17247  -7052631.31245  22746255.5634                   22746253.6994
 -12548862.64547  -9777320.80144  22257494.8364                   22257491.9574
 11  8  1 19  3 30.0000000  0  9G03G24G07G08G13G19G23G28G11
  16554424.63346  12894170.57443  24155035.7584                   24155035.1724
   1253336.44147    867563.52344  23692201.8204                   23692202.5004
  -7402336.17248  -5757509.94946  20490742.2424                   20490739.2424
 -12276414.21948  -9558460.23445  21534679.4924                   21534677.0044
  10308100.72747   8032619.82845  21866937.8674                   21866935.7424
   5597916.74648   4367370.19546  22012342.9064                   22012338.0354
  18242703.03146  14204283.80543  23925036.2274                   23925038.6564
  -9119096.49647  -7104936.72745  22733482.4144                   22733479.7584
 -12635978.95347  -9845203.57445  22240917.2974                   22240915.1024
 11  8  1 19  4  0.0000000  0  9G03G24G07G08G13G19G23G28G11
  16634222.78946  12956350.84043  24170221.3054                   24170220.1484
   1149036.07447    786290.72344  23672353.9534                   23672355.1844
  -7457382.71948  -5800403.35546  20480267.1024                   20480264.1414
 -12374442.57848  -9634845.94146  21516024.8364                   21516022.7034
  10372518.90247   8082815.74245  21879195.8674                   21879194.5944
   5642967.89848   4402474.96946  22020915.7344                   22020911.6684
  18327071.25046  14270024.85543  23941091.1484                   23941093.3794
  -9186076.10247  -7157128.56245  22720736.7034                   22720733.9924
 -12722729.97747  -9912801.71945  22224409.1954                   22224406.4804
 11  8  1 19  4 30.0000000  0  9G03G24G07G08G13G19G23G28G11
  16714110.74646  13018601.16843  24185423.9224                   24185422.5474
   1044810.41447    705076.13744  23652519.6644                   23652521.6914
  -7512109.84048  -5843047.86346  20469852.6094                   20469849.4654
 -12472343.34848  -9711132.23046  21497395.2974                   21497393.2664
  10437251.41047   8133256.58645  21891513.7974                   21891512.2814
   5688423.54347   4437894.95746  22029565.6564                   22029561.5594
  18411474.23446  14335792.98443  23957152.8594                   23957154.1994
  -9252914.34447  -7209210.26645  22708017.4304                   22708015.3324
 -12809116.66447  -9980115.96145  22207970.6954                   22207967.7704
 11  8  1 19  5  0.0000000  0  8G24G07G08G13G19G23G28G11
    940663.94147    623923.26243  23632701.4384                   23632702.5704
  -7566514.48048  -5885441.09446  20459499.8984                   20459496.4344
 -12570112.90648  -9787316.27346  21478790.2504                   21478787.8874
  10502296.18047   8183940.75445  21903891.8444                   21903890.0204
   5734282.45748   4473629.16445  22038292.3134                   22038287.8484
  18495910.38346  14401586.94143  23973220.7734                   23973223.2734
  -9319610.40247  -7261181.17645  22695325.7274                   22695323.2504
 -12895134.75447 -10047142.98045  22191601.4844                   22191599.4804
 11  8  1 19  5 30.0000000  0  8G24G07G08G13G19G23G28G11
    836600.78147    542835.24643  23612898.9064                   23612899.1024
  -7620593.28948  -5927580.43446  20449209.1804                   20449206.0314
 -12667747.69548  -9863395.31646  21460211.0474                   21460208.5554
  10567651.98847   8234867.29345  21916328.9844                   21916326.8554
   5780543.34848   4509676.58246  22047095.4614                   22047091.1764
  18580378.46546  14467405.77043  23989294.7034                   23989297.0864
  -9386163.91847  -7313041.01245  22682661.2664                   22682658.8204
 -12980780.03547 -10113879.51245  22175303.5474                   22175301.3714
 11  8  1 19  6  0.0000000  0  8G24G07G08G13G19G23G28G11
    732632.55947    461821.24243  23593113.7584                   23593114.2274
  -7674336.10948  -5969457.95746  20438982.0394                   20438979.1054
 -12765237.00048  -9939360.97746  21441659.3054                   21441656.8834
  10633324.07047   8286040.27345  21928825.3834                   21928823.8714
   5827211.80148   4546041.60945  22055976.0004                   22055971.9184
  18664884.00046  14533253.80943  24005376.4384                   24005378.1054
  -9452567.55147  -7364784.05145  22670024.6024                   22670022.0514
 -13066041.47347 -10180316.91845  22159078.8134                   22159076.9024
 11  8  1 19  6 30.0000000  0  8G24G07G08G13G19G23G28G11
    628774.65247    380893.19543  23573350.6024                   23573350.6094
  -7727728.72748  -6011062.58646  20428822.0314                   20428819.0474
 -12862566.89548 -10015202.44546  21423137.9384                   21423135.6174
  10699321.83647   8337467.03145  21941384.6484                   21941383.1604
   5874297.43447   4582731.68445  22064936.3674                   22064931.4614
  18749436.46546  14599138.42243  24021466.7894                   24021468.4104
  -9518809.77047  -7416401.31645  22657419.1954                   22657416.6334
 -13150903.90647 -10246443.43445  22142929.9224                   22142926.7894
 11  8  1 19  7  0.0000000  0  8G24G07G08G13G19G23G28G11
    525027.68046    300051.57843  23553607.6804                   23553609.3244
  -7780771.99248  -6052395.00447  20418727.9454                   20418725.3794
 -12959737.67648 -10090919.92646  21404646.9924                   21404644.7544
  10765639.59447   8389143.14145  21954004.7504                   21954002.8554
   5921794.72347   4619742.55145  22073974.7274                   22073970.5354
  18834030.31647  14665055.30143  24037565.1564                   24037566.5434
  -9584894.09047  -7467895.54345  22644843.5634                   22644840.5594
 -13235367.42247 -10312259.10545  22126857.4224                   22126854.9804
 11  8  1 19  7 30.0000000  0  8G24G07G08G13G19G23G28G11
    421384.25046    219290.64543  23533884.8674                   23533886.2464
  -7833474.05548  -6093461.54347  20408699.0864                   20408696.3324
 -13056757.66847 -10166519.91046  21386184.4224                   21386182.4024
  10832264.03147   8441058.21545  21966682.8204                   21966681.2074
   5969690.75847   4657064.13346  22083088.7974                   22083084.9304
  18918652.67647  14730994.36344  24053668.1414                   24053670.9264
  -9650831.58647  -7519275.36345  22632295.9614                   22632293.8164
 -13319439.57847 -10377769.82845  22110858.8524                   22110856.2274
 11  8  1 19  8  0.0000000  0  8G24G07G08G13G19G23G28G11
    317844.64846    138610.63743  23514181.8444                   23514183.6914
  -7885836.59848  -6134263.52346  20398734.9384                   20398731.8914
 -13153627.12148 -10242002.57846  21367750.9144                   21367748.3834
  10899189.68847   8493208.00845  21979418.5314                   21979417.2234
   6017980.24648   4694692.27345  22092278.1954                   22092273.7304
  19003298.07447  14796951.41043  24069776.2734                   24069778.0044
  -9716626.20747  -7570543.85545  22619776.2664                   22619773.0554
 -13403120.11347 -10442975.38745  22094934.8984                   22094932.9264
 11  8  1 19  8 30.0000000  0  8G24G07G08G13G19G23G28G11
    214409.33646     58011.93043  23494497.6254                   23494499.3444
  -7937859.75448  -6174801.04347  20388835.0944                   20388832.3794
 -13250346.49647 -10317368.30946  21349345.9304                   21349342.7034
  10966411.14547   8545588.29345  21992210.4144                   21992208.6524
   6066657.41847   4732622.53545  22101540.8284                   22101536.7934
  19087960.99646  14862922.05943  24085886.5084                   24085889.9844
  -9782280.87147  -7621703.28145  22607281.7894                   22607279.6684
 -13486409.05547 -10507875.77745  22079085.2114                   22079083.3754
 11  8  1 19  9  0.0000000  0  8G24G07G08G13G19G23G28G11
    111077.90246    -22505.81643  23474834.5084                   23474836.8794
  -7989545.36748  -6215075.54346  20378999.6564                   20378996.6994
 -13346917.57048 -10392618.49646  21330969.2114                   21330967.0514
  11033921.51247   8598193.70345  22005057.1644                   22005055.4924
   6115716.44947   4770850.31345  22110877.1724                   22110872.8714
  19172634.96546  14928901.33643  24102000.9224                   24102002.7934
  -9847799.86747  -7672757.01245  22594814.1884                   22594812.0514
 -13569307.50047 -10572471.88745  22063309.9694                   22063308.1174
 11  8  1 19  9 30.0000000  0  9G17G24G07G08G13G19G23G28G11
   6147880.35956   4809971.44153  24602622.2194                   24602627.0984
      7855.64846   -102938.49243  23455191.6884                   23455193.6844
  -8040889.78948  -6255084.16846  20369229.5944                   20369226.3524
 -13443336.24247 -10467749.90646  21312621.1804                   21312618.8874
  11101719.85547   8651023.50845  22017958.3444                   22017957.1454
   6165156.74647   4809375.20745  22120285.0314                   22120280.4264
  19257319.59846  14994888.94543  24118115.7114                   24118117.7894
  -9913182.57847  -7723704.54345  22582372.6174                   22582369.7384
 -13651810.52047 -10636759.88345  22047610.4614                   22047608.2384
 11  8  1 19 10  0.0000000  0  9G17G24G07G08G13G19G23G28G11
   6012594.09447   4704554.01244  24576878.4144                   24576882.3324
    -95267.37947   -183293.83644  23435568.2664                   23435570.2624
  -8091903.68448  -6294835.25046  20359521.4144                   20359518.8324
 -13539612.90648 -10542770.68046  21294300.5004                   21294298.0004
  11169790.34847   8704065.36745  22030912.1564                   22030911.4574
   6214962.35548   4848184.74646  22129762.5394                   22129758.8954
  19341999.04346  15060872.55543  24134229.8984                   24134231.6724
  -9978442.44947  -7774556.34045  22569953.5944                   22569951.0824
 -13733928.24647 -10700747.66445  22031984.1174                   22031981.8874
 11  8  1 19 10 30.0000000  0  9G17G24G07G08G13G19G23G28G11
   5877383.95746   4599195.88743  24551148.0084                   24551152.6564
   -198296.40247   -263575.96944  23415962.3984                   23415964.5784
  -8142594.12148  -6334334.27047  20349875.3984                   20349872.5164
 -13635753.85548 -10617685.67246  21276005.3834                   21276002.9614
  11238121.41447   8757310.28545  22043915.2274                   22043913.9344
   6265122.37148   4887270.44146  22139307.9454                   22139303.6764
  19426662.47346  15126843.58243  24150340.9924                   24150343.7664
 -10043588.75447  -7825319.66045  22557556.3134                   22557553.8484
 -13815666.46547 -10764439.72745  22016429.7894                   22016427.9184
 11  8  1 19 11  0.0000000  0  9G17G24G07G08G13G19G23G28G11
   5742252.69546   4493899.25443  24525432.3674                   24525437.6294
   -301227.73047   -343781.95344  23396375.0864                   23396376.7814
  -8192958.34448  -6373579.11346  20340291.5234                   20340288.7974
 -13731756.48848 -10692492.90646  21257736.4924                   21257734.4304
  11306710.83247   8810756.50445  22056967.6024                   22056966.2734
   6315634.44147   4926630.48045  22148919.6884                   22148915.3554
  19511307.62546  15192800.41043  24166449.0234                   24166450.8484
 -10108621.82447  -7875994.73845  22545180.7734                   22545178.8914
 -13897021.95347 -10827833.55545  22000948.3674                   22000946.0474
 11  8  1 19 11 30.0000000  0  9G17G24G07G08G13G19G23G28G11
   5607210.48446   4388671.91043  24499734.5634                   24499739.4414
   -404050.91847   -423903.66844  23376807.9924                   23376810.1374
  -8242987.05148  -6412562.52047  20330771.3204                   20330768.3674
 -13827610.92248 -10767184.66446  21239495.8054                   21239493.9964
  11375563.05147   8864407.50845  22070069.7584                   22070068.6054
   6366503.26247   4966268.50445  22158600.0004                   22158595.3754
  19595939.23045  15258746.71142  24182554.2344                   24182554.7424
 -10173535.01647  -7926576.40245  22532828.2664                   22532825.7664
 -13977984.82447 -10890921.45345  21985541.2584                   21985538.5664
 11  8  1 19 12  0.0000000  0  9G17G24G07G08G13G19G23G28G11
   5472263.43046   4283518.77042  24474054.7974                   24474059.0004
   -506758.41447   -503935.24244  23357263.5864                   23357265.5164
  -8292674.16448  -6451279.74246  20321316.2974                   20321313.4414
 -13923310.86348 -10841756.02046  21221284.7424                   21221282.1994
  11444679.57447   8918264.48045  22083222.1414                   22083220.8834
   6417730.68447   5006185.94545  22168347.7974                   22168343.8284
  19680558.94146  15324683.68442  24198656.4614                   24198659.9574
 -10238324.83247  -7977061.93445  22520499.2344                   22520496.6804
 -14058547.82847 -10953697.75845  21970210.2344                   21970207.9144
 11  8  1 19 12 30.0000000  0  9G17G24G07G08G13G19G23G28G11
   5337420.63746   4178446.87542  24448394.6724                   24448399.0824
   -609339.87547   -583868.62544  23337743.0704                   23337744.3834
  -8342010.84448  -6489723.88747  20311927.7894                   20311924.7854
 -14018846.83248 -10916199.61346  21203104.8444                   21203102.9844
  11514064.27747   8972330.41445  22096425.4064                   22096424.3484
   6469320.78147   5046385.98845  22178165.6334                   22178161.7664
  19765170.77046  15390614.50043  24214758.2894                   24214762.3524
 -10302985.03947  -8027446.46145  22508194.9144                   22508192.3954
 -14138701.30947 -11016154.96545  21954958.4614                   21954955.3634
 11  8  1 19 13  0.0000000  0  9G17G24G07G08G13G19G23G28G11
   5202684.70746   4073458.15643  24422755.0554                   24422759.3164
   -711791.78547   -663701.05544  23318246.7194                   23318249.1914
  -8390994.96548  -6527893.36346  20302606.2734                   20302603.3284
 -14114215.96548 -10990513.21146  21184957.0164                   21184954.5904
  11583714.68847   9026603.37945  22109679.4924                   22109678.2734
   6521271.46547   5086867.03945  22188051.3594                   22188047.0664
  19849772.90246  15456537.81343  24230857.9774                   24230861.4304
 -10367516.15647  -8077730.41045  22495915.1954                   22495912.6214
 -14218442.20347 -11078290.66045  21939783.8284                   21939781.7504
 11  8  1 19 13 30.0000000  0  9G17G24G07G08G13G19G23G28G11
   5068055.75446   3968552.82443  24397135.4144                   24397139.5824
   -814112.91447   -743431.55544  23298775.0164                   23298776.8794
  -8439626.54348  -6565788.07046  20293352.0394                   20293349.2974
 -14209418.17648 -11064696.72746  21166840.2894                   21166838.1844
  11653625.71947   9081079.44545  22122983.0234                   22122981.9144
   6573577.85947   5127625.23845  22198005.0474                   22198000.7934
  19934360.59045  15522449.82443  24246954.1414                   24246959.1414
 -10431920.80947  -8127915.79745  22483659.4064                   22483656.4304
 -14297769.75047 -11140104.30545  21924688.2974                   21924685.5354
 11  8  1 19 14  0.0000000  0  9G17G24G07G08G13G19G23G28G11
   4933538.87946   3863734.82443  24371537.8134                   24371541.5354
   -916297.25047   -823055.47344  23279330.4694                   23279331.1884
  -8487900.93448  -6603404.48046  20284165.8754                   20284162.9804
 -14304448.48848 -11138746.28946  21148756.7894                   21148754.1254
  11723797.30947   9135758.51245  22136337.1024                   22136335.7154
   6626240.52347   5168661.05545  22208026.6414                   22208021.9064
  20018934.07446  15588350.75843  24263048.7194                   24263053.1174
 -10496196.94147  -8178001.07045  22471428.0474                   22471425.2934
 -14376678.91047 -11201591.91045  21909672.3444                   21909670.2704
 11  8  1 19 14 30.0000000  0  9G17G24G07G08G13G19G23G28G11
   4799134.76247   3759004.67244  24345961.9144                   24345965.2304
  -1018343.18447   -902571.56643  23259911.3054                   23259911.9734
  -8535817.84048  -6640742.33247  20275047.3674                   20275044.7544
 -14399306.01248 -11212661.22746  21130705.9534                   21130703.4844
  11794225.04747   9190637.19945  22149738.6174                   22149737.2034
   6679254.76247   5209970.83245  22218114.8834                   22218110.3674
  20103489.19946  15654237.41443  24279138.7504                   24279143.9694
 -10560347.03147  -8227988.11345  22459220.5864                   22459217.7704
 -14455168.21547 -11262752.35945  21894736.4304                   21894733.4414
 11  8  1 19 15  0.0000000  0  9G17G24G07G08G13G19G23G28G11
   4664846.52347   3654364.86344  24320407.2274                   24320410.0124
  -1120246.33246   -981976.41043  23240519.2894                   23240519.6294
  -8583374.30148  -6677799.30947  20265997.7114                   20265994.9774
 -14493987.23848 -11286438.78146  21112688.6094                   21112686.4104
  11864906.85547   9245713.86345  22163189.3444                   22163188.0474
   6732618.83647   5251553.21945  22228269.5164                   22228265.8014
  20188024.26246  15720108.39844  24295226.0864                   24295231.2544
 -10624370.54747  -8277876.52745  22447037.2034                   22447034.6564
 -14533234.01647 -11323582.80545  21879880.9144                   21879878.1724
 11  8  1 19 15 30.0000000  0  9G17G24G07G08G13G19G23G28G11
   4530677.32447   3549817.78144  24294875.3364                   24294877.7034
  -1222002.89546  -1061267.01243  23221155.0784                   23221157.1564
  -8630567.83248  -6714573.48447  20257016.9774                   20257014.3244
 -14588489.02047 -11360076.50446  21094705.5864                   21094703.3244
  11935840.85547   9300987.03545  22176687.5784                   22176686.1954
   6786331.02347   5293406.83245  22238490.7664                   22238486.2504
  20272537.61746  15785962.47744  24311309.7344                   24311313.7194
 -10688267.48847  -8327666.31245  22434878.3674                   22434875.1724
 -14610872.91847 -11384080.60945  21865106.6174                   21865103.8794
 11  8  1 19 16  0.0000000  0  9G17G24G07G08G13G19G23G28G11
   4396630.10947   3445365.76244  24269367.0634                   24269370.0824
  -1323608.87146  -1140440.28943  23201820.3364                   23201822.3014
  -8677395.36348  -6751062.48446  20248106.2664                   20248103.1804
 -14682808.15648 -11433571.91446  21076757.3444                   21076755.0904
  12007024.83647   9356455.00445  22190233.2274                   22190232.2584
   6840389.78147   5335530.52045  22248777.5634                   22248773.2704
  20357027.63746  15851798.37143  24327387.6334                   24327392.1684
 -10752037.91447  -8377357.52045  22422742.9224                   22422740.3914
 -14688081.37947 -11444243.00045  21850414.7114                   21850411.9064
 11  8  1 19 16 30.0000000  0  8G17G24G07G08G13G19G28G11
   4262703.59847   3341007.79744  24243881.2894                   24243884.2934
  -1425064.11746  -1219496.13343  23182513.2194                   23182514.7584
  -8723858.55548  -6787267.56246  20239264.6644                   20239261.7304
 -14776945.83648 -11506925.92646  21058843.4304                   21058841.0474
  12078452.57847   9412112.90245  22203825.6174                   22203824.3754
   6894788.71947   5377919.29345  22259129.1804                   22259125.4344
 -10815685.86347  -8426953.27045  22410630.9304                   22410628.2854
 -14764860.19147 -11504070.59845  21835803.8524                   21835801.1804
 11  8  1 19 17  0.0000000  0  8G17G24G07G08G13G19G28G11
   4128902.61746   3236747.66844  24218419.3524                   24218422.6334
  -1526362.60246  -1298429.84843  23163236.6884                   23163238.1954
  -8769952.86348  -6823185.21147  20230493.0234                   20230489.9654
 -14870896.68748 -11580134.36746  21040965.0234                   21040963.1524
  12150124.01247   9467960.69945  22217464.4384                   22217463.1914
   6949527.97347   5420573.21945  22269546.1254                   22269541.8164
 -10879209.57047  -8476452.21945  22398542.7814                   22398540.1764
 -14841204.39547 -11563559.52745  21821275.7274                   21821273.7934
 11  8  1 19 17 30.0000000  0  8G17G24G07G08G13G19G28G11
   3995238.86946   3132594.50844  24192983.7274                   24192986.4494
  -1627492.39847  -1377232.09843  23143991.9924                   23143992.9694
  -8815667.63748  -6858807.11347  20221794.2424                   20221790.7504
 -14964649.64848 -11653188.59846  21023124.5864                   21023122.0204
  12222044.84047   9524002.81645  22231150.6884                   22231149.3204
   7004613.91447   5463497.30945  22280028.8984                   22280025.1254
 -10942600.33247  -8525847.58245  22386479.7734                   22386477.7344
 -14917101.81647 -11622700.31645  21806832.7734                   21806830.7624
 11  8  1 19 18  0.0000000  0  8G17G24G07G08G13G19G28G11
   3861722.31645   3028555.94143  24167575.7974                   24167579.2274
  -1728442.09047  -1455894.00844  23124782.3204                   23124783.4024
  -8860992.85248  -6894125.46547  20213168.8984                   20213165.8204
 -15058193.91048 -11726080.21146  21005323.8134                   21005321.1254
  12294220.29747   9580243.35245  22244885.3674                   22244884.0554
   7060052.17247   5506695.92645  22290577.6254                   22290573.8594
 -11005851.18447  -8575133.91445  22374443.5944                   22374441.6644
 -14992542.00847 -11681484.82445  21792476.8524                   21792474.8054
 11  8  1 19 18 30.0000000  0  8G17G24G07G08G13G19G28G11
   3728352.70745   2924632.00843  24142194.9384                   24142198.9694
  -1829210.62547  -1534414.76644  23105606.7894                   23105607.5314
  -8905928.62548  -6929140.36747  20204617.8524                   20204615.0704
 -15151529.16848 -11798808.96146  20987562.7894                   20987560.3134
  12366645.30947   9636678.34445  22258667.2814                   22258666.2504
   7115837.60247   5550165.08245  22301193.4924                   22301189.3204
 -11068964.73447  -8624313.26245  22362433.9924                   22362430.9964
 -15067524.79748 -11739912.92645  21778208.5784                   21778205.9064
 11  8  1 19 19  0.0000000  0  8G17G24G07G08G13G19G28G11
   3595125.44545   2820818.94943  24116842.7344                   24116846.2854
  -1929801.84447  -1612797.35944  23086464.6644                   23086465.9734
  -8950480.76648  -6963856.32447  20196139.8364                   20196136.9774
 -15244660.66048 -11871378.93446  20969840.3754                   20969837.9414
  12439309.54747   9693299.73445  22272494.6174                   22272494.2034
   7171960.12547   5593896.88345  22311873.4144                   22311870.3364
 -11131949.32447  -8673392.10945  22350448.1564                   22350445.8834
 -15142054.71148 -11797988.12945  21764025.2344                   21764023.1334
 11  8  1 19 19 30.0000000  0  8G17G24G07G08G13G19G28G11
   5037461.86746   3944717.81643  24391310.1414                   24391311.8554
   -454794.22347   -463440.62544  23367148.7734                   23367150.6414
  -7419230.95748  -5770674.64547  20487527.1884                   20487524.1334
 -13762167.68048 -10716189.58646  21251949.0704                   21251947.1644
  14087622.84447  10977699.63345  22586158.0864                   22586157.1524
   8803829.90647   6865483.69545  22622408.1414                   22622404.4734
  -9619388.40647  -7494773.18445  22638278.9534                   22638275.8524
 -13640712.06247 -10628110.66045  22049721.7274                   22049719.4774
 11  8  1 19 20  0.0000000  0  8G17G24G07G08G13G19G28G11
   4904512.40246   3841121.14843  24366010.3524                   24366012.5204
   -555033.80947   -541549.28144  23348074.8134                   23348076.4064
  -7463022.64848  -5804798.02047  20479193.6334                   20479190.6414
 -13854896.85948 -10788446.07846  21234303.4304                   21234300.9844
  14160744.56647  11034677.51645  22600072.8284                   22600071.8914
   8860606.19547   6909724.93445  22633212.4924                   22633207.3444
  -9682129.86347  -7543662.59045  22626339.3284                   22626336.6254
 -13714341.78148 -10685484.39845  22035711.1024                   22035708.2154
 11  8  1 19 20 30.0000000  0  9G17G24G07G08G26G13G19G28G11
   4771699.55146   3737630.94143  24340737.2894                   24340738.9304
   -655098.91447   -619521.97744  23329032.8524                   23329033.8324
  -7506437.29348  -5838627.60546  20470931.9144                   20470928.8524
 -13947426.78148 -10860547.30146  21216695.3594                   21216693.3014
   7740940.04356   6048837.17653  24373486.2344                   24373485.1564
  14234084.56647  11091825.47745  22614029.4694                   22614027.5944
   8917699.23847   6954213.01245  22644077.0314                   22644071.6454
  -9744756.56247  -7592462.57045  22614421.8834                   22614419.1954
 -13787523.12947 -10742508.74645  22021783.9614                   22021781.9574
 11  8  1 19 21  0.0000000  0  9G17G24G07G08G26G13G19G28G11
   4639020.15646   3634244.69543  24315488.8914                   24315491.1024
   -754991.35947   -697360.12544  23310023.4454                   23310025.6804
  -7549478.25448  -5872166.00847  20462741.8834                   20462738.6094
 -14039759.93448 -10932495.18746  21199125.3594                   21199122.7114
   7621734.00446   5955949.46943  24350802.4534                   24350801.3554
  14307635.10547  11149137.50444  22628025.6484                   22628024.7544
   8975101.54347   6998942.04745  22655000.0554                   22654996.1724
  -9807274.50447  -7641177.81245  22602525.0704                   22602522.4304
 -13860258.89147 -10799185.89145  22007942.9534                   22007941.0274
 11  8  1 19 21 30.0000000  0  9G17G24G07G08G26G13G19G28G11
   4506463.19946   3530953.94943  24290263.9454                   24290265.9184
   -854720.66047   -775071.14544  23291045.1804                   23291047.0824
  -7592156.50448  -5905421.77747  20454620.1804                   20454617.3524
 -14131907.25048 -11004298.27746  21181590.0704                   21181587.8554
   7502883.12946   5863338.41843  24328185.4224                   24328185.1134
  14381380.19947  11206601.10944  22642058.6724                   22642058.1374
   9032797.51247   7043899.92245  22665979.0944                   22665975.2704
  -9869697.46147  -7689819.04345  22590646.1564                   22590643.6214
 -13932559.58248 -10855524.02745  21994184.7814                   21994182.3444
 11  8  1 19 22  0.0000000  0  9G17G24G07G08G26G13G19G28G11
   4374033.42646   3427762.24644  24265063.1804                   24265064.4264
   -954281.08247   -852650.59844  23272099.8364                   23272100.6174
  -7634468.25448  -5938391.96946  20446568.6334                   20446565.5354
 -14223864.02048 -11075952.89546  21164091.1254                   21164088.7384
   7384392.64546   5771008.24643  24305637.8054                   24305636.1054
  14455318.51247  11264215.29744  22656129.1094                   22656127.2814
   9090786.18447   7089085.87545  22677013.9384                   22677010.0864
  -9932023.46547  -7738384.71145  22578785.8204                   22578783.4734
 -14004420.60548 -10911519.57445  21980510.2734                   21980507.6134
 11  8  1 19 22 30.0000000  0  9G17G24G07G08G26G13G19G28G11
   4241739.94147   3324676.77344  24239888.4304                   24239890.3984
  -1053662.77746   -930090.74644  23253187.3284                   23253188.6564
  -7676404.66848  -5971069.69147  20438588.6414                   20438584.9924
 -14315620.80948 -11147451.67646  21146630.2974                   21146628.2464
   7266272.54746   5678966.69143  24283160.0314                   24283159.2624
  14529454.78147  11321983.71945  22670236.8204                   22670235.7114
   9149072.35247   7134503.65645  22688106.0554                   22688101.1804
  -9994246.45747  -7786870.12945  22566945.6644                   22566942.9654
 -14075832.61747 -10967165.25445  21966920.8054                   21966917.7154
 11  8  1 19 23  0.0000000  0  9G17G24G07G08G26G13G19G28G11
   4109586.43847   3221700.34844  24214740.7344                   24214741.5354
  -1152861.00446  -1007387.99644  23234311.0004                   23234312.1524
  -7717962.45348  -6003452.38346  20430680.2194                   20430677.0944
 -14407173.57448 -11218791.48446  21129208.5004                   21129206.0744
   7148526.88746   5587216.88743  24260753.7734                   24260752.2974
  14603786.92247  11379904.78144  22684381.4454                   22684381.1604
   9207654.67247   7180152.19545  22699252.8594                   22699248.5164
 -10056365.99647  -7835274.91845  22555124.7344                   22555121.3674
 -14146791.84047 -11022458.10945  21953417.9534                   21953414.9774
 11  8  1 19 23 30.0000000  0  9G17G24G07G08G26G13G19G28G11
   3977578.98846   3118837.78944  24189619.4614                   24189620.9304
  -1251868.13347  -1084536.28144  23215469.7974                   23215471.9454
  -7759135.59048  -6035535.33247  20422845.2734                   20422842.1914
 -14498515.69948 -11289967.14546  21111826.5944                   21111824.0634
   7031163.27046   5495764.84843  24238420.6884                   24238419.7504
  14678316.69947  11437979.83644  22698564.0944                   22698562.7074
   9266534.90647   7226032.87145  22710458.0234                   22710453.7704
 -10118378.19547  -7883596.08245  22543324.0944                   22543320.8484
 -14217291.23847 -11077392.66845  21940002.0704                   21939999.1524
 11  8  1 19 24  0.0000000  0  9G17G24G07G08G26G13G19G28G11
   3845721.34846   3016091.91844  24164528.4064                   24164529.3754
  -1350679.52346  -1161532.04744  23196666.2344                   23196668.9694
  -7799921.16848  -6067316.27347  20415084.0394                   20415081.1174
 -14589643.16048 -11360975.53546  21094485.6094                   21094483.5704
   6914185.78546   5404613.62143  24216159.2424                   24216158.1174
  14753042.62147  11496207.70344  22712784.4774                   22712783.3364
   9325711.39147   7272144.38745  22721718.7034                   22721714.3524
 -10180282.85947  -7931833.44145  22531543.7734                   22531540.9774
 -14287327.15647 -11131966.06245  21926674.5234                   21926671.6884
 11  8  1 19 24 30.0000000  0  9G17G24G07G08G26G13G19G28G11
   3714016.27746   2913464.91444  24139465.2734                   24139467.0664
  -1449291.50047  -1238372.44144  23177901.7734                   23177902.7034
  -7840316.89548  -6098793.44947  20407397.1564                   20407394.0234
 -14680553.29348 -11431814.58246  21077185.9774                   21077183.8634
   6797597.84846   5313765.96943  24193972.4844                   24193971.7304
  14827961.89547  11554586.27744  22727041.2194                   22727040.0634
   9385181.99647   7318485.10945  22733035.1954                   22733031.4454
 -10242079.82047  -7979986.88345  22519784.5004                   22519781.3404
 -14356896.81648 -11186176.13345  21913435.8754                   21913432.9574
 11  8  1 19 25  0.0000000  0  9G17G24G07G08G26G13G19G28G11
   3582464.16046   2810957.09444  24114430.9844                   24114432.8754
  -1547702.16847  -1315055.97344  23159175.3524                   23159175.4104
  -7880322.49248  -6129966.63747  20399784.2114                   20399781.1174
 -14771244.79748 -11502483.26646  21059928.2504                   21059925.9264
   6681400.99246   5223222.99643  24171862.2344                   24171860.6484
  14903070.47347  11613112.32044  22741333.7344                   22741333.1724
   9444942.42647   7365051.62945  22744407.6954                   22744404.1454
 -10303771.32847  -8028058.16445  22508044.7734                   22508041.9384
 -14425999.32447 -11240022.21145  21900286.0234                   21900283.2074
 11  8  1 19 25 30.0000000  0  9G17G24G07G08G26G13G19G28G11
   3451067.07446   2708570.09844  24089426.6724                   24089428.8404
  -1645908.38347  -1391580.17244  23140486.8134                   23140487.0164
  -7919936.18448  -6160834.43747  20392246.0944                   20392242.9614
 -14861715.19547 -11572979.65246  21042712.1954                   21042709.5784
   6565598.03146   5132986.94543  24149824.7114                   24149824.4454
  14978365.44547  11671783.62144  22755661.7734                   22755660.3324
   9504990.32047   7411842.15245  22755834.2974                   22755830.3284
 -10365358.27747  -8076047.96945  22496325.0944                   22496321.8754
 -14494632.55147 -11293502.60545  21887225.6094                   21887222.5944
 11  8  1 19 26  0.0000000  0  9G17G24G07G08G26G13G19G28G11
   3319827.35946   2606305.69144  24064452.1484                   24064454.5634
  -1743907.07047  -1467942.61744  23121838.2894                   23121839.5234
  -7959156.06248  -6191395.37546  20384782.6954                   20384779.7424
 -14951961.87548 -11643301.71946  21025538.7504                   21025536.3484
   6450191.92646   5043060.15643  24127864.1804                   24127864.0944
  15053843.32847  11730597.43844  22770024.9844                   22770024.8554
   9565322.68847   7458854.39145  22767315.2814                   22767311.4804
 -10426841.23447  -8123956.72345  22484624.9694                   22484622.5204
 -14562793.94947 -11346615.34845  21874254.8054                   21874252.0554
 11  8  1 19 26 30.0000000  0  9G17G24G07G08G26G13G19G28G11
   3188747.49246   2504165.85944  24039508.3834                   24039510.4344
  -1841694.31647  -1544140.32044  23103229.3674                   23103230.6954
  -7997980.14147  -6221647.89547  20377394.6334                   20377391.4384
 -15041982.01248 -11713447.25046  21008408.7194                   21008405.7504
   6335186.02746   4953445.27043  24105979.3524                   24105978.4494
  15129502.19147  11789552.25844  22784422.5164                   22784421.8834
   9625937.54347   7506086.71145  22778850.0784                   22778845.8954
 -10488220.24247  -8171784.49645  22472944.9384                   22472942.3554
 -14630480.70347 -11399358.23445  21861374.6334                   21861371.9494
 11  8  1 19 27  0.0000000  0  9G17G24G07G08G26G13G19G28G11
   3057829.93846   2402152.46944  24014595.5164                   24014597.1374
  -1939266.77347  -1620170.65244  23084661.7504                   23084663.7814
  -8036406.55148  -6251590.53947  20370082.1564                   20370079.0004
 -15131772.67248 -11783413.97346  20991321.4614                   20991319.5474
   6220583.53146   4864144.66043  24084171.0554                   24084170.0204
  15205339.28947  11848646.00444  22798854.1644                   22798852.8914
   9686832.50847   7553537.30545  22790438.2114                   22790433.7304
 -10549496.07447  -8219531.84845  22461284.5474                   22461282.0354
 -14697690.34447 -11451729.35545  21848584.7734                   21848582.1884
 11  8  1 19 27 30.0000000  0  9G17G24G07G08G26G13G19G28G11
   2927075.50847   2300266.16043  23989713.8754                   23989714.4144
  -2036622.59046  -1696032.15244  23066135.4694                   23066137.0164
  -8074434.86748  -6281223.00047  20362845.8134                   20362842.6684
 -15221332.66848 -11853200.95346  20974279.0944                   20974276.7274
   6106385.94946   4775159.59443  24062440.0634                   24062439.9964
  15281350.48047  11907875.35944  22813318.2114                   22813318.3404
   9748003.30147   7601202.85245  22802078.5084                   22802074.6454
 -10610670.61747  -8267200.28945  22449643.4614                   22449640.6884
 -14764421.75847 -11503727.82445  21835886.2114                   21835883.3164
 11  8  1 19 28  0.0000000  0  9G17G24G07G08G26G13G19G28G11
   2796484.74647   2198507.34044  23964862.7424                   23964864.2704
  -2133760.09846  -1771723.56244  23047650.8984                   23047652.5004
  -8112064.90648  -6310545.08246  20355685.1564                   20355681.9774
 -15310661.35947 -11922807.70346  20957280.2274                   20957278.0164
   5992594.40246   4686490.89143  24040786.3204                   24040784.9224
  15357530.63747  11967236.38744  22827815.5704                   22827814.9924
   9809445.62947   7649079.96945  22813771.1644                   22813766.3594
 -10671746.32047  -8314791.72745  22438020.9774                   22438018.1294
 -14830674.72747 -11555353.48845  21823278.9534                   21823275.9844
 11  8  1 19 28 30.0000000  0  9G17G24G07G08G26G13G19G28G11
   2666062.27747   2096879.67244  23940044.6024                   23940045.2664
  -2230673.32446  -1847240.22744  23029208.5634                   23029210.1644
  -8149292.41048  -6339553.52047  20348600.9924                   20348597.5354
 -15399753.33248 -11992229.99246  20940326.5944                   20940324.0514
   5879214.20746   4598142.74643  24019210.0944                   24019209.9614
  15433879.43447  12026728.83644  22842343.7344                   22842343.9264
   9871159.82847   7697168.93445  22825513.7034                   22825509.7424
 -10732721.29747  -8362304.65645  22426417.8914                   22426415.3444
 -14896444.32447 -11606602.48845  21810763.2114                   21810760.5354
 11  8  1 19 29  0.0000000  0  9G17G24G07G08G26G13G19G28G11
   2535807.55547   1995382.73444  23915257.4144                   23915258.5044
  -2327361.44546  -1922581.47344  23010809.1174                   23010810.5904
  -8186118.12948  -6368248.88347  20341593.0704                   20341589.9804
 -15488608.83248 -12061468.02046  20923417.9844                   20923415.5044
   5766245.75046   4510115.42643  23997713.2274                   23997712.3134
  15510391.70747  12086348.65644  22856903.7034                   22856903.3324
   9933140.28547   7745465.37945  22837308.9614                   22837304.9694
 -10793598.68047  -8409741.54345  22414833.5474                   22414830.3954
 -14961730.62548 -11657474.90645  21798339.8754                   21798337.2464
 11  8  1 19 29 30.0000000  0  9G17G24G07G08G26G13G19G28G11
   2405721.85247   1894017.44144  23890502.8984                   23890503.4924
  -2423822.48046  -1997745.75044  22992452.9384                   22992454.2734
  -8222541.70748  -6396630.88747  20334662.0314                   20334658.6024
 -15577225.90248 -12130520.25846  20906554.6644                   20906552.2384
   5653691.22746   4422410.66043  23976295.6414                   23976294.6054
  15587063.66447  12146092.91844  22871494.1024                   22871493.9734
   9995383.63347   7793966.66045  22849153.6024                   22849150.1094
 -10854380.10247  -8457103.66045  22403267.2194                   22403264.5124
 -15026532.57447 -11707969.91445  21786008.7194                   21786005.5864
 11  8  1 19 30  0.0000000  0  9G17G24G07G08G26G13G19G28G11
   2275807.03547   1792785.33644  23865780.6024                   23865781.5634
  -2520053.61346  -2072730.90244  22974140.6954                   22974142.0704
  -8258562.13747  -6424698.74647  20327807.5084                   20327804.4494
 -15665602.75448 -12199385.30946  20889737.3524                   20889734.4574
   5541552.53146   4335029.91443  23954955.0944                   23954955.3484
  15663891.87547  12205958.91844  22886114.2424                   22886113.5634
  10057886.46947   7842670.15645  22861047.3914                   22861043.0084
 -10915066.65248  -8504391.84045  22391719.1094                   22391715.9614
 -15090848.23847 -11758085.99245  21773769.1334                   21773766.8094
 11  8  1 19 30 30.0000000  0  9G17G24G07G08G26G13G19G28G11
   2146065.88747   1691688.55544  23841091.2504                   23841092.3984
  -2616050.58247  -2147533.61344  22955873.2894                   22955874.6054
  -8294176.59848  -6452450.27747  20321030.4224                   20321026.8834
 -15753735.38748 -12268060.07046  20872966.1564                   20872963.8714
   5429833.95347   4247976.54744  23933696.3134                   23933695.8874
  15740874.41047  12265945.16844  22900763.5084                   22900762.5164
  10120647.10947   7891574.52045  22872990.5864                   22872986.1914
 -10975657.96547  -8551605.82445  22380188.9384                   22380185.7584
 -15154674.70747 -11807820.88345  21761624.1254                   21761621.0594
 11  8  1 19 31  0.0000000  0  9G17G24G07G08G26G13G19G28G11
   2016498.16447   1590726.91844  23816435.4384                   23816436.7194
  -2711812.57047  -2222153.23044  22937651.0164                   22937651.1134
  -8329385.60548  -6479885.86347  20314330.5084                   20314326.9184
 -15841624.03548 -12336544.72346  20856241.1724                   20856239.1804
   5318535.62947   4161250.62143  23912517.6094                   23912515.8594
  15818005.97347  12326047.54344  22915441.3364                   22915440.3324
  10183660.90647   7940676.16445  22884981.2894                   22884976.9774
 -11036157.24647  -8598748.09845  22368676.0944                   22368673.0434
 -15218012.14547 -11857174.71545  21749570.7424                   21749567.9694
 11  8  1 19 31 30.0000000  0  9G17G24G07G08G26G13G19G28G11
   1887107.89847   1489903.54744  23791812.9614                   23791814.4064
  -2807334.65647  -2296585.91444  22919473.0554                   22919473.9184
  -8364185.99248  -6507003.04347  20307708.1954                   20307704.8444
 -15929264.46948 -12404835.94946  20839564.2344                   20839561.6884
   5207662.03946   4074855.67243  23891417.7344                   23891417.1484
  15895285.07847  12386264.87544  22930146.6724                   22930146.6414
  10246926.69547   7989974.15245  22897020.4924                   22897016.3634
 -11096563.45747  -8645817.84045  22357180.7504                   22357177.8444
 -15280856.59447 -11906144.38745  21737611.8134                   21737609.0704
 11  8  1 19 32  0.0000000  0  9G17G24G07G08G26G13G19G28G11
   1757895.51246   1389218.77344  23767224.5004                   23767225.2154
  -2902614.96946  -2370830.19944  22901342.4614                   22901343.0004
  -8398577.43748  -6533801.57847  20301163.6094                   20301160.4654
 -16016655.04748 -12472932.49646  20822934.0944                   20822931.5314
   5097214.48046   3988792.77743  23870400.7664                   23870400.1174
  15972707.72347  12446594.08644  22944879.9304                   22944879.5864
  10310440.23447   8039465.18445  22909106.8054                   22909102.3794
 -11156878.49647  -8692816.54745  22345703.8134                   22345700.5744
 -15343207.35247 -11954729.35545  21725746.2974                   21725743.5164
 11  8  1 19 32 30.0000000  0  9G17G24G07G08G26G13G19G28G11
   1628861.02346   1288672.61344  23742669.8594                   23742670.7234
  -2997652.64846  -2444885.43444  22883256.2034                   22883257.5514
  -8432560.32448  -6560281.73847  20294696.8834                   20294693.7274
 -16103795.49248 -12540834.12946  20806351.8914                   20806349.5274
   4987193.96946   3903062.56343  23849464.7664                   23849464.2034
  16050268.80947  12507031.14544  22959639.9384                   22959639.0704
  10374196.64147   8089145.46145  22921239.3914                   22921236.3914
 -11217105.47347  -8739746.62145  22334242.5164                   22334239.3984
 -15405064.39547 -12002929.62145  21713975.8524                   21713972.7304
 11  8  1 19 33  0.0000000  0  9G17G24G07G08G26G13G19G28G11
   1500004.65246   1188265.22344  23718148.9384                   23718150.2734
  -3092446.18047  -2518750.43744  22865218.1094                   22865218.4064
  -8466135.22748  -6586443.99247  20288307.6024                   20288304.7034
 -16190685.28548 -12608540.45746  20789817.2504                   20789814.8134
   4877601.12546   3817665.58643  23828608.9064                   23828608.1884
  16127963.36347  12567572.19144  22974424.2814                   22974424.6054
  10438191.48847   8139011.53545  22933417.1954                   22933413.8054
 -11277246.96947  -8786610.10245  22322798.3834                   22322795.0354
 -15466427.76647 -12050745.20745  21702298.7664                   21702295.6374
 11  8  1 19 33 30.0000000  0  9G17G24G07G08G26G13G19G28G11
   1371330.75447   1088000.04344  23693662.8364                   23693664.6844
  -3186990.29747  -2592421.08644  22847226.3834                   22847227.6994
  -8499298.53948  -6612285.52047  20281996.8524                   20281993.7584
 -16277319.18748 -12676047.36746  20773331.5474                   20773328.7974
   4768440.78946   3732605.64543  23807837.0004                   23807835.8524
  16205790.80147  12628216.78944  22989234.9144                   22989234.3484
  10502424.68047   8189063.35245  22945640.8754                   22945636.2194
 -11337301.13347  -8833405.53945  22311369.9694                   22311366.9184
 -15527293.39147 -12098172.93745  21690716.2814                   21690713.1524
 11  8  1 19 34  0.0000000  0  9G17G24G07G08G26G13G19G28G11
   1242838.22747    987876.21544  23669212.1254                   23669212.6804
  -3281284.55147  -2665897.03944  22829282.7664                   22829283.6604
  -8532051.23048  -6637807.09046  20275764.1414                   20275761.1484
 -16363698.01248 -12743355.54346  20756894.0474                   20756891.2664
   4659712.85547   3647882.69143  23787146.4844                   23787145.8324
  16283745.53547  12688960.57044  23004069.4304                   23004069.1174
  10566890.52047   8239296.43845  22957907.9144                   22957903.2814
 -11397271.61747  -8880135.76245  22299958.0314                   22299955.2774
 -15587661.96547 -12145213.35945  21679228.8444                   21679225.5514
 11  8  1 19 34 30.0000000  0  9G17G24G07G08G26G13G19G28G11
   1114531.97747    887897.50845  23644796.0234                   23644796.7894
  -3375322.97747  -2739173.62544  22811388.3284                   22811388.9104
  -8564389.15648  -6663005.45347  20269610.4144                   20269607.1604
 -16449816.19148 -12810460.60546  20740506.4144                   20740503.8794
   4551422.94147   3563500.94143  23766540.3594                   23766538.3134
  16361827.10947  12749803.19544  23018927.4224                   23018927.3554
  10631588.97347   8289710.79345  22970219.6644                   22970215.0554
 -11457156.29747  -8926799.11745  22288562.1564                   22288558.7974
 -15647528.36747 -12191862.48045  21667835.9774                   21667833.7114
 11  8  1 19 35  0.0000000  0  9G17G24G07G08G26G13G19G28G11
    986412.27047    788064.15244  23620414.8914                   23620416.3014
  -3469104.36347  -2812249.95344  22793541.7664                   22793542.9494
  -8596312.76648  -6687880.98847  20263535.8134                   20263532.2384
 -16535673.10248 -12877362.09046  20724167.9774                   20724165.7854
   4443571.62146   3479461.02743  23746015.8754                   23746015.0164
  16440030.64847  12810740.83244  23033809.7504                   23033809.5664
  10696515.48047   8340302.84845  22982574.3134                   22982570.7504
 -11516957.73847  -8973397.62145  22277182.4224                   22277179.4694
 -15706893.23447 -12238120.78545  21656539.7344                   21656537.0704
 11  8  1 19 35 30.0000000  0  9G17G24G07G08G26G13G19G28G11
    858480.83247    688377.53544  23596070.6564                   23596071.1294
  -3562625.63346  -2885123.56644  22775744.0784                   22775745.5784
  -8627820.76248  -6712432.66847  20257539.9384                   20257536.8874
 -16621266.51648 -12944058.23446  20707880.1804                   20707877.8754
   4336161.50047   3395764.91443  23725576.4064                   23725576.6764
  16518353.16847  12871771.20344  23048714.3134                   23048713.9734
  10761667.27047   8391070.42645  22994972.9454                   22994967.8244
 -11576676.99247  -9019932.09045  22265818.1884                   22265815.3524
 -15765754.28547 -12283986.51245  21645338.6254                   21645335.8484
 11  8  1 19 36  0.0000000  0  9G17G24G07G08G26G13G19G28G11
    730743.92247    588842.46944  23571762.9774                   23571763.1214
  -3655879.43747  -2957788.77744  22757999.5084                   22758000.2114
  -8658907.45747  -6736656.06247  20251624.2814                   20251620.7274
 -16706589.57448 -13010543.72346  20691643.9534                   20691641.3244
   4229199.26247   3312417.75043  23705222.6724                   23705220.3634
  16596795.82847  12932895.16444  23063640.6564                   23063641.9024
  10827045.96547   8442014.83244  23007413.3914                   23007409.6524
 -11636310.44147  -9066399.69945  22254470.5234                   22254467.0274
 -15824105.51647 -12329454.97345  21634234.3054                   21634231.7974
 11  8  1 19 36 30.0000000  0  9G17G24G07G08G26G13G19G28G11
    603201.66047    489459.08644  23547492.8444                   23547492.8094
  -3748864.22347  -3030244.37944  22740305.2194                   22740305.8404
  -8689573.18448  -6760551.44547  20245788.7664                   20245785.7974
 -16791641.15648 -13076817.67246  20675459.0164                   20675456.7704
   4122686.08647   3229420.50843  23684953.9614                   23684952.3134
  16675354.03547  12994109.14844  23078590.2584                   23078590.5314
  10892646.82047   8493132.34045  23019897.4924                   23019893.6994
 -11695860.77347  -9112802.52745  22243138.3054                   22243135.2074
 -15881946.93747 -12374526.18045  21623227.6094                   21623225.1294
 11  8  1 19 37  0.0000000  0  9G17G24G07G08G26G13G19G28G11
    475856.09447    390228.94144  23523259.4844                   23523259.6454
  -3841577.01247  -3102488.00844  22722662.4304                   22722663.7274
  -8719816.42247  -6784117.60247  20240033.7034                   20240030.1564
 -16876418.84048 -13142878.18046  20659326.1804                   20659323.8834
   4016624.43447   3146775.10943  23664770.9224                   23664769.5274
  16754024.74647  13055410.82044  23093561.0554                   23093561.3364
  10958466.99647   8544420.77344  23032422.7344                   23032418.1564
 -11755328.23047  -9159140.77745  22231822.1024                   22231818.5594
 -15939276.34447 -12419198.41045  21612318.4614                   21612315.4964
 11  8  1 19 37 30.0000000  0  9G17G24G07G08G26G13G19G28G11
    348710.81347    291154.89544  23499064.4304                   23499064.1334
  -3934012.90647  -3174515.90644  22705072.6484                   22705073.1214
  -8749633.60248  -6807351.77347  20234359.7664                   20234356.3364
 -16960918.40248 -13208721.99246  20643247.0084                   20643244.2034
   3911018.61746   3064484.92243  23644674.3284                   23644673.5204
  16832806.91447  13116799.34444  23108553.0554                   23108553.1214
  11024506.33247   8595879.94945  23044989.4694                   23044985.3444
 -11814711.87947  -9205413.72745  22220521.7274                   22220518.9654
 -15996090.85247 -12463469.42245  21601507.0944                   21601503.4574
 11  8  1 19 38  0.0000000  0  9G17G24G07G08G26G13G19G28G11
    221769.24247    192239.56644  23474908.1484                   23474907.5944
  -4026167.77347  -3246324.78944  22687536.1564                   22687536.3204
  -8779022.58248  -6830252.29347  20228767.0314                   20228763.9184
 -17045136.30148 -13274346.30946  20627220.6484                   20627218.0124
   3805872.48847   2982552.92243  23624666.8914                   23624665.3164
  16911698.76647  13178273.32443  23123564.7664                   23123566.1484
  11090763.07446   8647508.57045  23057597.1334                   23057592.7664
 -11874011.24247  -9251621.00045  22209237.1644                   22209234.6054
 -16052386.88347 -12507336.42645  21590794.4384                   21590790.5554
 11  8  1 19 38 30.0000000  0  9G17G24G07G08G26G13G19G28G11
     95029.85547     93481.78144  23450789.7894                   23450789.7034
  -4118042.26246  -3317915.19544  22670052.5554                   22670052.9534
  -8807985.75048  -6852820.98447  20223255.4224                   20223252.6024
 -17129073.15648 -13339751.62546  20611247.7344                   20611245.6214
   3701184.58646   2900978.03144  23604743.6254                   23604744.2114
  16990693.73447  13239827.62544  23138597.9844                   23138598.3094
  11157230.58647   8699301.41844  23070245.5784                   23070241.8954
 -11933230.64147  -9297765.96145  22197968.1564                   22197965.2624
 -16108166.28547 -12550800.87945  21580179.6024                   21580176.4384
 11  8  1 19 39  0.0000000  0  9G17G24G07G08G26G13G19G28G11
    -31502.19547     -5114.43744  23426711.6724                   23426711.8134
  -4209629.39147  -3389281.69944  22652624.3444                   22652624.9534
  -8836517.91848  -6875053.85247  20217826.1334                   20217822.9844
 -17212722.94548 -13404933.26646  20595329.8364                   20595327.4694
   3596961.39147   2819765.19943  23584911.0084                   23584910.7424
  17069792.37947  13301462.74243  23153650.5394                   23153650.3444
  11223910.27046   8751259.55545  23082935.0554                   23082931.3054
 -11992367.23847  -9343846.39845  22186714.6174                   22186711.8244
 -16163423.89847 -12593858.71945  21569664.7344                   21569661.3714
 11  8  1 19 39 30.0000000  0  9G17G24G07G08G26G13G19G28G11
   -157819.73447   -103543.47744  23402673.8444                   23402674.2584
  -4300920.85247  -3460417.81244  22635252.7344                   22635252.2344
  -8864612.22748  -6896945.52347  20212479.9304                   20212477.1604
 -17296077.67248 -13469884.97346  20579467.7814                   20579465.3444
   3493210.84846   2738920.65643  23565168.2194                   23565167.1094
  17148997.37147  13363180.70744  23168722.5864                   23168722.5944
  11290804.43047   8803384.87145  23095664.0234                   23095660.2504
 -12051416.28147  -9389858.60545  22175478.3524                   22175475.0984
 -16218152.29747 -12636504.18045  21559250.3284                   21559246.9654
 11  8  1 19 40  0.0000000  0  9G17G24G07G08G26G13G19G28G11
   -283926.95747   -201808.64144  23378676.6174                   23378677.0314
  -4391920.34447  -3531326.44944  22617936.0084                   22617935.6174
  -8892273.91848  -6918500.08646  20207216.1644                   20207213.0634
 -17379141.66048 -13534610.14546  20563661.6954                   20563658.8364
   3389928.43847   2658440.92243  23545514.2814                   23545513.2384
  17228298.81647  13424973.80143  23183813.7344                   23183814.3834
  11357904.03946   8855670.23444  23108432.8204                   23108428.2034
 -12110385.04347  -9435808.25445  22164256.7504                   22164253.7894
 -16272356.70347 -12678741.32845  21548935.1804                   21548931.7664
 11  8  1 19 40 30.0000000  0  9G17G24G07G08G26G13G19G28G11
   -409825.57047   -299911.25844  23354718.1644                   23354718.4654
  -4482627.60947  -3602007.35544  22600674.4454                   22600674.1174
  -8919505.10548  -6939719.19547  20202034.1804                   20202031.0664
 -17461915.31248 -13599109.08246  20547910.1884                   20547907.2304
   3287113.98447   2578325.81344  23525949.8284                   23525948.5164
  17307690.71947  13486837.40644  23198921.3364                   23198921.3874
  11425203.14146   8908111.05545  23121240.1334                   23121236.2384
 -12169277.38747  -9481698.37545  22153050.1884                   22153046.7774
 -16326038.69947 -12720571.40645  21538719.1094                   21538716.8794
 11  8  1 19 41  0.0000000  0  9G17G24G07G08G26G13G19G28G11
   -535509.95747   -397846.96944  23330801.6094                   23330800.9614
  -4573035.98047  -3672455.35544  22583470.4304                   22583469.2424
  -8946300.77348  -6960598.94547  20196934.7424                   20196931.8954
 -17544392.47748 -13663376.98046  20532215.3134                   20532212.8284
   3184773.43446   2498579.96944  23506474.2894                   23506473.5434
  17387173.62947  13548771.93444  23214047.4064                   23214047.4774
  11492702.41846   8960707.86344  23134084.2734                   23134080.5434
 -12228090.39147  -9527526.66845  22141858.1564                   22141855.3874
 -16379192.89147 -12761990.21545  21528604.9384                   21528602.4804
 11  8  1 19 41 30.0000000  0  9G17G24G07G08G26G13G19G28G11
   -660975.42647   -495612.05144  23306926.0314                   23306926.4344
  -4663139.91446  -3742666.12944  22566323.5474                   22566323.4574
  -8972656.66048  -6981136.00847  20191919.7274                   20191916.6914
 -17626567.86748 -13727409.73046  20516577.7814                   20516575.3754
   3082911.90246   2419207.42644  23487090.7114                   23487090.3874
  17466747.76647  13610777.53544  23229189.1484                   23229190.2934
  11560402.14147   9013460.84045  23146966.8674                   23146963.4924
 -12286822.13747  -9573291.64145  22130681.9064                   22130678.8554
 -16431814.88347 -12802994.33245  21518591.3594                   21518587.9574
 11  8  1 19 42  0.0000000  0  9G17G24G07G08G26G13G19G28G11
   -786225.13747   -593209.03545  23283091.8444                   23283092.0704
  -4752941.54746  -3812641.33644  22549234.4144                   22549234.5744
  -8998576.93048  -7001333.62547  20186987.2274                   20186984.3094
 -17708444.23048 -13791209.48046  20500997.1644                   20500994.5234
   2981526.61346   2340205.98444  23467797.7034                   23467797.0124
  17546404.86747  13672847.75844  23244347.4844                   23244348.8444
  11628294.57046   9066363.99644  23159886.3444                   23159882.8284
 -12345478.27347  -9618997.68445  22119520.1094                   22119517.1524
 -16483908.28148 -12843586.55545  21508678.0314                   21508674.9614
 11  8  1 19 42 30.0000000  0  9G17G24G07G08G26G13G19G28G11
   -911255.93447   -690635.43745  23259299.3284                   23259299.2894
  -4842436.19147  -3882377.33644  22532204.9304                   22532204.9384
  -9024058.75048  -7021189.59847  20182138.2344                   20182135.0084
 -17790017.54748 -13854773.09846  20485474.5234                   20485471.7274
   2880621.40646   2261578.60944  23448595.9144                   23448595.0664
  17626143.49247  13734981.52344  23259521.3204                   23259522.3594
  11696378.66446   9119416.48444  23172842.3284                   23172839.4064
 -12404058.01647  -9664644.21145  22108372.7504                   22108370.1454
 -16535470.18048 -12883764.62545  21498866.2274                   21498863.2384
 11  8  1 19 43  0.0000000  0  9G17G24G07G08G26G13G19G28G11
  -1036065.26247   -787889.30144  23235548.3284                   23235548.3754
  -4931620.15647  -3951871.25044  22515233.7894                   22515233.0434
  -9049100.08648  -7040702.33646  20177372.9144                   20177369.8874
 -17871284.43748 -13918097.92646  20470009.5234                   20470007.2344
   2780199.60247   2183327.90644  23429486.7664                   23429485.7504
  17705961.21947  13797176.93044  23274710.5314                   23274710.9964
  11764652.21947   9172616.61345  23185834.7034                   23185831.1804
 -12462561.44548  -9710231.27345  22097239.5394                   22097236.7974
 -16586498.02747 -12923526.55545  21489156.1334                   21489152.2344
 11  8  1 19 43 30.0000000  0  9G17G24G07G08G26G13G19G28G11
  -1160651.13747   -884969.03144  23211840.0234                   23211840.2544
  -5020490.50047  -4021120.77044  22498321.9384                   22498321.6484
  -9073699.77048  -7059870.92246  20172691.9844                   20172688.8674
 -17952242.13348 -13981181.84446  20454603.7734                   20454601.5704
   2680263.36347   2105455.58644  23410469.3834                   23410468.4574
  17785855.01247  13859431.57443  23289913.7034                   23289915.4924
  11833112.37946   9225962.15244  23198862.3054                   23198858.1684
 -12520989.07048  -9755759.26645  22086121.2034                   22086118.3834
 -16636990.45747 -12962871.28945  21479547.5704                   21479544.2424
 11  8  1 19 44  0.0000000  0  9G17G24G07G08G26G13G19G28G11
  -1285009.63747   -981871.60944  23188175.6254                   23188175.4734
  -5109041.89547  -4090121.79344  22481471.2344                   22481470.3484
  -9097854.45348  -7078692.75447  20168095.4224                   20168091.9224
 -18032886.17648 -14044021.33646  20439257.5164                   20439255.1564
   2580817.33247   2027965.21944  23391544.9064                   23391543.6054
  17865824.39547  13921745.14843  23305131.6414                   23305132.9414
  11901759.31346   9279453.23844  23211925.1414                   23211921.5204
 -12579339.57448  -9801227.16445  22075017.6724                   22075014.7544
 -16686943.67648 -13001795.83245  21470041.8524                   21470038.9964
 11  8  1 19 44 30.0000000  0  9G17G24G07G08G26G13G19G28G11
  -1409142.53947  -1078598.38745  23164553.9614                   23164553.8874
  -5197275.32447  -4158875.03144  22464680.6724                   22464679.9774
  -9121566.89848  -7097169.99647  20163583.2034                   20163579.9924
 -18113218.02348 -14106617.57846  20423971.0944                   20423968.4734
   2481860.04347   1950855.70344  23372714.2344                   23372713.0984
  17945862.65647  13984112.35244  23320362.4304                   23320364.2424
  11970586.27046   9333084.61344  23225022.9844                   23225018.8054
 -12637617.20748  -9846638.28145  22063927.8984                   22063924.4344
 -16736360.11747 -13040302.11745  21460637.9844                   21460634.7034
 11  8  1 19 45  0.0000000  0  9G17G24G07G08G26G13G19G28G11
     42379.69547     52458.06344  23440768.5784                   23440768.6914
  -3709761.14547  -2999772.99644  22747745.1564                   22747744.8754
  -7569411.19148  -5887698.00846  20458948.6564                   20458945.3444
 -16617808.24248 -12941363.19146  20708538.1954                   20708535.4804
   3958820.76247   3101734.25043  23653770.5084                   23653769.1604
  19601387.96147  15274131.79743  23635399.2974                   23635399.7384
  13615012.02747  10614455.28944  23537947.3204                   23537943.3594
 -11120396.99648  -8664388.75845  22352644.7894                   22352641.8244
 -15209812.89147 -11850784.75845  21751130.0234                   21751127.3404
 11  8  1 19 45 30.0000000  0  9G17G24G07G08G26G13G19G28G11
    -81291.62947    -43909.09445  23417235.2584                   23417235.0004
  -3797344.27347  -3068019.55945  22731078.5634                   22731078.8874
  -7592229.74248  -5905478.69947  20454606.0944                   20454603.1174
 -16697501.96148 -13003462.18446  20693372.8364                   20693370.2504
   3860853.17247   3025395.89844  23635128.1884                   23635126.5594
  19681560.51247  15336603.68043  23650655.5084                   23650656.3524
  13684196.37146  10668365.12144  23551111.5164                   23551109.1334
 -11178525.60548  -8709683.75845  22341583.9774                   22341580.6764
 -15258146.03147 -11888446.91845  21741932.8674                   21741930.0664
 11  8  1 19 46  0.0000000  0  9G17G24G07G08G26G13G19G28G11
   -204730.10947   -140094.78945  23393745.6174                   23393745.1994
  -3884598.66847  -3136009.92644  22714475.1414                   22714474.0784
  -7614600.39148  -5922910.36747  20450349.1884                   20450346.0164
 -16776873.32048 -13065309.98446  20678269.0084                   20678266.9104
   3763383.23847   2949445.37144  23616580.1564                   23616578.3984
  19761794.96947  15399123.77043  23665923.4144                   23665924.9454
  13753554.69146  10722410.52344  23564310.4534                   23564306.2194
 -11236581.46947  -8754922.07045  22330535.6724                   22330532.9144
 -15305936.02347 -11925685.84045  21732838.7274                   21732835.2544
 11  8  1 19 46 30.0000000  0  9G17G24G07G08G26G13G19G28G11
   -327936.08247   -236099.31245  23370300.7584                   23370299.9534
  -3971523.69547  -3203743.64844  22697933.2424                   22697932.6994
  -7636524.21148  -5939993.86747  20446177.2274                   20446174.1374
 -16855922.50448 -13126906.75046  20663226.4304                   20663224.0204
   3666410.90647   2873882.57444  23598126.6024                   23598125.9454
  19842086.16447  15461688.08243  23681203.0474                   23681203.4534
  13823082.24246  10776587.78944  23577540.8754                   23577537.4924
 -11294567.63347  -8800106.08245  22319501.2894                   22319498.6174
 -15353183.98847 -11962502.39845  21723847.6804                   21723844.5784
 11  8  1 19 47  0.0000000  0  9G17G24G07G08G26G13G19G28G11
   -450906.96147   -331920.65245  23346899.4924                   23346899.1174
  -4058115.16447  -3271217.46544  22681456.1724                   22681454.9804
  -7657999.02348  -5956727.47747  20442091.0004                   20442088.0314
 -16934646.03548 -13188249.74646  20648246.0314                   20648243.9184
   3569939.48447   2798710.09044  23579768.5784                   23579768.3874
  19922432.27347  15524295.19543  23696492.3134                   23696492.8554
  13892777.25446  10830895.57044  23590803.8054                   23590800.0234
 -11352483.36747  -8845235.21145  22308480.5084                   22308477.8094
 -15399887.23848 -11998894.50045  21714960.2194                   21714957.2194
 11  8  1 19 47 30.0000000  0  9G17G24G07G08G26G13G19G28G11
   -573644.29747   -427560.00844  23323542.8364                   23323542.6524
  -4144373.69547  -3338431.85544  22665041.2114                   22665040.9574
  -7679027.30948  -5973113.14847  20438089.1414                   20438086.1644
 -17013044.37948 -13249339.35946  20633327.2194                   20633324.4064
   3473967.73447   2723926.96543  23561506.0234                   23561504.8094
  20002826.89547  15586940.11743  23711791.0864                   23711792.0944
  13962633.82446  10885329.21944  23604096.2274                   23604094.0394
 -11410333.12547  -8890312.92645  22297472.0004                   22297469.0704
 -15446047.81248 -12034863.73845  21706176.2034                   21706173.4064
 11  8  1 19 48  0.0000000  0  9G17G24G07G08G26G13G19G28G11
   -696142.16447   -523012.75045  23300232.5164                   23300232.4884
  -4230292.31647  -3405381.38744  22648691.5164                   22648690.2274
  -7699603.82048  -5989146.78547  20434173.6094                   20434170.5704
 -17091111.06248 -13310170.53146  20618471.5234                   20618468.9964
   3378501.74647   2649537.87143  23543339.2504                   23543336.4614
  20083271.17247  15649623.69543  23727099.6484                   23727101.2424
  14032653.26246  10939889.78144  23617421.2344                   23617418.0864
 -11468113.59447  -8935336.65245  22286476.7974                   22286474.2544
 -15491661.01648 -12070406.47745  21697496.4454                   21697492.9184
 11  8  1 19 48 30.0000000  0  9G17G24G07G08G26G13G19G28G11
   -818396.00847   -618275.35945  23276968.3914                   23276967.9184
  -4315865.03947  -3472061.38344  22632407.8834                   22632406.5514
  -7719724.90648  -6004825.56247  20430344.8204                   20430341.6564
 -17168840.46148 -13370738.88346  20603680.1564                   20603677.6334
   3283546.82846   2575547.10543  23525269.1174                   23525268.5744
  20163765.31647  15712346.14543  23742417.2584                   23742417.9064
  14102835.85246  10994577.44944  23630776.3134                   23630773.3754
 -11525822.02047  -8980304.23845  22275495.2274                   22275492.0944
 -15536722.05948 -12105518.94545  21688921.3834                   21688918.2154
 11  8  1 19 49  0.0000000  0  9G17G24G07G08G26G13G19G28G11
   -940407.94947   -713349.45744  23253750.4694                   23253749.2934
  -4401092.76247  -3538472.54344  22616189.4694                   22616188.2584
  -7739392.89848  -6020151.26247  20426602.1644                   20426599.1334
 -17246234.28148 -13431045.75046  20588953.1414                   20588950.0274
   3189101.25447   2501953.19543  23507297.5314                   23507295.9804
  20244302.52747  15775102.15643  23757743.1724                   23757744.4844
  14173175.45346  11049387.46944  23644161.6564                   23644158.1454
 -11583462.93447  -9025219.21545  22264526.3364                   22264523.0984
 -15581233.28948 -12140202.99646  21680451.4924                   21680448.4964
 11  8  1 19 49 30.0000000  0  9G17G24G07G08G26G13G19G28G11
  -1062174.16447   -808232.09844  23230578.3284                   23230577.8014
  -4485970.70347  -3604611.16845  22600037.3984                   22600037.3444
  -7758604.94148  -6035121.68746  20422946.2034                   20422943.0204
 -17323288.08648 -13491087.66846  20574289.8754                   20574287.2304
   3095169.30546   2428759.50443  23489422.0784                   23489421.3714
  20324881.84847  15837890.95344  23773077.2424                   23773078.1094
  14243671.31647  11104319.27744  23657577.2504                   23657573.1884
 -11641035.03147  -9070080.58245  22253570.5944                   22253567.8204
 -15625192.13748 -12174456.61746  21672086.5704                   21672082.7814
 11  8  1 19 50  0.0000000  0  9G17G24G07G08G26G13G19G28G11
  -1183693.50046   -902922.37944  23207454.0394                   23207453.7544
  -4570496.49647  -3670475.37944  22583952.8134                   22583951.6804
  -7777360.52748  -6049736.43446  20419377.0944                   20419374.2114
 -17399999.70748 -13550862.95746  20559692.2584                   20559689.6134
   3001752.45346   2355967.20743  23471645.9144                   23471644.6804
  20405499.62947  15900709.73044  23788417.6254                   23788420.4964
  14314320.43447  11159370.45745  23671021.3364                   23671017.8794
 -11698539.57848  -9114889.29345  22242628.0234                   22242624.9144
 -15668597.27048 -12208278.77045  21663826.8204                   21663822.8324
 11  8  1 19 50 30.0000000  0  9G17G24G07G08G26G13G19G28G11
  -1304961.83247   -997417.03145  23184377.2584                   23184376.7074
  -4654665.34847  -3736061.44144  22567936.0084                   22567935.3714
  -7795656.56648  -6063993.08646  20415895.4774                   20415892.3674
 -17476364.12548 -13610367.68446  20545160.3914                   20545157.8444
   2908855.02346   2283579.61743  23453968.1414                   23453967.1094
  20486155.21947  15963557.94143  23803766.7274                   23803768.8284
  14385121.93847  11214540.40245  23684494.4534                   23684490.8284
 -11755975.03147  -9159644.17645  22231698.2274                   22231695.3874
 -15711446.05948 -12241667.40645  21655672.8364                   21655669.1414
 11  8  1 19 51  0.0000000  0  9G17G24G07G08G26G13G19G28G11
  -1425980.12947  -1091716.86345  23161348.5234                   23161347.3954
  -4738476.74647  -3801368.98845  22551987.5554                   22551985.2934
  -7813494.25448  -6077892.57846  20412500.9924                   20412497.8204
 -17552381.52748 -13669602.01646  20530694.3984                   20530692.1214
   2816476.46546   2211596.39843  23436389.1094                   23436387.7974
  20566843.66846  16026431.74243  23819121.6414                   23819123.1094
  14456071.13347  11269825.47344  23697995.5784                   23697990.8324
 -11813344.51248  -9204347.65245  22220781.3364                   22220778.2734
 -15753739.45348 -12274623.28145  21647624.1724                   21647621.1174
 11  8  1 19 51 30.0000000  0  9G17G24G07G08G26G13G19G28G11
  -1546746.10947  -1185820.09445  23138366.9534                   23138366.5204
  -4821927.25847  -3866395.29744  22536107.0234                   22536104.9384
  -7830872.20748  -6091433.85546  20409194.0314                   20409190.8014
 -17628048.92248 -13728563.61346  20516296.0554                   20516293.0784
   2724619.67646   2140019.71543  23418908.8984                   23418907.8834
  20647562.57047  16089329.25043  23834481.9224                   23834483.9574
  14527166.20747  11325224.18444  23711523.8834                   23711520.0044
 -11870647.79747  -9248999.53946  22209876.9924                   22209873.9344
 -15795475.59447 -12307144.92245  21639682.3524                   21639679.2074
 11  8  1 19 52  0.0000000  0  9G17G24G07G08G26G13G19G28G11
  -1667258.02347  -1279725.35245  23115434.7424                   23115433.3594
  -4905014.07447  -3931138.19944  22520296.4924                   22520294.3164
  -7847789.78148  -6104616.38347  20405975.0004                   20405971.7304
 -17703363.71948 -13787250.46146  20501963.7584                   20501961.3054
   2633286.63746   2068851.15244  23401529.0394                   23401527.9614
  20728309.00846  16152248.23043  23849848.2034                   23849849.7664
  14598404.23447  11380734.27044  23725080.9694                   23725076.3364
 -11927885.91448  -9293600.65645  22198984.9384                   22198981.7304
 -15836653.63748 -12339231.69945  21631846.1024                   21631843.4224
 11  8  1 19 52 30.0000000  0  9G17G24G07G08G26G13G19G28G11
  -1787513.53147  -1373430.80545  23092550.8204                   23092550.3244
  -4987733.15647  -3995594.55144  22504554.8284                   22504553.8444
  -7864244.73448  -6117438.43447  20402843.2114                   20402840.1054
 -17778322.21148 -13845659.66846  20487699.2894                   20487696.7734
   2542480.14146   1998092.89843  23384248.8364                   23384248.1294
  20809081.00046  16215187.11343  23865217.7734                   23865220.6564
  14669783.64147  11436354.56344  23738663.3834                   23738659.8984
 -11985058.14147  -9338150.43045  22188105.5784                   22188102.2154
 -15877271.43048 -12370881.91045  21624116.3984                   21624113.8364
 11  8  1 19 53  0.0000000  0  9G17G24G07G08G26G13G19G28G11
  -1907509.41047  -1466933.96145  23069715.5944                   23069715.2234
  -5070080.83647  -4059761.51244  22488885.0784                   22488884.0234
  -7880235.18748  -6129898.53147  20399800.7274                   20399797.8794
 -17852921.00848 -13903788.59846  20473503.6804                   20473501.5394
   2452203.58646   1927747.60244  23367069.8674                   23367068.4804
  20889876.54746  16278144.35243  23880593.9694                   23880596.5594
  14741303.00847  11492083.89544  23752272.8204                   23752270.2774
 -12042164.18748  -9382648.62946  22177238.5314                   22177235.0904
 -15917326.73048 -12402093.81645  21616494.5474                   21616491.8284
 11  8  1 19 53 30.0000000  0  9G17G24G07G08G26G13G19G28G11
  -2027242.71147  -1560232.52045  23046931.4384                   23046931.3754
  -5152052.83647  -4123635.72345  22473285.7504                   22473285.3554
  -7895758.68747  -6141994.77747  20396846.7894                   20396843.4064
 -17927155.83647 -13961633.91046  20459377.3834                   20459374.9614
   2362460.42646   1857817.86744  23349992.7424                   23349990.6644
  20970694.96547  16341119.40644  23895973.1804                   23895976.3014
  14812961.52746  11547921.62544  23765909.3284                   23765905.3834
 -12099203.07048  -9427094.49245  22166383.8754                   22166381.2894
 -15956817.04348 -12432865.47345  21608979.6254                   21608976.8094
 11  8  1 19 54  0.0000000  0  9G17G24G07G08G26G13G19G28G11
  -2146711.48047  -1653324.94945  23024197.3054                   23024196.5944
  -5233646.08247  -4187214.77045  22457759.0394                   22457759.1294
  -7910813.88348  -6153726.10547  20393981.8524                   20393978.8094
 -18001024.46548 -14019193.88346  20445320.6174                   20445318.4924
   2273252.75046   1788305.45744  23333016.8914                   23333015.9304
  21051533.00847  16404109.78543  23911356.6804                   23911358.3324
  14884756.63346  11603865.81343  23779571.6254                   23779566.8204
 -12156175.01647  -9471488.20345  22155542.8984                   22155540.0474
 -15995741.25048 -12463195.99645  21601572.9144                   21601569.5274
 11  8  1 19 54 30.0000000  0  9G17G24G07G08G26G13G19G28G11
  -2265912.30147  -1746208.58645  23001513.3984                   23001513.0084
  -5314856.16847  -4250495.25045  22442305.7504                   22442304.5314
  -7925398.29347  -6165090.58647  20391206.7664                   20391203.1804
 -18074522.39548 -14076464.99246  20431334.5554                   20431332.1174
   2184584.30946   1719213.21544  23316143.5234                   23316142.0864
  21132389.89546  16467114.82443  23926743.3984                   23926745.3324
  14956687.50446  11659915.79744  23793259.6414                   23793255.6604
 -12213078.75448  -9515828.77745  22144714.7034                   22144711.1844
 -16034096.57048 -12493083.25845  21594274.0704                   21594270.9144
 11  8  1 19 55  0.0000000  0  9G17G24G07G08G26G13G19G28G11
  -2384844.65647  -1838883.03545  22978881.2274                   22978880.5474
  -5395681.27047  -4313475.78945  22426924.5704                   22426924.4224
  -7939512.42647  -6176088.62946  20388520.7814                   20388517.4454
 -18147648.38748 -14133446.27746  20417419.0314                   20417416.8284
   2096455.89146   1650541.76244  23299373.6174                   23299372.2624
  21213261.46547  16530131.28143  23942133.0314                   23942135.8244
  15028750.86347  11716069.02044  23806973.1644                   23806969.9184
 -12269916.31248  -9560117.76645  22133898.6484                   22133894.9884
 -16071883.25048 -12522527.40245  21587083.5784                   21587080.4844
 11  8  1 19 55 30.0000000  0  9G17G24G07G08G26G13G19G28G11
  -2503510.19546  -1931349.57845  22956300.1254                   22956299.6454
  -5476121.74247  -4376156.59444  22411616.9694                   22411616.0044
  -7953158.31648  -6186721.79347  20385923.7504                   20385920.6214
 -18220402.58248 -14190137.84846  20403574.6094                   20403571.9024
   2008866.29346   1582290.18044  23282705.6484                   23282704.9304
  21294141.79747  16593154.63343  23957524.8364                   23957526.5864
  15100940.85946  11772320.91844  23820709.8914                   23820707.0784
 -12326691.32848  -9604358.02045  22123094.4844                   22123091.8444
 -16109103.34448 -12551530.05145  21580000.5234                   21579998.0204
 11  8  1 19 56  0.0000000  0  9G17G24G07G08G26G13G19G28G11
  -2621907.64547  -2023607.21945  22933770.4534                   22933769.5744
  -5556175.42247  -4438536.01245  22396382.9384                   22396382.8984
  -7966335.88348  -6196990.03147  20383416.1644                   20383412.9064
 -18292783.34048 -14246538.43746  20389801.1334                   20389798.2894
   1921816.83247   1514459.45344  23266141.0784                   23266139.2584
  21375027.48847  16656182.06343  23972916.1484                   23972918.8244
  15173254.32847  11828669.02044  23834471.4064                   23834467.0164
 -12383404.73847  -9648550.28145  22112302.5394                   22112299.3404
 -16145756.62948 -12580091.03945  21573026.1334                   21573022.7894
 11  8  1 19 56 30.0000000  0  9G17G24G07G08G26G13G19G28G11
  -2740034.03147  -2115653.66045  22911290.9384                   22911290.3014
  -5635838.11347  -4500610.74645  22381224.0474                   22381223.5234
  -7979042.89547  -6206891.60946  20380998.4304                   20380995.3594
 -18364786.85548 -14302645.06246  20376098.7814                   20376096.9144
   1835310.88347   1447052.23844  23249679.7034                   23249678.2384
  21455917.12947  16719212.64843  23988309.3284                   23988311.1844
  15245690.35947  11885112.64144  23848255.1564                   23848251.9344
 -12440055.72747  -9692693.89145  22101522.2194                   22101518.7894
 -16181840.58248 -12608208.37545  21566159.1024                   21566156.1374
 11  8  1 19 57  0.0000000  0  9G17G24G07G08G26G13G19G28G11
  -2857887.42247  -2207487.37545  22888864.2034                   22888863.2974
  -5715106.73047  -4562378.44545  22366139.6094                   22366139.6644
  -7991277.82048  -6216425.32446  20378669.9844                   20378666.9924
 -18436410.33248 -14358455.54746  20362469.1804                   20362466.8014
   1749350.66047   1380070.30144  23233321.5864                   23233319.8594
  21536808.73446  16782244.71143  24003701.9614                   24003705.8674
  15318246.85947  11941650.13744  23862062.4614                   23862058.6484
 -12496644.48047  -9736789.00445  22090753.1414                   22090750.4494
 -16217353.94147 -12635881.10945  21559401.1884                   21559398.1214
 11  8  1 19 57 30.0000000  0  9G17G24G07G08G26G13G19G28G11
  -2975465.94147  -2299106.91045  22866490.0944                   22866488.4614
  -5793978.75047  -4623837.10245  22351130.6414                   22351130.6914
  -8003040.19148  -6225590.83646  20376431.6954                   20376428.7194
 -18507650.97748 -14413967.72746  20348912.6954                   20348910.1134
   1663938.00847   1313515.01644  23217068.6724                   23217066.5824
  21617699.32846  16845275.96943  24019095.8834                   24019098.3364
  15390921.38747  11998279.55144  23875892.2274                   23875889.0904
 -12553171.41447  -9780835.94946  22079996.9924                   22079993.8754
 -16252295.93448 -12663108.63745  21552751.6094                   21552748.5744
 11  8  1 19 58  0.0000000  0  9G17G24G07G08G26G13G19G28G11
  -3092767.11747  -2390510.34045  22844168.1334                   22844167.3984
  -5872450.33247  -4684983.73445  22336198.1414                   22336198.3984
  -8014328.01648  -6234386.54747  20374283.6174                   20374280.4494
 -18578505.74648 -14469179.21946  20335429.6024                   20335427.6334
   1579075.67247   1247388.57044  23200918.9304                   23200917.7854
  21698587.07046  16908305.00043  24034488.6804                   24034491.8404
  15463712.26647  12054999.64144  23889743.6174                   23889740.3874
 -12609636.13347  -9824834.40646  22069252.1954                   22069249.1914
 -16286665.02048 -12689889.72745  21546211.7814                   21546208.5044
 11  8  1 19 58 30.0000000  0  9G17G24G07G08G26G13G19G28G11
  -3209792.00047  -2481698.48445  22821899.1174                   22821897.9574
  -5950521.30947  -4745818.19945  22321341.7424                   22321340.9264
  -8025143.13748  -6242813.92246  20372225.7424                   20372222.2704
 -18648974.15648 -14524089.66046  20322020.2894                   20322017.2234
   1494763.09047   1181690.46944  23184875.1804                   23184874.1054
  21779466.66046  16971327.65643  24049880.0474                   24049883.0784
  15536614.79747  12111806.76244  23903616.1804                   23903613.1374
 -12666041.52748  -9868786.64846  22058518.6724                   22058515.2344
 -16320462.64148 -12716225.52045  21539779.9694                   21539777.2424
 11  8  1 19 59  0.0000000  0  9G17G24G07G08G26G13G19G28G11
  -3326539.55147  -2572670.52045  22799682.6094                   22799681.5314
  -6028189.64147  -4806338.90245  22306561.8984                   22306561.7544
  -8035485.60248  -6250872.99246  20370257.6334                   20370254.4884
 -18719055.10948 -14578698.18746  20308683.8914                   20308681.5664
   1411001.17247   1116421.47744  23168935.8914                   23168934.4694
  21860334.56346  17034341.18843  24065269.0704                   24065272.2034
  15609625.59046  12168698.23044  23917510.0704                   23917505.9304
 -12722389.01648  -9912693.76645  22047795.5864                   22047792.7704
 -16353688.86748 -12742116.07845  21533457.3594                   21533454.4694
 11  8  1 19 59 30.0000000  0  9G17G24G07G08G26G13G19G28G11
  -3443007.96947  -2663425.05145  22777519.2894                   22777518.0514
  -6105452.57847  -4866543.71945  22291858.5784                   22291858.8554
  -8045354.09848  -6258562.74647  20368379.5394                   20368376.4654
 -18788744.97348 -14633001.96146  20295422.2974                   20295420.0044
   1327792.18047   1051583.32844  23153101.5164                   23153100.1644
  21941188.25846  17097343.69943  24080655.1954                   24080658.3134
  15682742.82446  12225672.63744  23931423.1564                   23931420.0434
 -12778678.54748  -9956555.71546  22037084.2034                   22037081.0234
 -16386342.49247 -12767560.45745  21527243.2194                   21527240.5314
 11  8  1 20  0  0.0000000  0  9G17G24G07G08G26G13G19G28G11
  -3559196.24647  -2753961.30145  22755409.4384                   22755408.3444
  -6182307.70747  -4926430.77345  22277234.2194                   22277233.0984
  -8054748.93448  -6265883.41447  20366591.6564                   20366588.8634
 -18858042.14848 -14686999.76246  20282235.7034                   20282233.0824
   1245137.10547    987176.80944  23137373.0234                   23137370.4064
  22022024.56646  17160332.59843  24096038.2274                   24096042.1724
  15755963.41447  12282727.57844  23945356.8594                   23945354.0474
 -12834911.23048 -10000373.38346  22026383.1804                   22026380.6254
 -16418423.41447 -12792558.59045  21521139.0634                   21521134.9064
 11  8  1 20  0 30.0000000  0  9G17G24G07G08G26G13G19G28G11
  -3675101.07447  -2844276.66845  22733353.5164                   22733351.8634
  -6258750.84447  -4985996.79345  22262686.8984                   22262686.4534
  -8063667.49648  -6272832.93747  20364894.7274                   20364891.4734
 -18926942.27048 -14740688.15646  20269124.3914                   20269121.8164
   1163039.63347    923204.80944  23121750.3834                   23121749.0394
  22102842.49646  17223307.14843  24111417.5864                   24111422.1604
  15829286.50446  12339862.36344  23959310.1174                   23959307.6844
 -12891085.98848 -10044145.90246  22015693.7734                   22015690.7734
 -16449929.13747 -12817108.51645  21515143.7974                   21515139.7664
 11  8  1 20  1  0.0000000  0  9G17G24G07G08G26G13G19G28G11
  -3790731.29747  -2934378.07045  22711349.6484                   22711348.2894
  -6334789.79347  -5045247.85945  22248217.4224                   22248217.6414
  -8072119.44148  -6279418.88746  20363286.6414                   20363283.5434
 -18995453.98448 -14794073.90646  20256086.8054                   20256084.4024
   1081490.69547    859660.19144  23106231.8284                   23106229.6914
  22183629.02346  17286257.29343  24126791.1724                   24126794.5864
  15902699.23446  12397067.00443  23973280.0554                   23973277.0204
 -12947213.64148 -10087881.72346  22005013.2194                   22005010.2664
 -16480869.51247 -12841217.88345  21509255.6024                   21509252.6454
 11  8  1 20  1 30.0000000  0  9G17G24G07G08G26G13G19G28G11
  -3906079.85547  -3024259.98045  22689399.2584                   22689398.6024
  -6410416.27347  -5104177.53945  22233826.6564                   22233825.3244
  -8080098.62548  -6285636.44146  20361767.9614                   20361764.7424
 -19063568.74248 -14847150.32846  20243125.3914                   20243122.8634
   1000497.81347    796548.88744  23090819.5004                   23090818.6604
  22264386.66046  17349184.89543  24142158.9694                   24142162.2304
  15976205.01246  12454344.18443  23987267.2344                   23987263.6524
 -13003289.05547 -10131576.83246  21994342.1024                   21994338.8594
 -16511238.45347 -12864881.98845  21503476.9144                   21503473.7894
 11  8  1 20  2  0.0000000  0  9G17G24G07G08G26G13G19G28G11
  -4021147.09047  -3113922.67245  22667502.9304                   22667501.9804
  -6485629.42247  -5162785.12545  22219513.9774                   22219512.9104
  -8087606.16448  -6291486.49246  20360339.3984                   20360336.1214
 -19131285.87948 -14899916.93446  20230238.7974                   20230236.3634
    920060.63747    733870.60244  23075512.6644                   23075511.3714
  22345111.05946  17412086.63343  24157521.4224                   24157524.5474
  16049799.69946  12511690.62944  24001272.5864                   24001269.3754
 -13059314.34447 -10175232.89546  21983680.5704                   21983677.9494
 -16541036.71948 -12888101.39845  21497806.6644                   21497803.2074
 11  8  1 20  2 30.0000000  0  9G17G24G07G08G26G13G19G28G11
  -4135929.86747  -3203363.71545  22645660.4384                   22645659.2774
  -6560425.55547  -5221067.78945  22205280.9774                   22205279.8014
  -8094639.99648  -6296967.41446  20359001.2814                   20358997.6604
 -19198601.76648 -14952370.85946  20217429.3284                   20217426.8404
    840182.25447    671627.73844  23060311.7034                   23060311.2234
  22425800.96547  17474961.44943  24172876.2424                   24172879.4024
  16123482.21547  12569105.57443  24015294.6564                   24015290.3984
 -13115288.98448 -10218849.47746  21973029.4774                   21973026.1094
 -16570262.61748 -12910874.82445  21492244.9844                   21492241.7934
 11  8  1 20  3  0.0000000  0  9G17G24G07G08G26G13G19G28G11
  -4250425.14847  -3292580.71945  22623872.3674                   22623870.9734
  -6634800.59047  -5279022.30145  22191127.0234                   22191126.4734
  -8101198.37548  -6302077.85946  20357752.7344                   20357749.5084
 -19265512.32048 -15004508.94946  20204696.3914                   20204694.1174
    760865.65247    609822.61344  23045218.5394                   23045217.1914
  22506455.20746  17537808.44143  24188224.3984                   24188227.8714
  16197251.60547  12626588.17244  24029332.3914                   24029328.3674
 -13171211.61347 -10262425.54746  21962387.5474                   21962384.3364
 -16598914.23047 -12933200.73845  21486792.2894                   21486789.6524
 11  8  1 20  3 30.0000000  0  9G17G24G07G08G26G13G19G28G11
  -4364634.36347  -3381574.83645  22602139.1884                   22602137.8364
  -6708754.31247  -5336648.53145  22177054.2974                   22177053.4884
  -8107283.10248  -6306819.21546  20356595.0704                   20356591.7934
 -19332017.68048 -15056331.30547  20192040.7194                   20192038.4304
    682109.96947    548454.58644  23030231.9304                   23030230.2424
  22587068.34446  17600623.43843  24203564.8284                   24203567.0944
  16271103.04347  12684134.73044  24043386.1334                   24043381.8484
 -13227085.08247 -10305963.30146  21951755.2974                   21951752.0044
 -16626993.35948 -12955080.56645  21481449.2194                   21481446.2774
 11  8  1 20  4  0.0000000  0  9G17G24G07G08G26G13G19G28G11
  -4478554.80547  -3470343.91045  22580461.0634                   22580460.0084
  -6782283.04747  -5393943.59045  22163062.3204                   22163060.8984
  -8112892.14848  -6311189.92246  20355527.5704                   20355524.4574
 -19398114.54348 -15107835.35546  20179463.0084                   20179460.6884
    603918.09847    487525.87544  23015352.5474                   23015351.0554
  22667638.96946  17663405.30143  24218897.0004                   24218900.8984
  16345035.14847  12741744.15644  24057454.6024                   24057451.0474
 -13282908.88748 -10349462.35946  21941132.4454                   21941129.5004
 -16654498.42247 -12976513.08245  21476215.2034                   21476211.9344
 11  8  1 20  4 30.0000000  0  9G17G24G07G08G26G13G19G28G11
  -4592185.67247  -3558887.36745  22558837.5634                   22558836.1644
  -6855385.16047  -5450906.23445  22149152.0234                   22149149.8954
  -8118026.09047  -6315190.41846  20354550.4304                   20354547.5784
 -19463801.11348 -15159019.68446  20166963.6414                   20166961.0784
    526290.57847    427036.91444  23000580.1804                   23000579.2344
  22748163.52046  17726151.25442  24234220.3984                   24234225.4064
  16419045.02347  12799414.10544  24071538.2194                   24071534.8674
 -13338684.21147 -10392923.64146  21930518.7894                   21930515.4654
 -16681429.79747 -12997498.55545  21471090.4774                   21471087.6054
 11  8  1 20  5  0.0000000  0  9G17G24G07G08G26G13G19G28G11
  -4705524.35547  -3647203.14845  22537269.7504                   22537267.8404
  -6928057.10947  -5507533.68445  22135322.6024                   22135320.6414
  -8122683.43447  -6318819.53546  20353664.6094                   20353661.1724
 -19529073.77348 -15209881.49246  20154542.4844                   20154540.2154
    449229.90247    366989.66844  22985916.8444                   22985915.3484
  22828640.30146  17788860.06342  24249533.8204                   24249539.3364
  16493131.25847  12857143.59444  24085636.6334                   24085632.7384
 -13394410.66448 -10436346.84446  21919914.3834                   21919911.0984
 -16707785.77748 -13018035.68045  21466075.0314                   21466071.6294
 11  8  1 20  5 30.0000000  0  9G17G24G07G08G26G13G19G28G11
  -4818571.80147  -3735292.02045  22515757.7194                   22515755.9804
  -7000298.69947  -5563825.79345  22121575.2344                   22121573.5354
  -8126865.66448  -6322078.43746  20352868.6174                   20352865.7504
 -19593932.60248 -15260420.83246  20142200.2114                   20142198.0984
    372735.19547    307383.43044  22971359.6644                   22971358.5594
  22909064.56646  17851527.82042  24264839.3914                   24264844.3984
  16567289.03147  12914928.76644  24099748.1644                   24099744.4024
 -13450090.77348 -10479733.94146  21909318.9064                   21909315.3874
 -16733568.20748 -13038125.87945  21461168.8914                   21461165.3524
 11  8  1 20  6  0.0000000  0  9G17G24G07G08G26G13G19G28G11
  -4931322.68447  -3823149.75845  22494301.4614                   22494300.3954
  -7072103.53547  -5619777.58645  22107911.4384                   22107909.5434
  -8130568.60948  -6324963.85946  20352164.0394                   20352160.8484
 -19658371.42248 -15310632.89847  20129937.8674                   20129935.3444
    296811.93047    248222.44944  22956912.1024                   22956910.8054
  22989437.20346  17914155.35942  24280134.5864                   24280138.2234
  16641519.92246  12972770.94943  24113873.8594                   24113869.5984
 -13505720.98048 -10523082.14846  21898732.7034                   21898729.5634
 -16758773.08648 -13057766.03545  21456372.7424                   21456369.3984
 11  8  1 20  6 30.0000000  0  9G17G24G07G08G26G13G19G28G11
  -5043777.77747  -3910777.03945  22472902.1334                   22472900.2504
  -7143471.02347  -5675388.59045  22094330.7664                   22094329.1804
  -8133793.75847  -6327476.98846  20351550.0554                   20351547.2034
 -19722389.76647 -15360517.32446  20117755.6954                   20117753.1174
    221459.50447    189506.30144  22942573.0004                   22942572.0704
  23069753.60946  17976739.12142  24295418.4224                   24295422.5704
  16715820.05546  13030667.03544  24128012.4064                   24128008.8484
 -13561303.78147 -10566393.40646  21888155.5704                   21888152.3794
 -16783402.04347 -13076957.42245  21451686.0634                   21451682.2934
 11  8  1 20  7  0.0000000  0  9G17G24G07G08G26G13G19G28G11
  -5155932.70347  -3998170.41445  22451559.8204                   22451558.2934
  -7214396.41447  -5730655.10245  22080833.6724                   22080832.1914
  -8136537.99648  -6329615.37146  20351028.1094                   20351024.8284
 -19785982.72348 -15410070.27346  20105654.4454                   20105651.3834
    146682.05147    131238.18044  22928343.2894                   22928341.5944
  23150014.00846  18039279.18443  24310692.0474                   24310697.2344
  16790189.74646  13088617.32843  24142164.8674                   24142161.8984
 -13616836.91848 -10609665.98045  21877588.0314                   21877584.8014
 -16807451.83247 -13095697.49645  21447109.6024                   21447106.1844
 11  8  1 20  7 30.0000000  0  9G17G24G07G08G26G13G19G28G11
  -5267785.32447  -4085328.24245  22430274.7584                   22430273.5434
  -7284876.29347  -5785574.45745  22067421.5394                   22067420.4924
  -8138799.94147  -6331377.93446  20350597.3984                   20350594.6174
 -19849146.86348 -15459289.08646  20093634.6954                   20093631.6524
     72481.68847     73419.71544  22914223.3984                   22914222.5944
  23230216.44146  18101774.07842  24325954.3364                   24325958.7624
  16864627.05547  13146620.33644  24156330.1564                   24156327.1054
 -13672319.96948 -10652899.51646  21867029.7894                   21867026.6804
 -16830921.24247 -13113985.33246  21442643.2974                   21442640.3634
 11  8  1 20  8  0.0000000  0  9G17G24G07G08G26G13G19G28G11
  -5379338.58647  -4172252.78945  22409047.0554                   22409045.5664
  -7354912.32847  -5840147.96545  22054094.0084                   22054093.8554
  -8140583.59448  -6332767.80546  20350258.4694                   20350255.4264
 -19911884.33248 -15508175.42246  20081696.2974                   20081693.6644
     -1144.36347     16048.78545  22900212.6724                   22900211.9184
  23310354.03946  18164218.52043  24341204.9694                   24341209.5744
  16939125.52047  13204671.04344  24170506.7114                   24170503.9064
 -13727757.56248 -10696097.62145  21856480.5164                   21856477.2384
 -16853814.55547 -13131824.28945  21438286.5784                   21438283.7274
 11  8  1 20  8 30.0000000  0  9G17G24G07G08G26G13G19G28G11
  -5490595.69947  -4258946.59045  22387875.4844                   22387873.8874
  -7424506.89147  -5894377.44145  22040850.6414                   22040849.4924
  -8141893.53947  -6333788.57046  20350009.0634                   20350006.1054
 -19974197.46947 -15556731.11746  20069838.3834                   20069835.4224
    -74199.92247    -40877.59844  22886310.7424                   22886309.5554
  23390419.43046  18226606.62543  24356441.0314                   24356445.8404
  17013678.46147  13262764.21944  24184693.2504                   24184690.0634
 -13783154.73048 -10739264.24246  21845938.6094                   21845935.4304
 -16876135.89847 -13149217.53545  21434039.1174                   21434036.2344
 11  8  1 20  9  0.0000000  0  9G17G24G07G08G26G13G19G28G11
  -5601550.89147  -4345405.12545  22366761.1884                   22366759.9804
  -7493653.26647  -5948257.71545  22027692.1484                   22027691.7504
  -8142724.89547  -6334436.40246  20349850.8754                   20349847.9304
 -20036079.41447 -15604950.80946  20058062.5634                   20058059.9224
   -146678.83647    -97354.64544  22872518.3054                   22872517.0594
  23470414.42246  18288939.91043  24371664.6174                   24371669.1454
  17088287.91847  13320901.41443  24198891.3364                   24198887.2274
 -13838507.50048 -10782396.25046  21835405.1254                   21835402.1254
 -16897880.74248 -13166161.57045  21429901.1094                   21429898.0514
 11  8  1 20  9 30.0000000  0  9G17G24G07G08G26G13G19G28G11
  -5712205.77747  -4431629.64145  22345703.9694                   22345702.4884
  -7562352.00047  -6001789.17645  22014619.5474                   22014618.3874
  -8143079.87547  -6334713.01246  20349783.3364                   20349780.1914
 -20097530.69148 -15652834.92246  20046368.6254                   20046366.0044
   -218582.91047   -153383.80544  22858835.2974                   22858833.7664
  23550333.43846  18351213.96143  24386873.0704                   24386878.1604
  17162948.70347  13379078.64843  24213099.3204                   24213094.7974
 -13893819.16448 -10825496.23446  21824879.4924                   21824876.8714
 -16919051.93448 -13182658.60945  21425872.7344                   21425869.4654
 11  8  1 20 10  0.0000000  0  9G17G24G07G08G26G13G19G28G11
  -5822557.13747  -4517617.66045  22324705.2424                   22324703.3364
  -7630598.99247  -6054968.64845  22001632.2034                   22001631.0944
  -8142956.51647  -6334616.90246  20349806.9304                   20349804.1134
 -20158547.30547 -15700380.34046  20034757.6254                   20034754.9614
   -289909.00047   -208962.55544  22845262.5234                   22845261.1844
  23630175.82846  18413428.27343  24402066.4614                   24402072.7074
  17237660.40647  13437295.54343  24227315.3364                   24227312.3244
 -13949088.13348 -10868562.94946  21814362.3524                   21814359.4224
 -16939647.20748 -13198706.86345  21421953.2344                   21421950.5904
 11  8  1 20 10 30.0000000  0  9G17G24G07G08G26G13G19G28G11
  -4357180.66847  -3375765.82045  22603556.9144                   22603555.0234
  -6122970.26247  -4880192.99245  22288524.4384                   22288523.2544
  -6566935.01247  -5106548.21546  20649713.3984                   20649710.9574
 -18643705.55947 -14519984.18046  20323022.7344                   20323019.9884
   1214765.94147    963511.45344  23131592.9064   23131592.0944   25285355.64146
  19703178.22743                  24717037.3524                   24717042.0354
  18887837.68446  14723147.88343  24541334.6564                   24541330.9384
 -12428893.41848  -9683995.62145  22103645.7194                   22103642.8524
 -15384246.30148 -11986706.16446  21717935.9614                   21717933.1994
 11  8  1 20 11  0.0000000  0  9G17G24G07G08G26G13G19G28G11
  -4466921.91047  -3461278.41045  22582673.1024                   22582671.8914
  -6190307.66047  -4932663.67245  22275710.9694                   22275710.2584
  -6565854.75047  -5105706.46946  20649919.4144                   20649916.0434
 -18703846.73447 -14566847.43046  20311578.2194                   20311575.4804
   1144598.69547    908835.71145  23118240.5394   23118239.9654   25365036.05946
  19765266.35243                  24732200.8984                   24732204.8524
  18962643.83246  14781438.33643  24555568.8204                   24555565.4454
 -12484078.89848  -9726997.27346  22093144.6724                   22093141.4024
 -15403690.19948 -12001857.25845  21714235.9454                   21714233.5824
 11  8  1 20 11 30.0000000  0  9G17G24G07G08G26G13G19G28G11
  -4576357.84847  -3546553.10545  22561848.6094                   22561846.6994
  -6257188.41447  -4984778.51245  22262983.5554                   22262982.8324
  -6564297.64148  -5104493.14146  20650215.8834                   20650212.8634
 -18763548.60548 -14613368.37146  20300217.0004                   20300214.7664
   1075010.91047    854611.46544  23104998.5164   23104997.1174   25444629.68446
  19827286.77743                  24747346.6254                   24747352.6604
  19037491.87546  14839761.37943  24569812.7894                   24569808.4534
 -12539225.14147  -9769968.35945  22082650.6334                   22082647.3164
 -15422560.13748 -12016561.10245  21710645.1954                   21710643.0044
 11  8  1 20 12  0.0000000  0  9G17G24G07G08G26G13G19G28G11
  -4685487.93047  -3631589.46945  22541081.8834                   22541080.3244
  -6323611.08247  -5036536.39545  22250343.6254                   22250342.9494
  -6562263.71947  -5102908.28946  20650602.4144                   20650599.6844
 -18822809.43448 -14659545.64847  20288940.2034                   20288937.7664
   1006002.97347    800839.06344  23091866.8524   23091865.0664   25524133.50846
  19889237.21143                  24762476.2504                   24762482.3594
  19112379.09046  14898114.91043  24584063.5704                   24584060.2074
 -12594332.62948  -9812909.23446  22072163.9614                   22072160.4884
 -15440856.67648 -12030818.15245  21707163.6484                   21707160.6914
 11  8  1 20 12 30.0000000  0  9G17G24G07G08G26G13G19G28G11
  -4794309.52747  -3716385.44545  22520373.2194                   22520371.9574
  -6389572.15247  -5087934.59845  22237791.7424                   22237791.2234
  -6559751.69147  -5100950.87946  20651080.7504                   20651077.9804
 -18881625.66448 -14705376.46947  20277747.9064                   20277745.2704
    937577.27347    747520.32844  23078846.0944   23078843.7384   25603546.08646
  19951116.60542                  24777587.9534                   24777593.8554
  19187304.44546  14956498.16844  24598321.5554                   24598318.1134
 -12649400.82447  -9855819.50446  22061684.7274                   22061681.7854
 -15458578.39848 -12044627.29345  21703790.8524                   21703788.5474
 11  8  1 20 13  0.0000000  0  8G17G24G07G08G26G19G28G11
  -4902822.73047  -3800941.12945  22499724.2504                   22499722.9384
  -6455070.84447  -5138972.53545  22225327.8594                   22225326.9344
  -6556762.70347  -5098621.80946  20651649.6254                   20651646.3954
 -18939996.27748 -14750860.06646  20266640.2504                   20266637.8244
    869733.38747    694654.98844  23065934.8444   23065933.3484
  19262264.28946  15014908.39544  24612585.0474                   24612582.2074
 -12704431.68047  -9898700.68046  22051212.9304                   22051209.9774
 -15475726.67247 -12057989.58245  21700527.8524                   21700525.9614
 11  8  1 20 13 30.0000000  0  8G17G24G07G08G26G19G28G11
  -5011026.34047  -3885255.55545  22479133.8364                   22479132.1524
  -6520105.31647  -5189648.70345  22212952.6334                   22212951.6254
  -6553296.94547  -5095921.23446  20652309.0394                   20652306.2234
 -18997919.88348 -14795995.34847  20255617.7664                   20255615.1764
    802472.09847    642243.60944  23053135.7974   23053134.4494
  19337256.09046  15073343.51244  24626855.6724                   24626853.3634
 -12759425.44548  -9941552.95346  22040747.6724                   22040744.5784
 -15492301.79347 -12070905.26645  21697373.9304                   21697371.0634
 11  8  1 20 14  0.0000000  0  8G17G24G07G08G26G19G28G11
  -5118908.43047  -3969319.45345  22458604.2504                   22458603.5124
  -6584661.86747  -5239952.48845  22200667.6334                   22200666.7234
  -6549342.85547  -5092840.13346  20653061.4844                   20653058.6604
 -19055382.55148 -14840771.45747  20244682.9774                   20244680.4964
    735805.85247    590295.89844  23040449.6804   23040448.2034
  19412289.43846  15131811.00044  24641134.1174                   24641131.6134
 -12814371.16447  -9984367.78946  22030291.7584                   22030288.5084
 -15508292.40648 -12083365.47345  21694330.8364                   21694328.4774
 11  8  1 20 14 30.0000000  0  8G17G24G07G08G26G19G28G11
  -5226454.70347  -4053121.66445  22438139.2194                   22438137.6644
  -6648725.89847  -5289872.45745  22188476.6484                   22188475.1914
  -6544888.02047  -5089368.85546  20653909.5084                   20653906.3244
 -19112369.96547 -14885177.22347  20233838.9304                   20233836.2624
    669748.28947    538822.48044  23027878.7034   23027877.2624
  19487374.52746  15190318.79744  24655422.3674                   24655420.0004
 -12869256.34847 -10027135.45746  22019847.7734                   22019844.2154
 -15523685.90648 -12095360.41845  21691401.6724                   21691398.4654
 11  8  1 20 15  0.0000000  0  8G17G24G07G08G26G19G28G11
  -5333665.73047  -4136662.66845  22417737.1334                   22417735.8164
  -6712296.94947  -5339408.30145  22176379.5314                   22176378.3444
  -6539933.60548  -5085508.29746  20654851.9064                   20654849.1914
 -19168881.35248 -14929212.07446  20223085.0314                   20223082.4184
    604298.67647    487822.78144  23015424.7974   23015423.3364
  19562507.35246  15248863.78144  24669720.0394                   24669717.3204
 -12924083.23048 -10069857.69145  22009414.6334                   22009411.4224
 -15538484.35248 -12106891.67245  21688585.6954                   21688582.8404
 11  8  1 20 15 30.0000000  0  8G17G24G07G08G26G19G28G11
  -5440543.98448  -4219944.35545  22397399.2734                   22397397.7974
  -6775376.42247  -5388561.10545  22164375.8134                   22164375.1294
  -6534482.91048  -5081261.01246  20655889.3444                   20655886.4264
 -19224917.73448 -14972876.78546  20212421.3914                   20212418.9104
    539454.35246    437294.77344  23003084.7424   23003083.6884
  19637682.03546  15307441.37543  24684025.3674                   24684022.0824
 -12978855.87547 -10112537.66045  21998991.5784                   21998988.4064
 -15552691.18048 -12117961.91845  21685882.3834                   21685879.4344
 11  8  1 20 16  0.0000000  0  8G17G24G07G08G26G19G28G11
  -5547092.22748  -4302968.90646  22377124.0004                   22377121.7704
  -6837966.60947  -5437332.62945  22152465.0234                   22152464.6294
  -6528540.50447  -5076630.57046  20657020.3284                   20657017.5084
 -19280481.68047 -15016173.37146  20201847.8364                   20201845.4414
    475212.05547    387235.86344  22990859.7664   22990858.9654
  19712892.49246  15366046.90243  24698337.4694                   24698333.0164
 -13033578.53547 -10155178.68446  21988578.2734                   21988574.8444
 -15566311.08247 -12128574.81245  21683290.0084                   21683287.2894
 11  8  1 20 16 30.0000000  0  8G17G24G07G08G26G19G28G11
  -5653304.83248  -4385731.93445  22356912.0394                   22356910.3054
  -6900060.72347  -5485717.61745  22140649.1724                   22140648.7544
  -6522101.52047  -5071613.18446  20658245.4384                   20658242.3204
 -19335566.05548 -15059096.25846  20191365.7894                   20191362.9804
    411577.39547    337650.41444  22978750.3834   22978749.0594
  19788140.89546  15424681.96143  24712656.2894                   24712652.9024
 -13088246.83647 -10197777.35246  21978174.9774                   21978172.1414
 -15579339.34448 -12138726.71945  21680811.2894                   21680808.5204
 11  8  1 20 17  0.0000000  0  8G17G24G07G08G26G19G28G11
  -5759182.98848  -4468234.33246  22336764.1884                   22336762.4414
  -6961658.66047  -5533715.96945  22128928.1484                   22128926.3874
  -6515168.01647  -5066210.46946  20659564.7344                   20659561.7234
 -19390171.09048 -15101645.64146  20180975.1024                   20180972.3914
    348549.13347    288537.49244  22966756.9924   22966755.1994
  19863424.09046  15483344.06343  24726982.2274                   24726978.6334
 -13142862.77747 -10240335.22346  21967782.0474                   21967778.7424
 -15591778.25448 -12148419.37145  21678443.8594                   21678441.0434
 11  8  1 20 17 30.0000000  0  8G17G24G07G08G26G19G28G11
  -5864724.41447  -4550474.36745  22316679.9384                   22316678.5744
  -7022757.83647  -5581325.69945  22117300.6564                   22117299.4694
  -6507739.43747  -5060421.99246  20660978.4454                   20660975.9654
 -19444293.78948 -15143819.16846  20170675.4224                   20170672.9534
    286128.47347    239898.03544  22954878.9774   22954877.0944
  19938739.52046  15542031.31643  24741314.4534                   24741310.5234
 -13197426.45347 -10282852.37545  21957398.9924                   21957395.6094
 -15603627.30548 -12157652.39145  21676189.1884                   21676186.8634
 11  8  1 20 18  0.0000000  0  8G17G24G07G08G26G19G28G11
  -5969921.57848  -4632446.12946  22296661.9534                   22296660.0044
  -7083349.48047  -5628539.92245  22105770.7974                   22105769.8014
  -6499808.95747  -5054242.40646  20662487.5864                   20662484.6524
 -19497925.74648 -15185610.30146  20160469.5704                   20160467.0664
    224323.11347    191738.02044  22943117.3204   22943115.7734
  20014091.98846  15600747.46543  24755654.9454                   24755650.7894
 -13251931.62548 -10325323.91445  21947027.0234                   21947023.3244
 -15614880.23048 -12166420.91845  21674047.9844                   21674045.0234
 11  8  1 20 18 30.0000000  0  8G17G24G07G08G26G19G28G11
  -6074781.76247  -4714155.32045  22276707.1954                   22276705.7114
  -7143439.94147  -5675363.64845  22094335.9774                   22094334.7974
  -6491384.90647  -5047678.22746  20664090.5634                   20664087.4304
 -19551073.01248 -15227023.75846  20150356.0164                   20150353.4264
    163125.40247    144051.50444  22931472.1334   22931470.7274
  20089470.73846  15659484.07044  24769998.1174                   24769995.3014
 -13306386.67648 -10367756.42246  21936664.4614                   21936661.4184
 -15625545.65248 -12174731.63745  21672018.5234                   21672015.5514
 11  8  1 20 19  0.0000000  0  8G17G24G07G08G26G19G28G11
  -6179302.26248  -4795599.80545  22256818.1254                   22256816.3404
  -7203025.97347  -5721794.28945  22082997.1484                   22082995.1414
  -6482466.04747  -5040728.48046  20665787.9844                   20665784.9924
 -19603732.11747 -15268056.82446  20140335.3984                   20140332.8674
    102537.43047     96840.11744  22919942.8204   22919940.8324
  20164875.34046  15718240.82844  24784347.8444                   24784343.9534
 -13360790.30547 -10410148.84046  21926311.6094                   21926308.1054
 -15635622.50048 -12182583.71945  21670100.8054                   21670097.9104
 11  8  1 20 19 30.0000000  0  8G17G24G07G08G26G19G28G11
  -6283483.29348  -4876779.78545  22236992.7274                   22236990.9454
  -7262106.88747  -5767831.36345  22071754.5084                   22071752.9064
  -6473053.75447  -5033394.25046  20667579.0864                   20667576.2544
 -19655902.28948 -15308708.91046  20130407.7664                   20130405.1094
     42558.84047     50103.53944  22908528.7344   22908527.5434
  20240302.55946  15777015.21543  24798699.9614                   24798697.8874
 -13415143.98848 -10452502.34846  21915968.2974                   21915965.4574
 -15645112.12548 -12189978.23445  21668295.0864                   21668291.5354
 11  8  1 20 20  0.0000000  0  8G17G24G07G08G26G19G28G11
  -6387323.98447  -4957694.56245  22217232.5474                   22217230.7424
  -7320680.77048  -5813473.32445  22060608.1804                   22060607.2894
  -6463148.19948  -5025675.64846  20669463.6954                   20669460.9734
 -19707581.73848 -15348978.61346  20120573.4774                   20120571.1254
    -16809.80947      3842.25044  22897230.9454   22897229.6994
  20315750.30946  15835805.55944  24813058.0944                   24813056.2894
 -13469448.51648 -10494817.54746  21905634.7114                   21905631.4384
 -15654015.21948 -12196915.70345  21666600.9144                   21666597.0434
 11  8  1 20 20 30.0000000  0  8G17G24G07G08G26G19G28G11
  -6490823.47348  -5038343.46545  22197537.3444                   22197536.0634
  -7378745.98047  -5858718.90245  22049558.2974                   22049557.7154
  -6452749.60247  -5017572.87146  20671442.5634                   20671440.2504
 -19758768.53548 -15388864.43047  20110833.0704                   20110830.7234
    -75568.27047    -41943.57044  22886050.0234   22886048.1254
  20391215.84846  15894609.82444  24827418.2504                   24827416.2074
 -13523703.63748 -10537094.24646  21895310.3914                   21895307.1334
 -15662332.06648 -12203396.35945  21665018.0084                   21665014.3874
 11  8  1 20 21  0.0000000  0  7G17G24G07G08G26G28G11
  -6593983.24248  -5118727.64546  22177906.7194                   22177904.7624
  -7436303.43447  -5903568.85245  22038606.3594                   22038604.2384
  -6441860.80548  -5009088.12946  20673514.7424                   20673511.9144
 -19809463.16848 -15428366.74246  20101186.3284                   20101183.7114
   -133718.31247    -87255.29344  22874984.1254   22874982.9694
 -13577912.61748 -10579334.99646  21884994.6884                   21884991.6884
 -15670066.21548 -12209422.96545  21663546.6254                   21663543.2234
 11  8  1 20 21 30.0000000  0  7G17G24G07G08G26G28G11
  -6696801.10548  -5198845.42246  22158341.0474                   22158339.0274
  -7493350.20347  -5948020.85945  22027749.4224                   22027748.4344
  -6430480.84048  -5000220.63346  20675680.1484                   20675677.5124
 -19859662.50048 -15467483.10546  20091633.6724                   20091631.3324
   -191258.24247   -132091.58644  22864035.0944   22864033.2584
 -13632074.66448 -10621539.18446  21874688.0554                   21874685.0944
 -15677216.66848 -12214994.73045  21662185.5784                   21662182.2734
 11  8  1 20 22  0.0000000  0  7G17G24G07G08G26G28G11
  -6799267.96148  -5278689.66446  22138841.9064                   22138840.5704
  -7549876.07847  -5992066.94545  22016992.6094                   22016991.2934
  -6418601.50048  -4990964.03946  20677941.1334                   20677938.3874
 -19909356.53148 -15506205.73047  20082177.4144                   20082174.5514
   -248179.52047   -176445.82444  22853203.6254   22853201.9804
 -13686181.55948 -10663700.37946  21864391.2894                   21864388.6914
 -15683775.83248 -12220105.77045  21660937.5864                   21660933.3164
 11  8  1 20 22 30.0000000  0  7G17G24G07G08G26G28G11
  -6901375.39148  -5358253.84446  22119411.8444                   22119409.8164
  -7605871.91847  -6035700.06645  22006336.8984                   22006335.2544
  -6406216.09848  -4981313.09446  20680297.8674                   20680294.9264
 -19958535.93448 -15544527.34047  20072818.5234                   20072816.0704
   -304474.20347   -220311.82444  22842490.3204   22842488.5434
 -13740226.30548 -10705813.16446  21854107.3834                   21854104.1054
 -15689736.78148 -12224750.66845  21659803.7274                   21659799.2974
 11  8  1 20 23  0.0000000  0  7G17G24G07G08G26G28G11
  -7003124.78148  -5437539.03946  22100048.7424                   22100047.5354
  -7661338.21947  -6078920.55945  21995782.5784                   21995780.9384
  -6393326.96548  -4971269.64546  20682750.6094                   20682747.8204
 -20007201.03548 -15582448.20347  20063557.7274                   20063555.2854
   -360144.11746   -263690.99644  22831896.8204   22831895.0124
 -13794211.43448 -10747879.48446  21843834.0234                   21843831.1174
 -15695102.37548 -12228931.64145  21658782.7114                   21658778.3874
 11  8  1 20 23 30.0000000  0  7G17G24G07G08G26G28G11
  -7104521.87148  -5516549.69946  22080754.2584                   22080752.5984
  -7716279.92647  -6121732.25445  21985327.5474                   21985325.2544
  -6379940.68048  -4960838.79346  20685297.9304                   20685295.3324
 -20055356.71948 -15619972.11746  20054394.1644                   20054392.0124
   -415195.16047   -306587.90644  22821420.6564   22821419.7304
 -13848143.48848 -10789904.46146  21833571.3204                   21833568.3954
 -15699879.64148 -12232654.18045  21657872.6484                   21657869.3554
 11  8  1 20 24  0.0000000  0  7G17G24G07G08G26G28G11
  -7205569.28148  -5595287.87546  22061525.1094                   22061523.3324
  -7770698.86347  -6164136.60245  21974971.2424                   21974970.4654
  -6366061.38347  -4950023.77746  20687939.1334                   20687936.2664
 -20103004.67648 -15657100.39546  20045327.1564                   20045324.5004
   -469630.80547   -349005.29744  22811062.2274   22811061.1454
 -13902026.79348 -10831891.44946  21823317.9534                   21823314.5744
 -15704073.14548 -12235921.82845  21657075.3134                   21657071.7704
 11  8  1 20 24 30.0000000  0  7G17G24G07G08G26G28G11
  -7306269.91448  -5673755.85946  22042362.9614                   22042361.1294
  -7824597.43047  -6206135.45345  21964715.1724                   21964714.5434
  -6351693.14847  -4938827.76646  20690672.8134                   20690670.6564
 -20150146.86348 -15693834.57046  20036356.2424                   20036353.8244
   -523454.39847   -390945.78144  22800820.6094   22800818.5784
 -13955864.80148 -10873843.13346  21813072.7504                   21813069.6054
 -15707687.00848 -12238737.83245  21656387.2034                   21656384.3134
 11  8  1 20 25  0.0000000  0  7G17G24G07G08G26G28G11
  -7406627.29348  -5751956.37146  22023265.0234                   22023263.2854
  -7877978.05147  -6247730.69945  21954557.5314                   21954556.8204
  -6336840.77748  -4927254.52746  20693499.4064                   20693497.4494
 -20196785.72748 -15730176.55146  20027481.2114                   20027478.4534
   -576670.03547   -432412.48844  22790693.3204   22790692.3444
 -14009662.45348 -10915763.37946  21802835.1334                   21802832.1414
 -15710726.45348 -12241106.21945  21655808.9774                   21655805.3794
 11  8  1 20 25 30.0000000  0  7G17G24G07G08G26G28G11
  -7506641.88748  -5829889.77046  22004233.0704                   22004230.9884
  -7930840.62547  -6288922.28545  21944498.0234                   21944496.7154
  -6321506.04747  -4915305.40646  20696417.7424                   20696414.7114
 -20242920.95748 -15766126.07847  20018701.9224                   20018699.2664
   -629278.70746   -473406.26644  22780682.7504   22780681.1564
 -14063421.31248 -10957653.39846  21792605.3204                   21792601.9964
 -15713193.81647 -12243028.84445  21655339.8364                   21655336.2234
 11  8  1 20 26  0.0000000  0  7G17G24G07G08G26G28G11
  -7606315.03948  -5907557.11746  21985265.8204                   21985264.0514
  -7983186.00447  -6329710.84845  21934537.1024                   21934536.1134
  -6305691.65248  -4902982.52746  20699426.9694                   20699424.1604
 -20288552.89848 -15801683.43747  20010018.7894                   20010015.7034
   -681282.37547   -513928.61344  22770786.6254   22770785.1024
 -14117143.90248 -10999515.14546  21782382.5944                   21782379.1724
 -15715091.62947 -12244507.65245  21654978.3754                   21654974.9064
 11  8  1 20 26 30.0000000  0  7G17G24G07G08G26G28G11
  -7705644.12948  -5984956.36746  21966364.2584                   21966362.5354
  -8035010.50047  -6370093.53945  21924675.2424                   21924674.3554
  -6289395.92647  -4890284.57446  20702528.0784                   20702525.3244
 -20333677.57048 -15836845.53146  20001431.9384                   20001429.1484
   -732678.77747   -553977.75444  22761006.2194   22761004.8674
 -14170828.37548 -11041347.19146  21772166.4144                   21772163.3674
 -15716419.03548 -12245542.00845  21654725.8594                   21654721.8954
 11  8  1 20 27  0.0000000  0  7G17G24G07G08G26G28G11
  -7804629.54348  -6062087.80146  21947527.9384                   21947525.8094
  -8086314.00048  -6410070.27745  21914912.7734                   21914910.7424
  -6272620.78148  -4877213.06246  20705720.0944                   20705717.6134
 -20378294.98448 -15871612.35246  19992941.2274                   19992938.8714
   -783469.22347   -593554.71944  22751341.4064   22751340.0594
 -14224476.54748 -11083150.96546  21761957.3524                   21761953.9654
 -15717178.10947 -12246133.49645  21654581.7664                   21654578.4024
 11  8  1 20 27 30.0000000  0  7G17G24G07G08G26G28G11
  -7903270.75848  -6138951.03946  21928756.6254                   21928755.0744
  -8137095.18448  -6449640.01245  21905249.4304                   21905247.2154
  -6255366.78148  -4863768.41046  20709003.7424                   20709001.1134
 -20422403.85248 -15905982.90246  19984547.5084                   19984545.0474
   -833653.81247   -632659.57844  22741791.1414   22741790.0824
 -14278088.54748 -11124926.54346  21751755.8524                   21751752.2934
 -15717369.79747 -12246282.87545  21654544.7814                   21654541.9304
 11  8  1 20 28  0.0000000  0  7G17G24G07G08G26G28G11
  -8001565.19948  -6215544.05946  21910052.2034                   21910050.4304
  -8187350.60548  -6488800.06645  21895685.9774                   21895684.4884
  -6237632.52348  -4849949.54346  20712378.6804                   20712375.9224
 -20466000.14848 -15939954.04747  19976251.6094                   19976248.8754
   -883230.23047   -671290.55944  22732357.3524   22732355.9064
 -14331662.55548 -11166672.51646  21741560.8134                   21741557.7584
 -15716993.09047 -12245989.34045  21654616.7274                   21654613.2544
 11  8  1 20 28 30.0000000  0  7G17G24G07G08G26G28G11
  -8099513.12947  -6291867.06646  21891412.8134                   21891411.0744
  -8237080.08648  -6527550.30145  21886222.3364                   21886221.1804
  -6219419.85247  -4835757.87146  20715844.1484                   20715841.4264
 -20509083.63348 -15973525.59846  19968053.0314                   19968050.6174
   -932199.54747   -709448.45344  22723038.2584   22723037.3364
 -14385200.17648 -11208390.13346  21731372.7734                   21731370.1954
 -15716049.69947 -12245254.25445  21654795.9304                   21654792.8714
 11  8  1 20 29  0.0000000  0  7G17G24G07G08G26G28G11
  -8197116.21548  -6367921.37146  21872839.7664                   21872837.8244
  -8286284.60248  -6565891.44945  21876859.2504                   21876858.0984
  -6200731.47347  -4821195.53546  20719400.5634                   20719397.6484
 -20551654.99248 -16006698.09446  19959952.0474                   19959949.2624
   -980564.20747   -747135.23444  22713835.4694   22713833.6764
 -14438703.61348 -11250081.11745  21721191.4384                   21721188.5634
 -15714543.29748 -12244080.44545  21655083.0234                   21655079.8524
 11  8  1 20 29 30.0000000  0  7G17G24G07G08G26G28G11
  -8294373.43047  -6443706.16446  21854332.1564                   21854330.3164
  -8334962.45348  -6603822.21945  21867595.9614                   21867595.3554
  -6181567.85547  -4806262.85946  20723047.1254                   20723044.3754
 -20593712.46548 -16039470.16046  19951948.5784                   19951946.1684
  -1028323.88347   -784350.56244  22704746.9614   22704745.3714
 -14492173.21548 -11291745.74246  21711016.6094                   21711013.6484
 -15712474.52048 -12242468.41445  21655476.5234                   21655473.1374
 11  8  1 20 30  0.0000000  0  7G17G24G07G08G26G28G11
  -8391280.80948  -6519218.35246  21835891.2894                   21835889.5354
  -8383108.95748  -6641338.95345  21858433.7274                   21858433.6254
  -6161926.02748  -4790957.57046  20726784.8284                   20726782.0234
 -20635251.04748 -16071837.89546  19944044.1564                   19944041.6294
  -1075475.12147   -821091.78144  22695773.7424   22695773.0634
 -14545605.84448 -11333381.54346  21700848.6564                   21700845.5234
 -15709841.16847 -12240416.47345  21655977.1414                   21655974.4774
 11  8  1 20 30 30.0000000  0  7G17G24G07G08G26G28G11
  -8487836.41447  -6594456.43746  21817517.3364                   21817515.3954
  -8430721.43048  -6678439.56245  21849373.8134                   21849373.0864
  -6141805.82047  -4775279.52046  20730614.0474                   20730611.2894
 -20676267.84048 -16103799.03546  19936238.8364                   19936236.4964
  -1122016.93747   -857358.13744  22686917.9614   22686916.5554
 -14599000.44948 -11374987.72746  21690687.7344                   21690684.8634
 -15706642.92248 -12237924.34045  21656586.1174                   21656583.6884
 11  8  1 20 31  0.0000000  0  7G17G24G07G08G26G28G11
  -8584043.24247  -6669422.74646  21799209.5784                   21799208.2194
  -8477802.14848  -6715125.82045  21840414.7584                   21840413.0474
  -6121211.16847  -4759231.76646  20734532.9144                   20734530.1334
 -20716764.69948 -16135355.03946  19928532.4774                   19928529.8524
  -1167952.97747   -893152.45744  22678176.2734   22678174.9654
 -14652360.55948 -11416567.02046  21680533.7734                   21680530.6454
 -15702884.26247 -12234995.52745  21657301.2504                   21657299.0084
 11  8  1 20 31 30.0000000  0  7G17G24G07G08G26G28G11
  -8679897.58648  -6744114.39846  21780969.5164                   21780967.5314
  -8524346.99647  -6751394.50445  21831557.1414                   21831555.6414
  -6100139.98447  -4742812.68446  20738542.3204                   20738539.7664
 -20756737.43048 -16166502.62546  19920926.0164                   19920923.3754
  -1213280.28947   -928472.44544  22669550.7814   22669549.7624
 -14705683.36348 -11458117.25846  21670386.8834                   21670383.4734
 -15698563.29347 -12231628.53545  21658123.2584                   21658120.8874
 11  8  1 20 32  0.0000000  0  7G17G24G07G08G26G28G11
  -8775400.06648  -6818531.87946  21762795.4454                   21762793.9694
  -8570355.87548  -6787245.56645  21822801.8134                   21822800.9494
  -6078593.95748  -4726023.60946  20742642.9064                   20742640.1054
 -20796185.50848 -16197241.39846  19913419.0944                   19913416.5274
  -1258000.14847   -963319.09444  22661040.7664   22661039.3484
 -14758970.14548 -11499639.41046  21660246.6174                   21660243.4694
 -15693682.23047 -12227825.13745  21659052.1954                   21659049.3954
 11  8  1 20 32 30.0000000  0  7G17G24G07G08G26G28G11
  -8870550.73048  -6892675.20746  21744689.0784                   21744687.5044
  -8615828.51247  -6822678.77045  21814148.0864                   21814147.0084
  -6056574.53148  -4708865.64146  20746833.2034                   20746829.9964
 -20835108.29348 -16227570.85946  19906012.2974                   19906009.9494
  -1302113.47747   -997693.10944  22652646.2034   22652645.1954
 -14812222.14147 -11541134.46546  21650113.2344                   21650109.7704
 -15688243.06647 -12223586.83245  21660087.5704                   21660084.6914
 11  8  1 20 33  0.0000000  0  7G17G24G07G08G26G28G11
  -8965347.12548  -6966542.49646  21726650.1804                   21726648.1994
  -8660761.62947  -6857691.59045  21805598.0164                   21805596.9694
  -6034080.62548  -4691337.94146  20751113.3444                   20751110.8794
 -20873502.44548 -16257488.39846  19898706.3834                   19898703.8954
  -1345618.57846  -1031593.19144  22644367.7344   22644366.3714
 -14865437.41048 -11582600.90646  21639986.6334                   21639983.1134
 -15682244.80147 -12218912.88345  21661228.7584                   21661226.0164
 11  8  1 20 33 30.0000000  0  7G17G24G07G08G26G28G11
  -9059788.24648  -7040132.94146  21708678.2424                   21708676.2464
  -8705153.59047  -6892282.69545  21797150.7274                   21797149.5434
  -6011112.66447  -4673440.85546  20755483.9304                   20755480.8054
 -20911365.87948 -16286992.37946  19891501.2034                   19891498.8754
  -1388515.13747  -1065019.09044  22636204.4534   22636203.5514
 -14918615.77348 -11624038.58646  21629867.0234                   21629863.5354
 -15675688.34448 -12213803.95745  21662476.6884                   21662474.4804
 11  8  1 20 34  0.0000000  0  7G17G24G07G08G26G28G11
  -9153875.28547  -7113447.48046  21690774.2734                   21690772.3794
  -8749005.06247  -6926452.66045  21788806.3284                   21788804.4844
  -5987672.94147  -4655176.16046  20759944.4614                   20759941.7344
 -20948699.08648 -16316083.20346  19884396.7664                   19884394.9024
  -1430805.04747  -1097972.26644  22628156.8204   22628156.0594
 -14971758.89548 -11665448.81646  21619754.6724                   21619750.8054
 -15668576.78147 -12208262.48445  21663829.8834                   21663827.2384
 11  8  1 20 34 30.0000000  0  7G17G24G07G08G26G28G11
  -9247608.77048  -7186486.53146  21672937.5234                   21672935.1054
  -8792316.07048  -6960201.49245  21780564.6254                   21780563.0354
  -5963763.55148  -4636545.49646  20764494.2504                   20764491.5554
 -20985501.73848 -16344760.59846  19877393.4694                   19877391.5044
  -1472490.07447  -1130454.10944  22620224.8754   22620223.7344
 -15024868.22348 -11706832.70346  21609648.0554                   21609644.7034
 -15660912.42247 -12202290.26645  21665288.5314                   21665286.0554
 11  8  1 20 35  0.0000000  0  7G17G24G07G08G26G28G11
  -9340985.19147  -7259247.35246  21655168.7734                   21655166.3794
  -8835082.53947  -6993525.97745  21772426.2974                   21772424.4884
  -5939382.18748  -4617547.04746  20769133.8134                   20769130.9844
 -21021769.89148 -16373021.51647  19870492.0944                   19870489.6254
  -1513567.49247  -1162462.48444  22612407.4774   22612407.1994
 -15077940.71547 -11748187.89546  21599548.7194                   21599545.2974
 -15652693.36747 -12195885.79745  21666852.4844                   21666849.7934
 11  8  1 20 35 30.0000000  0  7G17G24G07G08G26G28G11
  -9434006.47748  -7331731.41846  21637467.1884                   21637464.9454
  -8877305.55948  -7026427.00845  21764391.7424                   21764389.9144
  -5914531.85247  -4598183.18446  20773862.5704                   20773860.3874
 -21057504.06248 -16400866.33647  19863692.2274                   19863689.6524
  -1554039.71547  -1193999.31244  22604706.3754   22604705.5434
 -15130979.24248 -11789516.61746  21589456.0634                   21589452.6604
 -15643923.24648 -12189051.94945  21668521.2194                   21668519.0744
 11  8  1 20 36  0.0000000  0  7G17G24G07G08G26G28G11
  -7951248.93447  -6176335.88746  21919625.8674                   21919624.1884
  -7343562.67247  -5831302.66045  22056253.0704                   22056251.6564
  -4313794.69948  -3350855.55946  21078472.9064                   21078470.4344
 -19517281.57848 -15200692.96947  20156786.5314                   20156784.3284
    -18486.06647      2535.99244  22896912.7894   22896910.7854
 -13608561.95748 -10603217.43446  21879161.8134                   21879158.7894
 -14059183.78548 -10954190.03945  21970086.9694                   21970084.1884
 11  8  1 20 36 30.0000000  0  7G17G24G07G08G26G28G11
  -8043558.88347  -6248265.67646  21902060.6094                   21902058.3324
  -7384696.31648  -5863354.84045  22048425.7584                   22048424.3164
  -4288010.39848  -3330763.91846  21083379.1334                   21083377.0274
 -19551944.48048 -15227703.02746  20150190.5634                   20150188.1684
    -57749.97747    -28059.25044  22889440.7424   22889439.5784
 -13661532.82448 -10644493.43046  21869082.3134                   21869079.2424
 -14049315.96148 -10946500.81645  21971965.0004                   21971962.5394
 11  8  1 20 37  0.0000000  0  7G17G24G07G08G26G28G11
  -8135514.27347  -6319919.18446  21884561.7424                   21884559.6724
  -7425285.84848  -5894983.03945  22040702.0944                   22040699.7664
  -4261762.39847  -3310310.96146  21088374.1334                   21088371.7704
 -19586071.46148 -15254295.48046  20143696.5554                   20143693.8014
    -96412.33647    -58185.79744  22882083.5944   22882082.6994
 -13714471.89548 -10685744.64546  21859008.1484                   21859005.0434
 -14038903.33248 -10938387.09845  21973946.5944                   21973943.7854
 11  8  1 20 37 30.0000000  0  7G17G24G07G08G26G28G11
  -8227114.20347  -6391295.70746  21867130.5944                   21867128.8014
  -7465329.68748  -5926186.01245  22033081.4064                   22033079.8324
  -4235050.82447  -3289496.80546  21093457.2114                   21093454.7584
 -19619661.03148 -15280469.17247  20137304.5394                   20137302.4494
   -134472.91847    -87843.40244  22874840.6724   22874839.8324
 -13767378.84848 -10726970.84046  21848940.1174                   21848937.2934
 -14027946.40247 -10929849.23445  21976031.2114                   21976028.3484
 11  8  1 20 38  0.0000000  0  7G17G24G07G08G26G28G11
  -8318359.82047  -6462396.14146  21849767.6724                   21849765.2304
  -7504828.77048  -5956964.51245  22025565.1094                   22025563.5744
  -4207878.44547  -3268323.55146  21098628.1414                   21098625.7504
 -19652713.63748 -15306224.45747  20131014.7194                   20131012.4104
   -171934.08247   -117033.92244  22867712.3204   22867711.3674
 -13820255.51248 -10768173.44146  21838878.2034                   21838875.1094
 -14016448.52047 -10920889.85945  21978219.1724                   21978216.7424
 11  8  1 20 38 30.0000000  0  7G17G24G07G08G26G28G11
  -8409250.27047  -6533219.82446  21832471.5634                   21832469.5164
  -7543781.69148  -5987317.43045  22018153.0784                   22018150.8054
  -4180245.66447  -3246791.53946  21103886.6804                   21103883.4844
 -19685227.88748 -15331560.24247  20124827.4774                   20124825.1644
   -208795.58247   -145757.17644  22860697.8204   22860697.0394
 -13873101.42248 -10809352.06646  21828821.9534                   21828819.0164
 -14004410.39847 -10911509.52045  21980509.8524                   21980506.9884
 11  8  1 20 39  0.0000000  0  7G17G24G07G08G26G28G11
  -8499782.11747  -6603764.08246  21815243.6804                   21815241.6604
  -7582184.61748  -6017241.79745  22010844.7664                   22010842.7624
  -4152150.51647  -3224899.25446  21109232.8054                   21109230.2934
 -19717198.69948 -15356472.56246  20118743.6094                   20118741.2734
   -245054.96947   -174011.25844  22853797.8594   22853796.4964
 -13925913.61348 -10850504.43446  21818772.2034                   21818769.0904
 -13991830.46948 -10901707.00045  21982904.1954                   21982901.1484
 11  8  1 20 39 30.0000000  0  7G17G24G07G08G26G28G11
  -8589959.03947  -6674031.76646  21798083.3524                   21798081.7734
  -7620040.50447  -6046739.88345  22003641.0164                   22003639.7814
  -4123597.71947  -3202650.36346  21114666.2424                   21114663.8324
 -19748629.64148 -15380964.21946  20112762.6024                   20112760.3284
   -280717.10947   -201799.93444  22847011.5314   22847010.1884
 -13978696.03548 -10891633.59446  21808728.0394                   21808724.9184
 -13978714.19148 -10891486.54345  21985400.0164                   21985396.6054
